[[{"header":{"parameterUnit":"m.s-1","parameterCategory":1,"la1":30.6,"la2":29.2853,"lo1":-89.7004,"lo2":-87.6739,"dy":0.0162,"dx":0.0183,"nx":112,"ny":82,"refTime":"2023-07-28T06:00:00:Z","depth":0,"parameterNumber":2,"parameterNumberName":"U-component_of_WINDS"},"data":[0.0,0.0,0.0,0.0,0.0,0.0,0.0,0.0,0.0,0.0,0.0,0.0,0.0,0.0,0.0,0.0,0.0,0.0,0.0,0.0,0.0,0.0,0.0,0.0,0.0,0.0,0.0,0.0,0.0,0.0,0.0,0.0,0.0,0.0,0.0,0.0,0.0,0.0,0.0,0.0,0.0,0.0,0.0,0.0,0.0,0.0,0.0,0.0,0.0,0.0,0.0,0.0,0.0,0.0,0.0,0.0,0.0,0.0,0.0,0.0,0.0,0.0,0.0,0.0,0.0,0.0,0.0,0.0,0.0,0.0,0.0,0.0,0.0,0.0,0.0,0.0,0.0,0.0,0.0,0.0,0.0,0.0,0.0,0.0,0.0,0.0,0.0,0.0,0.0,0.0,0.0,-0.7083,-0.703,-0.7255,-0.8056,-0.7438,-0.7019,-0.6877,0.0,0.0,0.0,0.0,0.0,0.0,0.0,0.0,0.0,0.0,0.0,0.0,0.0,0.0,0.0,0.0,0.0,0.0,0.0,0.0,0.0,0.0,0.0,0.0,0.0,0.0,0.0,0.0,0.0,0.0,0.0,0.0,0.0,0.0,0.0,0.0,0.0,0.0,0.0,0.0,0.0,0.0,0.0,0.0,0.0,0.0,0.0,0.0,0.0,0.0,0.0,0.0,0.0,0.0,0.0,0.0,0.0,0.0,0.0,0.0,0.0,0.0,0.0,0.0,0.0,0.0,0.0,0.0,0.0,0.0,0.0,0.0,0.0,0.0,0.0,0.0,0.0,0.0,0.0,0.0,0.0,0.0,0.0,0.0,0.0,0.0,0.0,0.0,0.0,0.0,0.0,0.0,0.0,0.0,0.0,0.0,0.0,0.0,0.0,0.0,0.0,0.0,0.0,0.0,-0.73,-0.8582,-0.8703,-0.8803,-0.8915,-0.8212,-0.7509,-0.6948,0.0,0.0,0.0,0.0,0.0,0.0,0.0,0.0,0.0,0.0,0.0,0.0,0.0,0.0,0.0,0.0,0.0,0.0,0.0,0.0,0.0,0.0,0.0,0.0,0.0,0.0,0.0,0.0,0.0,0.0,0.0,0.0,0.0,0.0,0.0,0.0,0.0,0.0,0.0,0.0,0.0,0.0,0.0,0.0,0.0,0.0,0.0,0.0,0.0,0.0,0.0,0.0,0.0,0.0,0.0,0.0,0.0,0.0,0.0,0.0,0.0,0.0,0.0,0.0,0.0,0.0,0.0,0.0,0.0,0.0,0.0,0.0,0.0,0.0,0.0,0.0,0.0,0.0,0.0,0.0,0.0,0.0,0.0,0.0,0.0,0.0,0.0,0.0,0.0,0.0,0.0,0.0,0.0,0.0,0.0,0.0,0.0,0.0,0.0,0.0,0.0,0.0,0.0,-0.7098,-0.717,-0.7564,-0.7875,-0.8138,-0.8254,-0.7894,-0.7529,-0.7236,-0.663,0.0,0.0,0.0,0.0,0.0,0.0,0.0,0.0,0.0,0.0,0.0,0.0,0.0,0.0,0.0,0.0,0.0,0.0,0.0,0.0,0.0,0.0,0.0,0.0,0.0,0.0,0.0,0.0,0.0,0.0,0.0,0.0,0.0,0.0,0.0,0.0,0.0,0.0,0.0,0.0,0.0,0.0,0.0,0.0,0.0,0.0,0.0,0.0,0.0,0.0,0.0,0.0,0.0,0.0,0.0,0.0,0.0,0.0,0.0,0.0,0.0,0.0,0.0,0.0,0.0,0.0,0.0,0.0,0.0,0.0,0.0,0.0,0.0,0.0,0.0,0.0,0.0,0.0,0.0,0.0,0.0,0.0,0.0,0.0,0.0,0.0,0.0,0.0,0.0,0.0,0.0,0.0,0.0,0.0,0.0,0.0,0.0,0.0,0.0,0.0,0.0,0.0,-0.8184,-0.777,-0.7104,-0.7414,-0.7701,-0.7621,-0.748,-0.7326,-0.7253,-0.6601,0.0,0.0,0.0,0.0,0.0,0.0,0.0,0.0,0.0,0.0,0.0,0.0,0.0,0.0,0.0,0.0,0.0,0.0,0.0,0.0,0.0,0.0,0.0,0.0,0.0,0.0,0.0,0.0,0.0,0.0,0.0,0.0,0.0,0.0,0.0,0.0,0.0,0.0,0.0,0.0,0.0,0.0,0.0,0.0,0.0,0.0,0.0,0.0,0.0,0.0,0.0,0.0,0.0,0.0,0.0,0.0,0.0,0.0,0.0,0.0,0.0,0.0,0.0,0.0,0.0,0.0,0.0,0.0,0.0,0.0,0.0,0.0,0.0,0.0,0.0,0.0,0.0,0.0,0.0,0.0,0.0,0.0,0.0,0.0,0.0,0.0,0.0,0.0,0.0,0.0,0.0,0.0,0.0,0.0,0.0,0.0,0.0,0.0,0.0,0.0,0.0,0.0,-0.9183,-0.9996,-0.9195,-0.9125,-0.8827,-0.8156,-0.7399,-0.6865,-0.6637,-0.663,0.0,0.0,0.0,0.0,0.0,0.0,0.0,0.0,0.0,0.0,0.0,0.0,0.0,0.0,0.0,0.0,0.0,0.0,0.0,0.0,0.0,0.0,0.0,0.0,0.0,0.0,0.0,0.0,0.0,0.0,0.0,0.0,0.0,0.0,0.0,0.0,0.0,0.0,0.0,0.0,0.0,0.0,0.0,0.0,0.0,0.0,0.0,0.0,0.0,0.0,0.0,0.0,0.0,0.0,0.0,0.0,0.0,0.0,0.0,0.0,0.0,0.0,0.0,0.0,0.0,0.0,0.0,0.0,0.0,0.0,0.0,0.0,0.0,0.0,0.0,0.0,0.0,0.0,0.0,0.0,0.0,0.0,0.0,0.0,0.0,0.0,0.0,0.0,0.0,0.0,0.0,0.0,0.0,0.0,0.0,0.0,0.0,0.0,0.0,0.0,0.0,0.0,-0.9316,-0.9291,0.0,-0.8313,-0.8461,-0.8156,-0.7855,-0.7548,-0.7326,0.0,0.0,0.0,0.0,0.0,0.0,0.0,0.0,0.0,0.0,0.0,0.0,0.0,0.0,0.0,0.0,0.0,0.0,0.0,0.0,0.0,0.0,0.0,0.0,0.0,0.0,0.0,0.0,0.0,0.0,0.0,0.0,0.0,0.0,0.0,0.0,0.0,0.0,0.0,0.0,0.0,0.0,0.0,0.0,0.0,0.0,0.0,0.0,0.0,0.0,0.0,0.0,0.0,0.0,0.0,0.0,0.0,0.0,0.0,0.0,0.0,0.0,0.0,0.0,0.0,0.0,0.0,0.0,0.0,0.0,0.0,0.0,0.0,0.0,0.0,0.0,0.0,0.0,0.0,0.0,0.0,0.0,0.0,0.0,0.0,0.0,0.0,0.0,0.0,0.0,0.0,0.0,0.0,0.0,0.0,0.0,0.0,0.0,0.0,0.0,0.0,0.0,-0.9895,-1.0045,-0.9674,0.0,-0.8461,-0.8537,-0.8313,-0.8084,-0.7931,-0.7936,0.0,0.0,0.0,0.0,0.0,0.0,0.0,0.0,0.0,0.0,0.0,0.0,0.0,0.0,0.0,0.0,0.0,0.0,0.0,0.0,0.0,0.0,0.0,0.0,0.0,0.0,0.0,0.0,0.0,0.0,0.0,0.0,0.0,0.0,0.0,0.0,0.0,0.0,0.0,0.0,0.0,0.0,0.0,0.0,0.0,0.0,0.0,0.0,0.0,0.0,0.0,0.0,0.0,0.0,0.0,0.0,0.0,0.0,0.0,0.0,0.0,0.0,0.0,0.0,0.0,0.0,0.0,0.0,0.0,0.0,0.0,0.0,0.0,0.0,0.0,0.0,0.0,0.0,0.0,0.0,0.0,0.0,0.0,0.0,0.0,0.0,0.0,0.0,0.0,0.0,0.0,0.0,0.0,0.0,0.0,0.0,0.0,0.0,0.0,0.0,0.0,0.0,-1.0864,-1.1694,-1.1626,-1.0045,-0.99,-0.9528,-0.8784,-0.7944,-0.7638,0.0,0.0,0.0,0.0,0.0,0.0,0.0,0.0,0.0,0.0,0.0,0.0,0.0,0.0,0.0,0.0,0.0,0.0,0.0,0.0,0.0,0.0,0.0,0.0,0.0,0.0,0.0,0.0,0.0,0.0,0.0,0.0,0.0,0.0,0.0,0.0,0.0,0.0,0.0,0.0,0.0,0.0,0.0,0.0,0.0,0.0,0.0,0.0,0.0,0.0,0.0,0.0,0.0,0.0,0.0,0.0,0.0,0.0,0.0,0.0,0.0,0.0,0.0,0.0,0.0,0.0,0.0,0.0,0.0,0.0,0.0,0.0,0.0,0.0,0.0,0.0,0.0,0.0,0.0,0.0,0.0,0.0,0.0,0.0,0.0,0.0,0.0,0.0,0.0,0.0,0.0,0.0,0.0,0.0,0.0,0.0,0.0,0.0,0.0,0.0,0.0,0.0,0.0,-1.0881,-1.0813,-1.0379,-0.9374,-0.8881,-0.8493,-0.8256,-0.8019,-0.7858,-0.7858,0.0,0.0,0.0,0.0,0.0,0.0,0.0,0.0,0.0,0.0,0.0,0.0,0.0,0.0,0.0,0.0,0.0,0.0,0.0,0.0,0.0,0.0,0.0,0.0,0.0,0.0,0.0,0.0,0.0,0.0,0.0,0.0,0.0,0.0,0.0,0.0,0.0,0.0,0.0,0.0,0.0,0.0,0.0,0.0,0.0,0.0,0.0,0.0,0.0,0.0,0.0,0.0,0.0,0.0,0.0,0.0,0.0,0.0,0.0,0.0,0.0,0.0,0.0,0.0,0.0,0.0,0.0,0.0,0.0,0.0,0.0,0.0,0.0,0.0,0.0,0.0,0.0,0.0,0.0,0.0,0.0,0.0,0.0,0.0,0.0,0.0,0.0,0.0,0.0,0.0,0.0,0.0,0.0,0.0,0.0,0.0,0.0,0.0,0.0,0.0,0.0,0.0,-1.1266,-1.1337,-1.1117,-1.0316,-0.9797,-0.9634,-0.9634,-0.9308,-0.915,-0.9313,0.0,0.0,0.0,0.0,0.0,0.0,0.0,0.0,0.0,0.0,0.0,0.0,0.0,0.0,0.0,0.0,0.0,0.0,0.0,0.0,0.0,0.0,0.0,0.0,0.0,0.0,0.0,0.0,0.0,0.0,0.0,0.0,0.0,0.0,0.0,0.0,0.0,0.0,0.0,0.0,0.0,0.0,0.0,0.0,0.0,0.0,0.0,0.0,0.0,0.0,0.0,0.0,0.0,0.0,0.0,0.0,0.0,0.0,0.0,0.0,0.0,0.0,0.0,0.0,0.0,0.0,0.0,0.0,0.0,0.0,0.0,0.0,0.0,0.0,0.0,0.0,0.0,0.0,0.0,0.0,0.0,0.0,0.0,0.0,0.0,0.0,0.0,0.0,0.0,0.0,0.0,0.0,0.0,0.0,0.0,0.0,0.0,0.0,0.0,0.0,0.0,0.0,-1.1964,-1.2584,-1.2683,-1.1944,-1.1802,-1.1813,-1.1813,-1.1156,-1.0913,-1.1491,0.0,0.0,0.0,0.0,0.0,0.0,0.0,0.0,0.0,0.0,0.0,0.0,0.0,0.0,0.0,0.0,0.0,0.0,0.0,0.0,0.0,0.0,0.0,0.0,0.0,0.0,0.0,0.0,0.0,0.0,0.0,0.0,0.0,0.0,0.0,0.0,0.0,0.0,0.0,0.0,0.0,0.0,0.0,0.0,0.0,0.0,0.0,0.0,0.0,0.0,0.0,0.0,0.0,0.0,0.0,0.0,0.0,0.0,0.0,0.0,-0.9699,0.0,0.0,0.0,0.0,0.0,0.0,0.0,0.0,0.0,0.0,0.0,0.0,0.0,0.0,0.0,0.0,0.0,0.0,0.0,0.0,0.0,0.0,0.0,0.0,0.0,0.0,0.0,0.0,0.0,0.0,0.0,0.0,0.0,0.0,0.0,0.0,0.0,0.0,0.0,0.0,0.0,-1.2876,-1.202,-1.1316,-1.1145,-1.0642,-1.0323,-1.0323,-1.0152,-1.0152,-1.0238,0.0,0.0,0.0,0.0,0.0,0.0,0.0,0.0,0.0,0.0,0.0,0.0,0.0,0.0,0.0,0.0,0.0,0.0,0.0,0.0,0.0,0.0,0.0,0.0,0.0,0.0,0.0,0.0,0.0,0.0,0.0,0.0,0.0,0.0,0.0,0.0,0.0,0.0,0.0,0.0,0.0,0.0,0.0,0.0,0.0,0.0,0.0,0.0,0.0,0.0,0.0,0.0,0.0,0.0,0.0,0.0,0.0,0.0,0.0,0.0,0.0,-1.0236,0.0,0.0,0.0,0.0,0.0,0.0,0.0,0.0,0.0,0.0,0.0,0.0,0.0,0.0,0.0,0.0,0.0,0.0,0.0,0.0,0.0,0.0,0.0,0.0,0.0,0.0,0.0,0.0,0.0,0.0,0.0,0.0,0.0,0.0,0.0,0.0,0.0,0.0,0.0,0.0,-1.3028,-1.2665,-1.2416,-1.2416,-1.2111,-1.1929,-1.1929,-1.1494,-1.1241,-1.1241,-1.0376,0.0,0.0,0.0,0.0,0.0,0.0,0.0,0.0,0.0,0.0,0.0,0.0,0.0,0.0,0.0,0.0,0.0,0.0,0.0,0.0,0.0,0.0,0.0,0.0,0.0,0.0,0.0,0.0,0.0,0.0,0.0,0.0,0.0,0.0,0.0,0.0,0.0,0.0,0.0,0.0,0.0,0.0,0.0,0.0,0.0,0.0,0.0,0.0,0.0,0.0,0.0,0.0,0.0,-1.1423,-1.145,-1.1503,-1.1503,-1.153,-1.1577,-1.1577,-1.1523,-1.1361,0.0,0.0,0.0,0.0,0.0,0.0,0.0,0.0,0.0,0.0,0.0,0.0,0.0,0.0,0.0,0.0,0.0,0.0,0.0,0.0,0.0,0.0,0.0,0.0,0.0,-1.3026,-1.3153,0.0,0.0,0.0,0.0,0.0,0.0,0.0,0.0,0.0,0.0,0.0,0.0,-1.3021,-1.3483,-1.3828,-1.3828,-1.3737,-1.3568,-1.3568,-1.2875,-1.2448,-1.2448,-1.1149,-1.0202,0.0,0.0,0.0,0.0,0.0,0.0,0.0,0.0,0.0,0.0,0.0,0.0,0.0,0.0,0.0,0.0,0.0,0.0,0.0,0.0,0.0,0.0,0.0,0.0,0.0,0.0,0.0,0.0,0.0,0.0,0.0,0.0,-1.156,-1.156,0.0,0.0,0.0,0.0,0.0,0.0,0.0,0.0,0.0,0.0,0.0,0.0,0.0,-1.1329,-1.1369,-1.1369,-1.139,-1.1423,-1.1423,-1.1563,-1.181,-1.181,-1.1944,-1.2184,-1.2184,0.0,-1.1374,-1.0929,0.0,0.0,0.0,0.0,0.0,0.0,0.0,0.0,0.0,0.0,0.0,0.0,0.0,0.0,0.0,0.0,0.0,0.0,0.0,0.0,0.0,0.0,-1.3153,-1.3153,-1.318,-1.3267,0.0,-1.3327,-1.316,-1.32,-1.3213,0.0,0.0,0.0,0.0,0.0,0.0,0.0,-1.3906,-1.3307,-1.2875,-1.2875,-1.2186,-1.1666,-1.1666,-1.1585,-1.1499,-1.1499,-1.2015,-1.158,-0.9946,-1.0549,0.0,0.0,0.0,0.0,0.0,0.0,0.0,0.0,0.0,0.0,0.0,0.0,0.0,0.0,0.0,0.0,0.0,0.0,0.0,0.0,0.0,0.0,0.0,0.0,0.0,0.0,0.0,0.0,0.0,-1.205,-1.174,-1.2097,-1.1615,-1.1318,0.0,0.0,0.0,0.0,0.0,0.0,0.0,0.0,0.0,-1.1423,-1.1833,-1.2183,-1.2283,-1.2283,-1.2577,-1.3171,-1.2338,-1.2199,-1.2755,-1.2328,-1.2184,-1.2305,-1.2305,-1.2158,-1.1859,-1.1695,-1.1601,-1.1608,0.0,0.0,0.0,0.0,-1.2305,-1.2305,-1.2305,-1.2412,0.0,0.0,0.0,0.0,0.0,0.0,0.0,0.0,0.0,0.0,0.0,0.0,0.0,-1.3454,-1.3581,-1.3741,-1.3868,-1.3794,-1.3707,0.0,-1.3707,-1.3741,-1.3868,0.0,0.0,0.0,0.0,0.0,-1.4088,-1.388,-1.3713,-1.3713,-1.3505,-1.3145,-1.2514,-1.1976,-1.1447,-1.092,-1.0741,-1.0291,-0.9492,-0.9849,-0.9615,0.0,0.0,0.0,0.0,0.0,0.0,0.0,0.0,0.0,0.0,0.0,0.0,0.0,0.0,0.0,0.0,0.0,0.0,0.0,0.0,0.0,0.0,0.0,0.0,0.0,0.0,0.0,0.0,-1.2615,-1.2172,-1.2833,-1.2115,-1.1761,0.0,0.0,0.0,0.0,0.0,0.0,-1.1675,-1.1681,-1.1715,-1.179,-1.2546,-1.3071,-1.3238,-1.3442,-1.3853,-1.4386,-1.3237,-1.2879,-1.3171,-1.2592,-1.2305,-1.2305,-1.2305,-1.2345,-1.2412,-1.2331,-1.2305,-1.2305,-1.2305,-1.2351,-1.2418,-1.2418,-1.2465,-1.2532,-1.2532,-1.2679,-1.2866,-1.2866,0.0,-1.3213,-1.3213,0.0,0.0,0.0,0.0,-1.3434,-1.3434,-1.3594,-1.3761,-1.3761,-1.3928,-1.4088,-1.4088,-1.4088,-1.4088,0.0,-1.4088,-1.4088,-1.4088,0.0,0.0,0.0,0.0,-1.4309,-1.4309,-1.4502,-1.4542,-1.4272,-1.4193,-1.3948,-1.3115,-1.2381,-1.1838,-1.1298,-1.0565,-1.0102,-0.9828,-0.9554,-0.9305,-0.8893,0.0,0.0,0.0,0.0,0.0,0.0,0.0,0.0,0.0,0.0,0.0,0.0,0.0,0.0,0.0,0.0,0.0,0.0,0.0,0.0,0.0,0.0,0.0,0.0,0.0,0.0,0.0,0.0,0.0,-1.3899,-1.3445,0.0,0.0,0.0,0.0,-1.2975,-1.2908,-1.2711,-1.248,-1.2424,-1.255,-1.2844,-1.3563,-1.3932,-1.3947,-1.4712,-1.4649,-1.3745,-1.3673,-1.3164,-1.2378,-1.2298,-1.2305,-1.2305,-1.2305,-1.2458,-1.2775,-1.2418,-1.2305,-1.2305,-1.2305,-1.2478,-1.2802,-1.2802,-1.2913,-1.316,-1.316,-1.3173,-1.3186,-1.3186,-1.32,-1.3213,-1.3213,-1.34,0.0,0.0,-1.3828,-1.4041,-1.4041,-1.4055,-1.4062,-1.4062,-1.4075,-1.4088,-1.4088,-1.4088,-1.4088,0.0,-1.4088,-1.4088,-1.4088,0.0,-1.4496,-1.4496,-1.4736,-1.4917,-1.4917,-1.493,-1.4571,-1.3549,-1.2643,-1.2107,-1.2107,-1.2011,-1.2381,-1.3399,-1.3302,-1.2746,-1.1919,-1.093,-1.0014,-0.9084,-0.9084,0.0,0.0,0.0,0.0,0.0,0.0,0.0,0.0,0.0,0.0,0.0,0.0,0.0,0.0,0.0,0.0,0.0,0.0,0.0,0.0,0.0,0.0,0.0,0.0,0.0,0.0,0.0,0.0,-1.5132,-1.4465,0.0,0.0,-1.4369,-1.3913,-1.3668,-1.362,-1.339,-1.2804,-1.2739,-1.2788,-1.2893,-1.4122,-1.4768,-1.4768,-1.5122,-1.5308,-1.5462,-1.4065,-1.3481,-1.3536,-1.3104,-1.2886,-1.2886,-1.2886,-1.2946,-1.3033,-1.2933,-1.2886,-1.2886,-1.2886,-1.2953,-1.3046,-1.3046,-1.3113,-1.3213,-1.3213,-1.3333,-1.352,-1.3714,-1.3774,-1.3774,-1.3774,-1.3848,-1.3928,-1.3928,-1.4008,-1.4088,-1.4088,-1.4088,-1.4088,-1.4088,-1.4229,-1.4362,-1.4362,-1.4516,-1.4649,-1.4649,-1.4496,-1.4429,-1.4623,-1.4736,-1.4803,-1.4803,-1.4897,-1.4963,-1.4963,-1.5124,-1.5146,-1.4767,-1.4551,-1.4184,-1.3526,-1.3431,-1.3337,-1.3048,-1.2953,-1.2758,-1.2474,-1.1527,-1.0705,-1.0297,-0.9638,-0.921,0.0,0.0,0.0,0.0,0.0,0.0,0.0,0.0,0.0,0.0,0.0,0.0,0.0,0.0,0.0,0.0,0.0,0.0,0.0,0.0,0.0,0.0,0.0,0.0,0.0,0.0,-1.548,-1.6271,-1.5587,-1.5288,-1.589,-1.5497,-1.5047,-1.4522,-1.4576,-1.4283,-1.335,-1.3383,-1.3582,-1.3866,-1.5121,-1.5922,-1.622,-1.6517,-1.6793,-1.6958,-1.547,-1.4802,-1.4864,-1.4421,-1.3974,-1.3673,-1.3673,-1.3498,-1.3353,-1.3353,-1.3414,-1.3487,-1.3287,-1.3273,-1.3353,-1.3353,-1.342,-1.3507,-1.3507,-1.3634,-1.3828,-1.4021,-1.4088,-1.4088,-1.4088,-1.4088,-1.4088,-1.4088,-1.4162,-1.4229,-1.4229,-1.4309,-1.4382,-1.4382,-1.4529,-1.4669,-1.4669,-1.4823,-1.499,-1.509,-1.487,-1.473,-1.493,-1.505,-1.511,-1.511,-1.5197,-1.5257,-1.5257,-1.5424,-1.5351,-1.5071,-1.5233,-1.5153,-1.4478,-1.41,-1.3806,-1.3505,-1.2732,-1.2349,-1.2446,-1.1375,-1.0728,-1.0601,-0.9925,-0.9581,-0.956,0.0,0.0,0.0,0.0,0.0,0.0,0.0,0.0,0.0,0.0,0.0,0.0,0.0,0.0,0.0,0.0,0.0,0.0,0.0,0.0,0.0,0.0,0.0,-1.6826,-1.6393,-1.6503,-1.7337,-1.6779,-1.6733,-1.7657,-1.6881,-1.6114,-1.5638,-1.5905,-1.5454,-1.414,-1.4374,-1.4909,-1.5718,-1.6489,-1.7336,-1.8175,-1.8931,-1.8784,-1.7877,-1.7886,-1.7278,-1.6125,-1.6125,-1.552,-1.4543,-1.4543,-1.4251,-1.3654,-1.3654,-1.3828,-1.4028,-1.346,-1.3407,-1.3661,-1.3661,-1.3841,-1.4088,-1.4088,-1.4088,-1.4088,-1.4088,-1.4095,-1.4102,-1.4102,-1.4108,-1.4115,-1.4115,-1.4322,-1.4536,-1.4536,-1.475,-1.4963,-1.4963,-1.497,-1.4977,-1.4977,-1.4983,-1.5077,-1.5357,-1.5184,-1.499,-1.499,-1.5224,-1.5411,-1.5411,-1.5651,0.0,-1.5832,-1.5832,-1.5445,-1.449,-1.4573,-1.4758,-1.4758,-1.3794,-1.3794,-1.5051,-1.3028,-1.1878,-1.2073,-1.0801,-1.0117,-1.0019,-1.0019,-1.0117,-1.0413,0.0,0.0,0.0,0.0,0.0,0.0,0.0,0.0,0.0,0.0,0.0,0.0,0.0,0.0,0.0,0.0,0.0,0.0,0.0,0.0,0.0,0.0,-1.7793,-1.7676,-1.7552,-1.7552,-1.7842,-1.7658,-1.7772,-1.8288,-1.8098,-1.7797,-1.7442,-1.7568,-1.7178,-1.6263,-1.6287,-1.6413,-1.6632,-1.7402,-1.7952,-1.8184,-1.8451,-1.8428,-1.8199,-1.7709,-1.7276,-1.6957,-1.6957,-1.6397,-1.5434,-1.6075,-1.5487,-1.4192,-1.4691,-1.4657,-1.4307,-1.3985,-1.3895,-1.3968,-1.3968,-1.4015,-1.4088,-1.4088,-1.4088,-1.4088,-1.4088,-1.4229,-1.4402,-1.4402,-1.4549,-1.4723,-1.4723,-1.4783,-1.4843,-1.4843,-1.4903,-1.4963,-1.4963,-1.5124,-1.5277,-1.5277,-1.5444,-1.5618,-1.5698,-1.5645,-1.5591,-1.5591,-1.5658,-1.5712,-1.5712,-1.5778,0.0,-1.5832,-1.5933,-1.5933,-1.5445,-1.5635,-1.5832,-1.5832,-1.554,-1.5635,-1.6109,-1.5622,-1.4949,-1.4286,-1.3125,-1.1863,-1.0314,-1.0314,-1.0314,0.0,0.0,0.0,0.0,0.0,0.0,0.0,0.0,0.0,0.0,0.0,0.0,0.0,0.0,0.0,0.0,0.0,0.0,0.0,0.0,0.0,0.0,-1.8154,-1.8271,-1.8271,-1.8115,-1.8076,-1.8252,-1.8271,-1.8437,-1.8867,-1.8906,-1.8726,-1.8239,-1.8331,-1.8109,-1.7561,-1.764,-1.7961,-1.8522,-1.8943,-1.9344,-1.9752,-1.9822,-1.9846,-1.9776,-1.9435,-1.9208,-1.9035,-1.9035,-1.8451,0.0,-1.8029,-1.7203,-1.5618,-1.6461,-1.6037,0.0,0.0,0.0,0.0,0.0,-1.4088,-1.4108,-1.4229,-1.4269,-1.4289,-1.4416,-1.4569,-1.4703,-1.4703,-1.483,-1.4963,-1.4963,-1.505,-1.5144,-1.5144,-1.5237,-1.5331,-1.5331,-1.5451,-1.5578,-1.5578,-1.5712,-1.5832,-1.5832,-1.5832,0.0,-1.5832,-1.5832,-1.5832,-1.5927,-1.5933,-1.6021,-1.6109,-1.6305,-1.6305,-1.6116,-1.6407,-1.6508,-1.6508,-1.6109,0.0,0.0,0.0,-1.5229,-1.4657,-1.3601,0.0,0.0,0.0,-1.0605,-1.0708,0.0,0.0,0.0,-1.0453,-1.0445,0.0,0.0,0.0,0.0,0.0,0.0,0.0,0.0,0.0,0.0,0.0,0.0,0.0,0.0,0.0,0.0,-1.8389,-1.8652,-1.8701,-1.8389,-1.8291,-1.8672,-1.8711,-1.8877,-1.9316,-1.9404,-1.9222,-1.8602,-1.8831,-1.8888,-1.8593,0.0,0.0,0.0,0.0,-2.1108,-2.1885,-2.1885,-2.1885,-2.1885,-2.1885,-2.1783,-2.1588,-2.1588,-2.0996,-1.996,-2.0054,-1.9025,-1.7478,-1.8329,-1.7644,-1.5779,-1.4606,-1.424,-1.4267,-1.4233,-1.424,-1.4307,-1.4476,0.0,0.0,-1.4877,-1.508,-1.5107,-1.501,-1.5127,-1.5154,-1.5064,-1.5244,-1.5444,-1.5444,-1.5631,-1.5832,-1.5832,-1.5832,-1.5832,-1.5832,-1.5832,-1.5832,-1.5832,-1.5825,-1.5832,-1.5832,-1.5825,-1.5927,-1.6123,-1.6218,-1.6231,-1.6441,-1.6441,-1.6455,-1.63,0.0,0.0,-1.67,-1.581,-1.5408,-1.5701,-1.4545,-1.387,-1.387,-1.2802,-1.2222,-1.2222,-1.1353,-1.1067,-1.1264,-1.1241,-1.1231,-1.1231,-1.0717,-1.0609,0.0,0.0,0.0,0.0,0.0,0.0,0.0,0.0,0.0,0.0,0.0,0.0,0.0,0.0,0.0,-1.8457,-1.8584,-1.876,-1.9111,-1.9092,-1.9072,-1.915,-1.916,-1.9326,-1.9756,-2.0117,-2.0391,-2.0593,-2.1018,-2.1207,-2.1202,-2.1196,0.0,-2.1617,-2.1627,-2.1709,-2.1885,-2.1885,-2.1885,-2.1885,0.0,0.0,-2.1792,-2.1792,-2.1172,-2.0205,-2.0903,-2.0223,-1.8604,-1.9366,-1.8596,-1.6755,-1.5338,-1.5005,-1.5374,-1.4863,-1.5012,-1.5408,-1.5192,-1.5123,-1.5137,-1.5026,-1.5305,-1.5599,-1.5409,-1.5663,0.0,-1.5665,-1.5705,-1.5745,-1.5745,-1.5785,-1.5832,-1.5832,-1.5832,-1.5832,-1.5832,-1.5832,-1.5832,-1.5832,-1.5933,-1.6123,-1.6123,-1.5927,-1.5832,-1.5832,-1.6028,-1.6014,-1.5369,-1.5674,-1.5562,-1.4695,-1.4819,-1.5026,-1.5026,-1.4819,-1.4819,-1.5108,-1.4105,-1.3505,-1.3505,-1.2501,-1.1894,-1.1894,-1.1694,-1.1592,-1.1699,-1.1534,-1.1453,-1.1449,-1.1175,-1.1096,0.0,0.0,0.0,0.0,0.0,0.0,0.0,0.0,0.0,0.0,0.0,-1.8542,0.0,0.0,-1.8666,-1.8887,-1.9141,-1.9424,-1.9863,-2.0117,-2.0176,-1.9951,-1.9922,-2.0185,-2.084,-2.1094,-2.1318,-2.1543,-2.1768,-2.1982,-2.2187,-2.2197,-2.2295,-2.251,-2.251,-2.251,-2.251,-2.251,-2.251,-2.251,-2.251,-2.251,-2.251,-2.251,-2.2149,-2.1693,-2.214,-2.1521,-2.0298,-2.0114,-1.9499,-1.858,-1.7009,-1.6094,-1.5651,-1.5402,-1.5443,-1.5686,-1.5743,-1.5701,-1.5729,-1.5803,-1.5961,-1.6178,-1.6078,-1.6188,-1.6407,-1.6211,-1.6204,-1.6204,-1.6204,-1.6204,-1.6204,-1.6204,-1.6204,-1.6204,-1.6204,-1.6204,-1.6252,-1.6402,-1.6532,-1.6683,-1.6836,-1.6766,-1.6704,-1.6656,-1.6863,-1.6912,-1.6657,-1.6867,-1.6817,-1.6267,-1.6286,-1.6386,-1.6386,-1.6386,-1.6487,-1.6573,-1.5569,-1.4969,-1.4969,-1.3443,-1.2633,-1.2633,-1.2019,-1.1817,-1.1817,-1.1718,-1.1666,-1.1666,-1.1557,-1.1392,0.0,0.0,0.0,0.0,0.0,0.0,0.0,0.0,-1.8771,-1.8582,-1.8602,-1.8664,-1.8953,-1.8962,-1.9039,-1.9336,-1.9766,-2.0195,-2.0635,-2.1074,-2.126,-2.0977,-2.0869,-2.1103,-2.1816,-2.1963,-2.2012,-2.2012,-2.209,-2.2275,-2.2617,-2.2637,-2.2832,-2.3252,-2.3262,-2.3301,-2.3389,-2.3389,-2.3389,-2.3389,-2.3389,-2.3389,-2.3389,-2.3389,-2.334,-2.3262,-2.3174,-2.2687,-2.1872,-2.0872,-2.0503,-2.0387,-1.8929,-1.7581,-1.6282,-1.5956,-1.5887,-1.6055,-1.6218,-1.6303,-1.6345,-1.6504,-1.6683,-1.6683,-1.6588,-1.6683,-1.6683,-1.6588,-1.6588,-1.6588,-1.6588,-1.6588,-1.6588,-1.6588,-1.6588,-1.6602,-1.6665,-1.6672,-1.677,-1.7175,-1.7239,-1.7323,-1.7577,-1.7768,-1.7697,-1.7483,-1.7654,-1.7938,-1.7981,-1.7989,-1.801,-1.7867,-1.7874,-1.7874,-1.7874,-1.7874,-1.7874,-1.7874,-1.6962,-1.6456,-1.6456,-1.4812,-1.3789,-1.3583,-1.266,-1.2144,-1.194,-1.1898,-1.1879,-1.1879,-1.1836,-1.1638,-1.9075,-1.9075,-1.9075,-1.9075,-1.9075,-1.9075,0.0,0.0,-1.8785,-1.8825,-1.8834,-1.8973,-1.9203,-1.9281,-1.9355,-1.9775,-2.0215,-2.0654,-2.1094,-2.1543,-2.1934,-2.2256,-2.1963,-2.1777,-2.1875,-2.2217,-2.2441,-2.2441,-2.2783,-2.3018,-2.3066,-2.3066,-2.3262,-2.3701,-2.3721,-2.3896,-2.4268,-2.4268,-2.4268,-2.4268,-2.4268,-2.4268,-2.4268,-2.4268,-2.4072,-2.3691,-2.3301,-2.3047,-2.2862,-2.1961,-2.1516,-2.1418,-2.0369,-1.9331,-1.8271,-1.6908,-1.6706,-1.7137,-1.6908,-1.6929,-1.6835,-1.6669,-1.6784,-1.6878,-1.6683,-1.6784,-1.6878,-1.6683,-1.6588,-1.6588,-1.6588,-1.6588,-1.6588,-1.6588,-1.6588,-1.6665,-1.6938,-1.7001,-1.719,-1.7506,-1.7669,-1.7782,-1.7818,-1.8347,-1.8427,-1.7711,-1.7796,-1.761,-1.6945,-1.7088,-1.6975,-1.6274,-1.6194,-1.6194,-1.6194,-1.6194,-1.6194,-1.6194,-1.6088,-1.5988,-1.5988,-1.5771,-1.514,-1.4083,-1.3981,-1.3444,-1.237,-1.2191,-1.2101,-1.2101,-1.1907,-1.1794,-1.9075,-1.9075,0.0,0.0,-1.9075,-1.9147,-1.9213,-1.9206,-1.9259,-1.9272,-1.9433,-1.9491,-1.9644,-1.9723,-2.0023,0.0,-2.084,-2.1201,-2.1885,-2.2139,-2.2402,-2.2822,-2.2725,-2.2617,-2.2617,-2.2773,-2.2881,-2.2881,-2.3271,-2.3516,-2.3516,-2.375,-2.3965,-2.415,-2.415,-2.4238,-2.4414,-2.4414,-2.4414,-2.4414,-2.4414,-2.4414,-2.4414,-2.4414,-2.4316,-2.4141,-2.3955,-2.3887,-2.3796,-2.3415,-2.295,-2.2392,-2.2014,-2.1133,-1.9878,-1.8341,-1.7579,-1.7333,-1.7239,-1.7153,-1.7153,-1.7052,-1.7052,-1.7153,-1.7052,-1.7059,-1.7153,-1.7052,-1.7052,-1.7052,-1.7052,-1.7052,-1.7095,-1.7282,-1.7325,-1.7419,-1.7735,-1.7807,-1.7901,-1.8225,-1.839,-1.8448,-1.8636,-1.8884,-1.9023,-1.8687,-1.8673,-1.8606,-1.8212,-1.8337,-1.8282,-1.7871,-1.7884,-1.7884,-1.7884,-1.7252,-1.7147,-1.7884,-1.5974,-1.5227,-1.5861,-1.5227,-1.4696,-1.4169,-1.4804,-1.4589,-1.3413,-1.3321,-1.2954,-1.2313,-1.2219,-1.2176,-1.9131,0.0,0.0,-1.923,-1.9261,-1.9375,-1.9702,-1.9745,-1.9798,-1.9875,-2.0038,-2.0169,-2.0171,-2.0424,0.0,-2.1133,-2.1435,-2.1807,-2.2422,-2.2617,-2.2793,-2.3105,-2.3135,-2.3184,-2.3301,-2.332,-2.332,-2.332,-2.3721,-2.3965,-2.3965,-2.4248,-2.4473,-2.459,-2.459,-2.4658,-2.4775,-2.4775,-2.4775,-2.4775,-2.4775,-2.4775,-2.4775,-2.4648,-2.459,-2.459,-2.4473,-2.4414,-2.4414,-2.4414,-2.4034,-2.3374,-2.3374,-2.2619,-2.1392,-2.0374,-1.9047,-1.7692,-1.7419,-1.7326,-1.7347,-1.7435,-1.7465,-1.7479,-1.7567,-1.7596,-1.7596,-1.7596,-1.7596,-1.7596,-1.7596,-1.7596,-1.7655,-1.7889,-1.7947,-1.8035,-1.8364,-1.8438,-1.8533,-1.8855,-1.8921,-1.9001,-1.9235,-1.9279,-1.9279,-1.9279,-1.9279,-1.9279,-1.9279,-1.9279,-1.9168,-1.8848,-1.9063,-1.9063,-1.8422,-1.7898,-1.7793,-1.8318,-1.6293,-1.5339,-1.5861,-1.5441,-1.4809,-1.4169,-1.5013,-1.4905,-1.3738,-1.3738,-1.3305,-1.2441,-1.2441,-1.2441,0.0,0.0,-1.9178,-1.9702,-1.9806,-1.9851,-2.0296,-2.04,-2.0463,-2.0716,-2.0808,-2.0802,-2.0874,-2.1223,-2.1431,-2.123,-2.1934,-2.248,-2.251,-2.2861,-2.3125,-2.3135,-2.3135,-2.3301,0.0,-2.3769,-2.3769,-2.3769,-2.416,-2.4394,-2.4394,-2.4414,-2.4609,-2.5029,-2.5049,-2.5254,-2.5693,-2.5693,-2.5693,-2.5693,-2.5693,-2.5693,-2.5684,-2.5244,-2.5049,-2.5029,-2.46,-2.4414,-2.4414,-2.4414,-2.4414,-2.4322,-2.4322,-2.3737,-2.2971,-2.2859,-2.1145,-1.8611,-1.7598,-1.7326,-1.7377,-1.7699,-1.7801,-1.786,-1.8174,-1.8277,-1.8277,-1.8277,-1.8277,-1.8277,-1.8277,-1.8277,-1.8277,-1.8284,-1.8284,-1.8379,-1.8701,-1.8774,-1.8869,-1.9199,-1.9257,-1.9264,-1.9279,-1.9279,-1.9279,-1.9279,-1.9279,-1.9279,-1.9279,-1.9279,-1.8855,-1.7793,-1.8639,-1.8422,-1.618,-1.6935,-1.7147,-1.6074,-1.6935,-1.7041,-1.5968,-1.6935,-1.6411,-1.4277,-1.4277,-1.363,-1.2436,-1.2436,-1.2441,-1.2441,-1.2441,-1.2441,0.0,0.0,-1.963,-1.9796,-1.9986,-2.0317,-2.0772,-2.0886,-2.0947,-2.1186,-2.1589,-2.1845,-2.1628,-2.202,-2.2412,-2.2373,-2.2671,-2.3043,-2.3159,-2.3404,-2.357,-2.357,-2.3406,0.0,0.0,0.0,0.0,-2.418,-2.46,-2.4844,-2.4844,-2.5137,-2.5361,-2.5508,-2.5518,-2.5586,-2.5742,-2.5742,-2.5742,-2.5742,-2.5742,-2.5742,-2.5732,-2.5586,-2.5518,-2.5508,-2.5352,-2.5293,-2.5293,-2.5293,-2.5293,-2.5293,-2.5293,-2.4917,-2.4259,-2.3671,-2.2659,-2.136,-1.967,-1.9008,-1.8928,-1.8289,-1.8138,-1.816,-1.8269,-1.8299,-1.8299,-1.8299,-1.8299,-1.8299,-1.8299,-1.8299,-1.8357,-1.8577,-1.8628,-1.8716,-1.9038,-1.9111,-1.9147,-1.9257,-1.9279,-1.9279,-1.9279,-1.9279,-1.9279,-1.9279,-1.9279,-1.9279,-1.9279,-1.9279,-1.8848,-1.7687,-1.7898,-1.7575,-1.6074,-1.6293,-1.6611,-1.7041,-1.598,-1.5553,-1.5861,-1.6287,-1.608,-1.5334,-1.6823,-1.7041,-1.5867,-1.5114,-1.4369,-1.363,-1.2762,-1.2441,0.0,-1.9827,-1.9841,-2.0162,-2.0462,-2.0793,-2.1248,-2.1362,-2.137,-2.1593,-2.1968,-2.2175,-2.1795,-2.2361,-2.2869,-2.2748,-2.3143,-2.3443,-2.3551,-2.3754,-2.3841,-2.3841,-2.3677,0.0,0.0,0.0,0.0,-2.4619,-2.5059,-2.5303,-2.5303,-2.5673,-2.582,-2.582,-2.5927,-2.6024,-2.6024,-2.6024,-2.6024,-2.6024,-2.6024,-2.5927,-2.582,-2.582,-2.583,-2.5742,-2.5742,-2.5742,-2.5742,-2.5742,-2.5742,-2.5742,-2.5742,-2.5557,-2.5207,-2.4602,-2.4143,-2.3671,-2.1256,-2.0208,-1.9852,-1.9208,-1.8766,-1.8496,-1.8613,-1.865,-1.865,-1.865,-1.865,-1.865,-1.865,-1.865,-1.8701,-1.8913,-1.8964,-1.9023,-1.9228,-1.9279,-1.9279,-1.9279,-1.9279,-1.9279,-1.9279,-1.9279,-1.9279,-1.9279,-1.9279,-1.9279,-1.9279,-1.9279,-1.8848,-1.7687,-1.8003,-1.7575,-1.6074,-1.6287,-1.6611,-1.6935,-1.598,-1.5547,-1.5861,-1.6287,-1.6293,-1.5861,-1.7351,-1.7674,-1.7041,-1.6287,-1.5541,-1.4804,-1.4051,-1.3403,-1.987,-1.9879,-2.0038,-2.0897,-2.1135,-2.1269,-2.1704,-2.1807,-2.1807,-2.1807,-2.1828,-2.1772,0.0,0.0,-2.2768,-2.2553,-2.3257,-2.382,-2.3841,-2.3841,-2.3841,0.0,0.0,0.0,0.0,0.0,0.0,-2.5163,0.0,-2.5732,-2.5732,-2.6004,-2.61,-2.61,-2.64,-2.6496,-2.6496,-2.6496,-2.6496,-2.6496,-2.6496,-2.64,-2.61,-2.61,-2.6004,-2.5732,-2.5732,-2.5732,-2.5732,-2.5732,-2.5732,-2.5732,-2.5732,-2.5732,-2.5742,-2.5742,-2.5742,-2.5315,-2.2634,-2.0933,-2.0029,-2.0373,-1.9698,-1.8869,-1.9184,-1.9279,-1.9279,-1.9279,-1.9279,-1.9279,-1.9279,-1.9279,-1.9279,-1.9279,-1.9279,-1.9279,-1.9279,-1.9279,-1.9279,-1.9279,-1.9279,-1.9279,-1.9279,-1.9279,-1.9279,-1.9279,-1.9279,-1.9279,-1.9279,-1.9279,-1.8848,-1.7687,-1.8534,-1.8311,-1.6074,-1.6935,-1.7153,-1.6074,-1.7041,-1.7147,-1.6074,-1.7041,-1.7041,-1.5968,-1.6074,-1.6074,-1.6074,-1.6074,-1.5968,-1.5968,-1.5968,-1.5334,-2.0201,-2.0503,-2.0824,-2.1062,-2.1373,-2.1662,-2.1776,-2.1807,-2.1807,-2.1807,-2.2087,-2.2325,0.0,0.0,0.0,-2.3215,-2.3637,0.0,-2.4069,-2.4196,0.0,0.0,0.0,-2.4832,-2.53,-2.5563,0.0,0.0,-2.6244,-2.6314,-2.6314,-2.64,-2.64,-2.64,-2.6496,-2.6496,-2.6496,-2.6496,-2.6496,-2.6496,-2.6496,-2.6496,-2.64,-2.64,-2.64,-2.6314,-2.6314,-2.6314,-2.6314,-2.6314,-2.6207,-2.6004,-2.6004,-2.5917,-2.5742,-2.5742,-2.5742,-2.5606,-2.488,-2.3403,-2.172,-2.1022,-2.0051,-1.9169,-1.925,-1.9279,-1.9279,-1.9279,-1.9279,-1.9279,-1.9279,-1.9279,-1.9279,-1.9279,-1.9279,-1.9279,-1.9279,-1.9279,-1.9279,-1.9279,-1.9279,-1.9279,-1.9279,-1.9279,-1.9279,-1.9279,-1.9279,-1.9279,-1.9279,-1.9279,-1.8848,-1.7687,-1.7898,-1.7463,-1.6074,-1.6935,-1.7477,-1.7153,-1.7477,-1.7477,-1.7153,-1.7477,-1.7477,-1.7153,-1.7996,-1.8422,-1.8422,-1.7575,-1.7153,-1.7147,-1.6287,-1.5755,-2.0307,-2.0762,-2.1166,-2.1373,-2.1611,-2.1807,-2.1807,-2.1807,-2.1745,-2.1549,-2.1869,0.0,0.0,0.0,0.0,0.0,0.0,0.0,-2.4307,-2.4454,-2.454,0.0,-2.4779,0.0,-2.5492,-2.5849,-2.6296,0.0,-2.6602,-2.6496,-2.6496,-2.6592,-2.6699,-2.6699,-2.6784,-2.688,-2.688,-2.688,-2.688,-2.688,-2.688,-2.6784,-2.6699,-2.6699,-2.6592,-2.6496,0.0,-2.6496,-2.6496,-2.6496,-2.64,-2.6294,-2.6294,-2.6207,-2.6024,-2.5927,-2.5917,-2.582,-2.5732,-2.4609,-2.3085,-2.2484,-2.1582,-2.068,-2.068,-2.038,-1.9983,-1.9983,-1.9983,-1.9879,-1.9376,-1.968,-1.9879,-1.9376,-1.9279,-1.9279,-1.9279,-1.9279,-1.9279,-1.9279,-1.9279,-1.9279,-1.9279,-1.9279,-1.9279,-1.9279,-1.9279,-1.9279,-1.9279,-1.9279,-1.9063,-1.8429,-1.8325,-1.8108,-1.7457,-1.7996,-1.8325,-1.8325,-1.8325,-1.8325,-1.8325,-1.8325,-1.8325,-1.8325,-1.8959,-1.9279,-1.9279,-1.8639,-1.8325,-1.8325,-1.7772,-1.7345,-2.0307,-2.0762,-2.1228,-2.1694,-2.1807,-2.1807,-2.1807,-2.1807,-2.1694,-2.129,0.0,0.0,-2.1269,0.0,-2.2501,-2.3091,0.0,-2.3971,-2.4467,-2.454,-2.454,-2.454,-2.5006,-2.5382,-2.5502,-2.6269,-2.6744,-2.6965,-2.6699,-2.6592,-2.6592,-2.6794,-2.6996,-2.6996,-2.7167,-2.7262,-2.7262,-2.7262,-2.7262,-2.7262,-2.7262,-2.7167,-2.6996,-2.6996,-2.6794,-2.6592,0.0,0.0,-2.6592,-2.6592,-2.6592,-2.6592,-2.6592,-2.6496,-2.6496,-2.6197,-2.6197,-2.61,-2.5927,-2.5216,-2.4393,-2.4187,-2.3384,-2.2484,-2.2484,-2.1887,-2.1081,-2.1081,-2.1081,-2.0885,-1.9776,-2.0181,-2.0585,-1.9576,-1.9279,-1.9279,-1.9279,-1.9279,-1.9279,-1.9279,-1.9279,-1.9279,-1.9279,-1.9279,-1.9279,-1.9279,-1.9279,-1.9279,-1.9279,-1.9279,-1.9279,-1.9279,-1.9279,-1.9279,-1.9279,-1.9279,-1.9279,-1.9279,-1.9279,-1.9279,-1.9279,-1.9279,-1.9279,-1.9279,-1.9279,-1.9279,-1.9279,-1.9376,-1.9376,-1.9376,-1.9576,-1.925,-2.0307,-2.0762,-2.1228,-2.1694,-2.1807,-2.1807,-2.1807,-2.1807,0.0,0.0,0.0,-2.1331,-2.1631,-2.1507,0.0,-2.2987,0.0,0.0,0.0,0.0,-2.454,0.0,0.0,0.0,0.0,0.0,0.0,0.0,0.0,-2.7167,-2.7167,-2.7167,-2.7262,-2.7262,-2.7262,-2.7262,-2.7262,-2.7262,-2.7262,-2.7262,-2.7262,-2.7262,-2.7262,-2.7262,-2.7167,-2.7167,-2.7167,0.0,-2.7167,-2.7167,-2.7071,-2.6805,-2.6805,-2.6699,-2.6496,-2.64,-2.64,-2.64,-2.64,-2.6207,-2.5897,-2.4492,-2.3384,-2.2484,-2.2484,-2.2383,-2.219,-2.219,-2.219,-2.1988,-2.0885,-2.0783,-2.0585,-1.9576,-1.9279,-1.9279,-1.9279,-1.9279,-1.9279,-1.9279,-1.9279,-1.9279,-1.9279,-1.9279,-1.9279,-1.9279,-1.9279,-1.9279,-1.9279,-1.9279,-1.9279,-1.9279,-1.9279,-1.9279,-1.9279,-1.9279,-1.9279,-1.9279,-1.9279,-1.9279,-1.9279,-1.9279,-1.9279,-1.9279,-1.9279,-1.9279,-1.9279,-1.948,-1.968,-1.968,-1.9879,-1.9872,-2.0307,-2.0762,-2.1228,-2.1694,-2.1807,-2.1807,-2.1807,0.0,0.0,0.0,0.0,-2.1466,-2.1445,0.0,0.0,0.0,0.0,0.0,0.0,0.0,0.0,0.0,0.0,0.0,0.0,0.0,0.0,0.0,0.0,0.0,-2.7262,-2.7262,-2.7262,-2.7262,-2.7262,-2.7262,-2.7262,-2.7262,-2.7262,-2.7262,-2.7262,-2.7262,-2.7262,-2.7262,-2.7262,-2.7262,-2.7262,0.0,-2.7262,-2.7262,-2.7262,-2.7081,-2.7081,-2.7071,-2.688,-2.6794,-2.6699,-2.6699,-2.6506,-2.64,-2.6197,-2.5392,-2.4786,-2.4393,-2.4205,-2.38,-2.3285,-2.3285,-2.3285,-2.3094,-2.1988,-2.219,-2.2282,-2.1183,-2.0585,-1.9983,-1.9376,-1.9279,-1.9279,-1.9279,-1.9279,-1.9279,-1.9279,-1.9279,-1.9279,-1.9279,-1.9279,-1.9279,-1.9279,-1.9279,-1.9279,-1.9279,-1.9279,-1.9279,-1.9279,-1.9279,-1.9279,-1.9279,-1.9279,-1.9279,-1.9279,-1.9279,-1.9279,-1.9279,-1.9279,-1.9383,-1.948,-1.968,-1.9776,-1.9879,-2.0189,-2.03,-2.0276,-2.069,-2.1104,-2.1662,-2.1807,-2.1807,-2.1807,-2.1807,0.0,0.0,-2.1476,-2.158,-2.1311,0.0,0.0,0.0,0.0,0.0,0.0,0.0,0.0,0.0,0.0,0.0,0.0,0.0,0.0,0.0,0.0,0.0,-2.7262,-2.7262,-2.7262,-2.7262,-2.7262,-2.7262,-2.7262,-2.7262,-2.7262,-2.7262,-2.7262,-2.7262,-2.7262,-2.7262,-2.7262,-2.7262,-2.7262,0.0,0.0,-2.7262,-2.7262,-2.7262,-2.7262,-2.7262,-2.7262,-2.7081,-2.6996,-2.6996,-2.6688,-2.6486,-2.639,-2.6197,-2.61,-2.6004,-2.5732,-2.5118,-2.4402,-2.4402,-2.4402,-2.4196,-2.3085,-2.3285,-2.3493,-2.2383,-2.1481,-2.0688,-1.9776,-1.948,-1.9279,-1.9279,-1.9279,-1.9279,-1.9279,-1.9279,-1.9279,-1.9279,-1.9279,-1.9279,-1.9279,-1.9279,-1.9279,-1.9279,-1.9279,-1.9279,-1.9279,-1.9279,-1.9279,-1.9279,-1.9279,-1.9383,-1.9376,-1.9376,-1.9376,-1.948,-1.948,-1.9576,-1.9783,-1.9887,-1.999,-2.0189,-2.0411,-2.0624,-2.0193,-2.0452,-2.07,-2.159,-2.1807,-2.1807,-2.1807,0.0,0.0,0.0,-2.1445,-2.13,-2.1673,-2.1435,0.0,0.0,0.0,0.0,0.0,0.0,0.0,0.0,0.0,0.0,0.0,0.0,0.0,0.0,0.0,0.0,-2.7262,-2.7262,-2.7262,-2.7262,-2.7262,-2.7262,-2.7262,-2.7262,-2.7262,-2.7262,-2.7262,-2.7262,-2.7262,-2.7262,-2.7262,-2.7262,-2.7262,0.0,0.0,-2.7262,-2.7262,-2.7262,-2.7262,-2.7262,-2.7262,-2.7262,-2.7262,-2.7262,-2.7262,-2.7262,-2.7061,-2.6592,-2.611,-2.5732,-2.5732,-2.5635,-2.5528,-2.5528,-2.5528,-2.5323,-2.4196,-2.3285,-2.2391,-2.1285,-2.0987,-2.0885,-2.0783,-1.9983,-1.9279,-1.9279,-1.9279,-1.9279,-1.9279,-1.9279,-1.9279,-1.9279,-1.9279,-1.9279,-1.9279,-1.9279,-1.9279,-1.9279,-1.9279,-1.9279,-1.9279,-1.9279,-1.9279,-1.9279,-1.9279,-1.9376,-1.968,-1.968,-1.9783,-1.9983,-1.9983,-2.0086,-2.0078,-2.0308,-2.0411,-2.0522,-2.0719,-2.0822,-2.0255,-2.0627,-2.1,-2.1642,-2.1807,-2.1807,-2.1807,0.0,0.0,-2.1883,-2.2029,-2.2179,-2.1842,-2.1652,-2.1745,0.0,0.0,0.0,0.0,0.0,0.0,0.0,0.0,0.0,0.0,0.0,0.0,0.0,0.0,0.0,-2.7262,-2.7262,-2.7262,-2.7262,-2.7262,-2.7262,-2.7262,-2.7262,-2.7262,-2.7262,-2.7262,-2.7262,-2.7262,-2.7262,-2.7262,-2.7262,-2.7262,0.0,0.0,-2.7262,-2.7262,-2.7262,-2.7262,-2.7262,-2.7262,-2.7262,-2.7262,-2.7262,-2.7262,-2.7167,-2.6986,-2.6794,-2.6506,-2.612,-2.583,-2.5742,-2.5742,-2.5742,-2.5742,-2.5635,-2.5118,-2.4716,-2.4115,-2.3094,-2.2793,-2.2484,-2.1183,-2.0585,-2.0078,-1.948,-1.948,-1.9583,-1.9583,-1.968,-1.9783,-1.9783,-1.9783,-1.9783,-1.9783,-1.9783,-1.9783,-1.9783,-1.968,-1.948,-1.9272,-1.9576,-1.968,-1.9576,-1.968,-1.9783,-1.9983,-1.9983,-1.9983,-2.0078,-2.0078,-2.0189,-2.03,-2.0411,-2.0617,-2.0719,-2.0814,-2.0925,-2.0909,-2.1041,-2.1302,-2.1985,-2.2176,-2.2176,0.0,0.0,0.0,-2.2327,-2.2767,-2.2979,-2.1949,-2.2166,-2.2465,-2.2496,0.0,0.0,0.0,0.0,0.0,0.0,0.0,0.0,0.0,0.0,0.0,0.0,0.0,0.0,0.0,-2.7262,-2.7262,-2.7262,-2.7262,-2.7262,-2.7262,-2.7262,-2.7262,-2.7262,-2.7262,-2.7262,-2.7262,-2.7262,-2.7262,-2.7262,0.0,0.0,0.0,-2.7262,-2.7262,-2.7262,-2.7262,-2.7262,-2.7262,-2.7262,-2.7262,-2.7262,-2.7262,-2.7167,-2.6996,-2.69,-2.6794,-2.6506,-2.612,-2.5927,-2.583,-2.583,-2.5732,-2.5635,-2.5323,-2.543,-2.543,-2.4492,-2.4187,-2.3791,-2.1988,-2.1387,-2.0783,-1.9783,-1.968,-1.9776,-1.9776,-1.9983,-2.0078,-2.0078,-2.0078,-2.0078,-2.0078,-2.0078,-2.0078,-2.0078,-1.999,-1.9791,-1.9576,-1.9879,-1.9983,-1.9879,-1.9983,-2.0189,-2.0189,-2.0189,-2.0292,-2.0292,-2.0292,-2.0403,-2.0617,-2.0617,-2.0719,-2.0925,-2.0925,-2.0925,-2.2264,-2.1865,-2.1365,-2.2658,-2.3001,-2.3001,0.0,0.0,0.0,-2.3139,-2.3559,-2.361,-2.209,-2.3032,-2.3705,-2.2642,-2.3477,0.0,0.0,0.0,0.0,0.0,0.0,0.0,0.0,0.0,0.0,0.0,0.0,0.0,0.0,-2.7262,-2.7262,-2.7262,-2.7262,-2.7262,-2.7262,-2.7262,-2.7262,-2.7262,-2.7262,-2.7262,-2.7262,-2.7262,-2.7262,0.0,0.0,0.0,0.0,-2.7262,-2.7262,-2.7262,-2.7262,-2.7262,-2.7262,-2.7262,-2.7262,-2.7262,-2.7262,-2.7262,-2.7262,-2.6996,-2.69,-2.6805,-2.6592,-2.6304,-2.61,-2.61,-2.5917,-2.543,-2.4393,-2.4913,-2.5528,-2.4698,-2.4492,-2.4285,-2.3484,-2.2484,-2.1387,-2.0285,-2.0078,-2.0078,-2.0078,-2.0078,-2.0078,-2.0078,-2.0078,-2.0078,-2.0078,-2.0078,-2.0078,-2.0078,-2.03,-2.0411,-2.0086,-2.0078,-2.0078,-2.0078,-2.0078,-2.0189,-2.0514,-2.0522,-2.0617,-2.0925,-2.0917,-2.0917,-2.0925,-2.0925,-2.0925,-2.0925,-2.0925,-2.0925,-2.2491,-2.2874,-2.3274,-2.3649,-2.3768,-2.3768,-2.3768,0.0,0.0,-2.3913,-2.4348,-2.4564,-2.3537,-2.4124,-2.451,-2.3859,-2.4891,0.0,0.0,0.0,0.0,0.0,0.0,0.0,0.0,0.0,0.0,0.0,0.0,0.0,0.0,-2.7631,-2.7262,-2.7262,-2.7262,-2.7262,-2.7262,-2.7262,-2.7262,-2.7262,-2.7262,-2.7262,-2.7262,-2.7262,0.0,0.0,0.0,0.0,0.0,-2.7262,-2.7262,-2.7262,-2.7262,-2.7262,-2.7262,-2.7262,-2.7262,-2.7262,-2.7262,-2.7262,-2.7262,-2.7167,-2.7167,-2.7167,-2.7071,-2.6688,-2.639,-2.639,-2.6304,-2.6207,-2.58,-2.6004,-2.6207,-2.5897,-2.5897,-2.5596,-2.459,-2.3583,-2.2484,-2.1387,-2.0798,-2.0403,-2.0403,-2.0506,-2.0609,-2.0609,-2.0609,-2.0609,-2.0609,-2.0609,-2.0609,-2.0609,-2.0719,-2.0609,-2.0189,-2.0395,-2.0609,-2.0411,-2.0506,-2.0712,-2.0822,-2.0822,-2.0822,-2.0925,-2.0925,-2.0925,-2.0925,-2.0925,-2.0925,-2.0925,-2.0925,-2.0925,0.0,-2.3769,-2.4192,-2.4492,-2.4564,0.0,0.0,0.0,0.0,-2.4707,-2.5217,-2.5501,-2.4591,-2.5198,-2.573,-2.5184,-2.6108,0.0,0.0,0.0,0.0,0.0,0.0,0.0,0.0,0.0,0.0,0.0,0.0,0.0,0.0,-2.7631,-2.7262,-2.7262,-2.7262,-2.7262,-2.7262,-2.7262,-2.7262,-2.7262,-2.7262,-2.7262,-2.7262,-2.7262,0.0,0.0,0.0,0.0,0.0,-2.7262,-2.7262,-2.7262,-2.7262,-2.7262,-2.7262,-2.7262,-2.7262,-2.7262,-2.7262,-2.7262,-2.7262,-2.7262,-2.7262,-2.7262,-2.7262,-2.6976,-2.6602,-2.6506,-2.6496,-2.6496,-2.6496,-2.6496,-2.6506,-2.6602,-2.6699,-2.64,-2.5392,-2.4393,-2.3294,-2.2198,-2.1318,-2.0617,-2.0617,-2.0822,-2.0925,-2.0925,-2.0925,-2.0925,-2.0925,-2.0925,-2.0925,-2.0925,-2.0925,-2.0712,-2.0395,-2.0712,-2.0822,-2.0617,-2.0822,-2.0925,-2.0925,-2.0925,-2.0925,-2.0925,-2.0925,-2.0925,-2.0925,-2.0925,-2.0925,-2.0925,-2.0925,-2.0925,0.0,0.0,0.0,0.0,0.0,0.0,0.0,0.0,0.0,0.0,0.0,0.0,-2.5327,-2.6348,-2.7163,-2.6648,-2.7215,0.0,0.0,0.0,0.0,0.0,0.0,0.0,0.0,0.0,0.0,0.0,0.0,0.0,0.0,-2.7536,-2.7536,-2.7536,-2.7536,-2.7441,-2.7262,-2.7262,-2.7262,-2.7262,-2.7262,-2.7262,-2.7262,-2.7262,0.0,0.0,0.0,0.0,0.0,-2.7262,-2.7262,-2.7262,-2.7262,-2.7262,-2.7262,-2.7262,-2.7262,-2.7262,-2.7262,-2.7262,-2.7262,-2.7262,-2.7262,-2.7262,-2.7262,-2.7177,-2.69,-2.6602,-2.6592,-2.6592,-2.6592,-2.6592,-2.6592,-2.69,-2.69,-2.6699,-2.5994,-2.4992,-2.3899,-2.292,-2.1818,-2.1121,-2.1121,-2.1019,-2.1019,-2.1019,-2.1019,-2.1027,-2.0925,-2.0925,-2.1019,-2.0925,-2.0925,-2.0925,-2.0925,-2.0925,-2.0925,-2.0925,-2.0925,-2.0925,-2.0925,-2.0925,-2.0925,-2.0925,-2.0925,-2.0925,-2.0925,-2.0925,-2.0925,-2.0925,-2.0925,-2.0925,-2.531,0.0,-2.5943,-2.6164,-2.6245,0.0,0.0,0.0,0.0,0.0,0.0,0.0,0.0,0.0,0.0,0.0,0.0,0.0,0.0,0.0,0.0,0.0,0.0,0.0,0.0,0.0,0.0,0.0,0.0,0.0,0.0,-2.9897,-2.9532,-2.9532,-2.9532,-2.8806,-2.7357,-2.7262,-2.7262,-2.7262,-2.7262,-2.7262,-2.7262,-2.7262,0.0,0.0,0.0,0.0,-2.7262,-2.7262,-2.7262,-2.7262,-2.7262,-2.7262,-2.7262,-2.7262,-2.7262,-2.7262,-2.7262,-2.7262,-2.7262,-2.7262,-2.7262,-2.7262,-2.7262,-2.7262,-2.7167,-2.7167,-2.7071,-2.7071,-2.7071,-2.7071,-2.7167,-2.7167,-2.7167,-2.7167,-2.6965,-2.6081,-2.5294,-2.5001,-2.4097,-2.3402,-2.3402,-2.271,-2.2123,-2.2123,-2.2123,-2.1827,-2.1027,-2.1623,-2.1827,-2.1027,-2.0925,-2.0925,-2.0925,-2.0925,-2.0925,-2.0925,-2.0925,-2.0925,-2.0925,-2.0925,-2.0925,-2.0925,-2.0925,-2.0925,-2.0925,-2.0925,-2.0925,-2.0925,-2.0925,-2.0925,-2.5774,-2.6214,-2.6533,-2.6533,-2.6533,-2.6533,0.0,0.0,0.0,0.0,0.0,0.0,0.0,0.0,0.0,0.0,0.0,0.0,0.0,0.0,0.0,0.0,0.0,0.0,0.0,0.0,0.0,0.0,0.0,0.0,0.0,-3.0441,-3.017,-3.017,-3.017,-2.9441,-2.7998,-2.7904,-2.7726,-2.7262,-2.7262,-2.7262,-2.7262,-2.7262,-2.7262,0.0,0.0,0.0,-2.7262,-2.7262,-2.7262,-2.7262,-2.7262,-2.7262,-2.7262,-2.7262,-2.7262,-2.7262,-2.7262,-2.7262,-2.7262,-2.7262,-2.7262,-2.7262,-2.7262,-2.7262,-2.7262,-2.7262,-2.7262,-2.7262,-2.7262,-2.7262,-2.7262,-2.7262,-2.7262,-2.7262,-2.7262,-2.6476,-2.5693,-2.5693,-2.4786,-2.4088,-2.4088,-2.3211,-2.2627,-2.3111,-2.282,-2.2325,-2.1725,-2.2123,-2.2131,-2.1019,-2.0925,-2.0925,-2.0925,-2.0925,-2.0925,-2.0925,-2.0925,-2.0925,-2.0925,-2.0925,-2.0925,-2.0925,-2.0925,-2.0925,-2.0925,-2.0925,-2.0925,-2.0925,-2.0925,-2.0925,-2.6163,-2.6533,-2.6533,-2.6533,-2.6533,-2.6533,-2.6533,0.0,0.0,0.0,0.0,0.0,0.0,0.0,0.0,0.0,0.0,0.0,0.0,0.0,0.0,0.0,0.0,0.0,0.0,0.0,0.0,0.0,0.0,0.0,0.0,-3.0621,-3.0621,-3.0621,-3.0621,-3.017,-2.9176,-2.8991,-2.8538,-2.7715,-2.7631,-2.7536,-2.7536,-2.7357,-2.7262,0.0,0.0,0.0,-2.7262,-2.7262,-2.7262,-2.7262,-2.7262,-2.7262,-2.7262,-2.7262,-2.7262,-2.7262,-2.7262,-2.7262,-2.7262,-2.7262,-2.7262,-2.7262,-2.7262,-2.7262,-2.7262,-2.7262,-2.7262,-2.7262,-2.7262,-2.7262,-2.7262,-2.7262,-2.7262,-2.7262,-2.7262,-2.6572,-2.5984,-2.5984,-2.5187,-2.4581,-2.4581,-2.371,-2.332,-2.4196,-2.361,-2.292,-2.2719,-2.2719,-2.2316,-2.1224,-2.1019,-2.0925,-2.0925,-2.0925,-2.0925,-2.0925,-2.0925,-2.0925,-2.0925,-2.0925,-2.1019,-2.1121,-2.1019,-2.1019,-2.1121,-2.1019,-2.0925,-2.0925,-2.0925,-2.0925,-2.6163,-2.6533,-2.6533,-2.6533,-2.6533,-2.6533,-2.6533,0.0,0.0,0.0,0.0,0.0,0.0,0.0,0.0,0.0,0.0,0.0,0.0,0.0,0.0,0.0,0.0,0.0,0.0,0.0,0.0,0.0,0.0,0.0,0.0,0.0,-3.2624,-3.2624,-3.2624,-3.2164,-3.1169,-3.0351,-2.9897,-2.9715,-2.8899,-2.8445,-2.8445,-2.762,-2.7262,0.0,0.0,-2.7262,-2.7262,-2.7262,-2.7262,-2.7262,-2.7262,-2.7262,-2.7262,-2.7262,-2.7262,-2.7262,-2.7262,-2.7262,-2.7262,-2.7262,-2.7262,-2.7262,-2.7262,-2.7262,-2.7262,-2.7262,-2.7262,-2.7262,-2.7262,-2.7262,-2.7262,-2.7262,-2.7262,-2.7262,-2.7262,-2.7156,-2.7061,-2.7061,-2.6955,-2.6764,-2.6764,-2.5887,-2.5294,-2.5392,-2.5294,-2.4894,-2.3998,-2.3899,-2.3402,-2.2325,-2.142,-2.0925,-2.0925,-2.0925,-2.0925,-2.0925,-2.0925,-2.0925,-2.0925,-2.0925,-2.1326,-2.2224,-2.1326,-2.1326,-2.2224,-2.1326,-2.0925,-2.0925,-2.0925,-2.0925,-2.6239,-2.6533,-2.6533,-2.6533,-2.6533,-2.6533,-2.6533,0.0,0.0,0.0,0.0,0.0,0.0,0.0,0.0,0.0,0.0,0.0,0.0,0.0,0.0,0.0,0.0,0.0,0.0,0.0,0.0,0.0,0.0,0.0,0.0,0.0,-3.3081,-3.3081,-3.3081,-3.2896,-3.2438,-3.1977,-3.1258,-3.017,-2.9715,-2.9543,-2.9543,-2.9073,-2.8538,-2.8081,0.0,-2.7809,-2.7262,-2.7262,-2.7262,-2.7262,-2.7262,-2.7262,-2.7262,-2.7262,-2.7262,-2.7262,-2.7262,-2.7262,-2.7262,-2.7262,-2.7262,-2.7262,-2.7262,-2.7262,-2.7262,-2.7262,-2.7262,-2.7262,-2.7262,-2.7262,-2.7262,-2.7262,-2.7262,-2.7262,-2.7262,-2.7262,-2.7262,-2.7262,-2.7262,-2.7262,-2.7262,-2.638,-2.5887,-2.6476,-2.5586,-2.4688,-2.4187,-2.3601,-2.3011,-2.2526,-2.2021,-2.2021,-2.261,-2.2114,-2.1522,-2.0917,-2.0925,-2.0925,-2.0925,-2.142,-2.203,-2.2526,-2.261,-2.261,-2.2526,-2.203,-2.1428,-2.0925,-2.0925,-2.0925,-2.637,-2.6533,-2.6533,-2.6533,0.0,-2.6533,-2.6533,0.0,0.0,0.0,0.0,0.0,0.0,0.0,0.0,0.0,0.0,0.0,0.0,0.0,0.0,0.0,0.0,0.0,0.0,0.0,0.0,0.0,0.0,0.0,0.0,0.0,-3.3081,-3.3081,-3.3081,-3.3081,-3.3081,-3.3081,-3.2351,-3.089,-3.0621,-3.0531,-3.0531,-3.026,-2.9806,-2.9084,-2.9084,-2.8538,-2.7631,-2.7631,-2.7536,-2.7262,-2.7262,-2.7262,-2.7262,-2.7262,-2.7262,-2.7262,-2.7262,-2.7262,-2.7262,-2.7262,-2.7262,-2.7262,-2.7262,-2.7262,-2.7262,-2.7262,-2.7262,-2.7262,-2.7262,-2.7262,-2.7262,-2.7262,-2.7262,-2.7262,-2.7262,-2.7262,-2.7262,-2.7262,-2.7262,-2.7262,-2.7262,-2.6572,-2.638,-2.7167,-2.5674,-2.4492,-2.4492,-2.3511,-2.292,-2.292,-2.292,-2.3111,-2.3701,-2.3011,-2.2021,-2.0925,-2.0925,-2.0925,-2.0925,-2.192,-2.2627,-2.292,-2.3701,-2.3701,-2.292,-2.2627,-2.1928,-2.0925,-2.1121,-2.1216,-2.637,-2.6533,-2.6533,-2.6533,-2.6533,0.0,-2.6533,-2.6854,0.0,0.0,0.0,0.0,0.0,0.0,0.0,0.0,0.0,0.0,0.0,0.0,0.0,0.0,0.0,0.0,0.0,0.0,0.0,0.0,0.0,0.0,0.0,0.0,0.0,-3.3081,-3.3081,-3.3081,-3.3081,-3.3081,-3.3068,-3.2896,-3.1989,-3.1536,-3.1448,-3.0621,-3.017,-3.0079,-3.0079,-2.9532,-2.8631,-2.8631,-2.8081,-2.7262,-2.7262,-2.7262,-2.7262,-2.7262,-2.7262,-2.7262,-2.7262,-2.7262,-2.7262,-2.7262,-2.7262,-2.7262,-2.7262,-2.7262,-2.7262,-2.7262,-2.7262,-2.7262,-2.7262,-2.7262,-2.7262,-2.7262,-2.7262,-2.7262,-2.7262,-2.7262,-2.7262,-2.7262,-2.7262,-2.7262,-2.7262,-2.7262,-2.7262,-2.7262,-2.6284,-2.5596,-2.5596,-2.4688,-2.3989,-2.3989,-2.3989,-2.3601,-2.2719,-2.2526,-2.2021,-2.0925,-2.0925,-2.0925,-2.0925,-2.192,-2.302,-2.3998,-2.4088,-2.4088,-2.3989,-2.302,-2.1928,-2.0925,-2.1928,-2.2426,-2.6471,-2.6533,-2.6533,-2.6533,-2.6716,0.0,0.0,0.0,0.0,0.0,0.0,0.0,0.0,0.0,0.0,0.0,0.0,0.0,0.0,0.0,0.0,0.0,0.0,0.0,0.0,0.0,0.0,0.0,0.0,0.0,0.0,0.0,0.0,-3.3081,-3.3081,-3.3081,-3.3081,-3.3081,-3.3081,-3.3081,-3.2711,-3.2537,-3.2525,-3.2164,-3.1625,-3.108,-3.108,-3.0531,-2.9624,-2.9624,-2.9084,-2.8081,-2.7536,-2.7262,-2.7262,-2.7262,-2.7262,-2.7262,-2.7262,-2.7262,-2.7262,-2.7262,-2.7262,-2.7262,-2.7262,-2.7262,-2.7262,-2.7262,-2.7262,-2.7262,-2.7262,-2.7262,-2.7262,-2.7262,-2.7262,-2.7262,-2.7262,-2.7262,-2.7262,-2.7262,-2.7262,-2.7262,-2.7262,-2.7262,-2.7061,-2.638,-2.5382,-2.4492,-2.3818,-2.2811,-2.261,-2.3989,-2.5275,-2.5382,-2.3601,-2.3502,-2.271,-2.1019,-2.0925,-2.1224,-2.1827,-2.2911,-2.3998,-2.5089,-2.5771,-2.5781,-2.5089,-2.4698,-2.361,-2.1928,-2.3011,-2.3111,-2.6533,-2.6533,-2.6533,0.0,0.0,0.0,0.0,0.0,0.0,0.0,0.0,0.0,0.0,0.0,0.0,0.0,0.0,0.0,0.0,0.0,0.0,0.0,0.0,0.0,0.0,0.0,0.0,0.0,0.0,0.0,0.0,0.0,0.0,0.0,-3.3081,-3.3081,-3.3081,-3.3081,-3.3081,-3.3081,-3.3081,-3.3081,-3.3081,-3.3081,-3.2711,-3.2077,-3.2077,-3.1536,-3.0621,-3.0621,-3.0079,-2.9084,-2.8081,-2.7715,-2.7715,-2.7441,-2.7262,-2.7262,-2.7262,-2.7357,-2.7357,-2.7357,-2.7441,-2.7536,-2.7536,-2.7536,-2.7536,-2.7536,-2.7441,-2.7441,-2.7536,-2.7441,-2.7262,-2.7262,-2.7262,-2.7262,-2.7262,-2.7262,-2.7262,-2.7262,-2.7262,-2.7262,-2.7262,-2.7262,-2.6965,-2.5887,-2.4796,-2.3701,-2.2627,-2.2114,-2.2702,-2.4884,-2.6466,-2.6466,-2.4285,-2.4088,-2.3203,-2.1019,-2.0925,-2.142,-2.2426,-2.3502,-2.459,-2.5693,-2.6774,-2.6774,-2.5693,-2.5693,-2.4805,-2.3011,-2.4097,-2.4196,-2.6533,-2.6533,-2.6533,0.0,0.0,0.0,0.0,0.0,0.0,0.0,0.0,0.0,0.0,0.0,0.0,0.0,0.0,0.0,0.0,0.0,0.0,0.0,0.0,0.0,0.0,0.0,0.0,0.0,0.0,0.0,0.0,0.0,0.0,0.0,-3.3081,-3.3081,-3.3081,-3.3081,-3.3081,-3.3081,-3.3081,-3.3081,-3.3081,-3.3081,-3.3081,-3.3081,-3.3081,-3.2537,-3.1625,-3.1625,-3.108,-3.0079,-2.9084,-2.8724,-2.8631,-2.762,-2.7357,-2.7262,-2.7262,-2.7452,-2.7631,-2.7631,-2.7809,-2.7998,-2.7998,-2.7998,-2.7998,-2.7998,-2.7809,-2.7631,-2.7904,-2.7631,-2.7262,-2.7262,-2.7262,-2.7262,-2.7262,-2.7262,-2.7262,-2.7262,-2.7262,-2.7262,-2.7262,-2.7262,-2.6965,-2.5887,-2.4796,-2.3701,-2.2627,-2.3402,-2.4884,-2.7061,-2.7262,-2.6466,-2.4285,-2.4088,-2.3203,-2.1019,-2.0925,-2.1428,-2.2426,-2.3502,-2.459,-2.5693,-2.6764,-2.6764,-2.5693,-2.5693,-2.5187,-2.4187,-2.5197,-2.5693,-2.6533,-2.6533,0.0,0.0,0.0,0.0,0.0,0.0,0.0,0.0,0.0,0.0,0.0,0.0,0.0,0.0,0.0,0.0,0.0,0.0,0.0,0.0,0.0,0.0,0.0,0.0,0.0,0.0,0.0,0.0,0.0,0.0,0.0,0.0,-3.3081,-3.3081,-3.3081,-3.3081,-3.3081,-3.3081,-3.324,-3.324,-3.3081,-3.3081,-3.3154,-3.3313,-3.3154,-3.3056,-3.3018,-3.2401,-3.1952,-3.1589,-3.0574,-2.9761,-2.9143,-2.8877,-2.8341,-2.7809,-2.7809,-2.7809,-2.7904,-2.7904,-2.7904,-2.7998,-2.7998,-2.7998,-2.7998,-2.7998,-2.7904,-2.7904,-2.7998,-2.7904,-2.7809,-2.7809,-2.7631,-2.7536,-2.7536,-2.7536,-2.7536,-2.7536,-2.7631,-2.7809,-2.7809,-2.7336,-2.6668,-2.5586,-2.4707,-2.3917,-2.3402,-2.4581,-2.5751,-2.6542,-2.7146,-2.6849,-2.5089,-2.459,-2.3502,-2.1623,-2.1121,-2.1717,-2.3502,-2.3899,-2.4982,-2.6774,-2.7156,-2.7156,-2.687,-2.687,-2.6274,-2.5285,-2.638,-2.638,-2.6533,0.0,0.0,0.0,0.0,0.0,0.0,0.0,0.0,0.0,0.0,0.0,0.0,0.0,0.0,0.0,0.0,0.0,0.0,0.0,0.0,0.0,0.0,0.0,0.0,0.0,0.0,0.0,0.0,0.0,0.0,0.0,0.0,0.0,-3.3081,-3.3081,-3.3081,-3.3154,-3.324,-3.324,-3.3398,-3.3484,-3.3313,-3.3313,-3.3398,-3.3471,-3.3398,-3.3471,-3.3628,-3.3104,-3.2834,-3.2747,-3.1741,-3.1021,-3.0496,-2.967,-2.905,-2.8516,-2.8175,-2.8092,-2.8196,-2.8196,-2.8186,-2.8279,-2.8279,-2.8279,-2.8279,-2.8279,-2.8279,-2.8186,-2.8279,-2.8279,-2.8092,-2.7998,-2.7904,-2.7726,-2.7726,-2.7726,-2.7726,-2.7726,-2.7904,-2.7904,-2.761,-2.7231,-2.6466,-2.5001,-2.4016,-2.3529,-2.3809,-2.4982,-2.5964,-2.6542,-2.7326,-2.7231,-2.5868,-2.5178,-2.4196,-2.261,-2.192,-2.2224,-2.371,-2.3998,-2.508,-2.7262,-2.7262,-2.7262,-2.7262,-2.7262,-2.6965,-2.638,-2.6965,-2.6965,0.0,0.0,0.0,0.0,0.0,0.0,0.0,0.0,0.0,0.0,0.0,0.0,0.0,0.0,0.0,0.0,0.0,0.0,0.0,0.0,0.0,0.0,0.0,0.0,0.0,0.0,0.0,0.0,0.0,0.0,0.0,0.0,0.0,0.0,-3.3081,-3.3081,-3.3081,-3.3326,-3.3398,0.0,-3.3641,-3.3713,-3.3713,-3.3713,-3.3713,-3.3713,-3.3713,-3.3713,-3.3713,-3.3797,-3.3797,-3.3713,-3.2834,-3.2389,-3.2028,-3.0214,-2.9498,-2.9235,-2.8351,-2.8186,-2.8395,-2.8395,-2.8571,-2.8757,-2.8757,-2.8757,-2.8757,-2.8757,-2.8664,-2.8488,-2.8757,-2.8581,-2.8384,-2.8092,-2.8092,-2.7998,-2.7998,-2.7998,-2.7998,-2.7998,-2.8092,-2.7893,-2.7146,-2.6955,-2.6274,-2.452,-2.342,-2.322,-2.4322,-2.5099,-2.5974,-2.6945,-2.762,-2.76,-2.6532,-2.5761,-2.4894,-2.3692,-2.2911,-2.2828,-2.3429,-2.3899,-2.5178,-2.7156,-2.7262,-2.7357,-2.7262,-2.7357,-2.7357,-2.7262,-2.7262,-2.7262,0.0,0.0,0.0,0.0,0.0,0.0,0.0,0.0,0.0,0.0,0.0,0.0,0.0,0.0,0.0,0.0,0.0,0.0,0.0,0.0,0.0,0.0,0.0,0.0,0.0,0.0,0.0,0.0,0.0,0.0,0.0,0.0,0.0,-3.3081,-3.3081,-3.3081,-3.3081,-3.3154,-3.3154,0.0,-3.3556,-3.3713,-3.3713,-3.3713,-3.3713,-3.3713,-3.4063,-3.4147,-3.3992,-3.4147,-3.423,-3.423,-3.405,-3.3079,-3.1665,-3.13,-3.0158,-2.8921,-2.8653,-2.8664,-2.8757,-2.8757,-2.8757,-2.8757,-2.8757,-2.8757,-2.8757,-2.8757,-2.8757,-2.8757,-2.8757,-2.8757,-2.8664,-2.8653,-2.8477,-2.829,-2.829,-2.829,-2.829,-2.829,-2.8477,-2.856,-2.8373,-2.7421,-2.6264,-2.5197,-2.5382,-2.5954,-2.6723,-2.7421,-2.7904,-2.8373,-2.8384,-2.7809,-2.6542,-2.5954,-2.4982,-2.352,-2.2828,-2.312,-2.4501,-2.4894,-2.5392,-2.5984,-2.7231,-2.7631,-2.7262,-2.7441,-2.7452,-2.7262,-2.7262,-2.7262,0.0,0.0,0.0,0.0,0.0,0.0,0.0,0.0,0.0,0.0,0.0,0.0,0.0,0.0,0.0,0.0,0.0,0.0,0.0,0.0,0.0,0.0,0.0,0.0,0.0,0.0,0.0,0.0,0.0,0.0,0.0,-3.3081,-3.3081,-3.3081,-3.3081,-3.3081,-3.3081,-3.3326,-3.3398,-3.3398,-3.381,-3.4063,-3.4063,-3.4063,-3.4063,-3.4063,-3.4314,-3.4314,-3.4243,-3.4397,-3.4397,-3.4397,-3.4397,-3.3784,-3.2895,-3.2463,-3.14,-3.0079,-2.9646,-2.9198,-2.8757,-2.8757,-2.8757,-2.8757,-2.8757,-2.8757,-2.8757,-2.8757,-2.8757,-2.8757,-2.8757,-2.8757,-2.8757,-2.8757,-2.8664,-2.8581,-2.8581,-2.8581,-2.8581,-2.8581,-2.8664,-2.8653,-2.8269,-2.6924,-2.5684,-2.4913,-2.5109,-2.5499,-2.5877,-2.6839,-2.7515,-2.7694,-2.8186,-2.8279,-2.7704,-2.701,-2.6041,-2.4492,-2.38,-2.3411,-2.3402,-2.4599,-2.5684,-2.6476,-2.7241,-2.7536,-2.7262,-2.7452,-2.7452,-2.7262,-2.7262,-2.7262,0.0,0.0,0.0,0.0,0.0,0.0,0.0,0.0,0.0,0.0,0.0,0.0,0.0,0.0,0.0,0.0,0.0,0.0,0.0,0.0,0.0,0.0,0.0,0.0,0.0,0.0,0.0,0.0,0.0,0.0,-3.3081,-3.3081,-3.3081,-3.3081,-3.3154,-3.3154,-3.3154,-3.3556,-3.3713,-3.3725,-3.4147,-3.4397,-3.4397,-3.4397,-3.4397,-3.4397,-3.4397,-3.4397,-3.4397,-3.4397,-3.4397,-3.4397,-3.4397,-3.4314,-3.4037,-3.325,-3.2277,-3.1223,-3.0429,-2.9555,-2.8757,-2.8757,-2.8757,-2.8757,-2.8757,-2.8757,-2.8757,-2.8757,-2.8757,-2.8757,-2.8757,-2.8757,-2.8757,-2.8757,-2.8757,-2.8757,-2.8757,-2.8757,-2.8757,-2.8757,-2.8757,-2.8456,-2.76,-2.6446,-2.5489,-2.4735,-2.4735,-2.4824,-2.4824,-2.5974,-2.6839,-2.6733,-2.7987,-2.8664,-2.8466,-2.7788,-2.6819,-2.5557,-2.4796,-2.3809,-2.2325,-2.4106,-2.5684,-2.686,-2.7251,-2.7347,-2.7262,-2.7357,-2.7357,-2.7262,-2.7262,-2.7262,0.0,0.0,0.0,0.0,0.0,0.0,0.0,0.0,0.0,0.0,0.0,0.0,0.0,0.0,0.0,0.0,0.0,0.0,0.0,0.0,0.0,0.0,0.0,0.0,0.0,0.0,0.0,0.0,0.0,0.0,-3.3081,-3.3081,-3.3081,-3.3081,-3.324,-3.3398,-3.3398,-3.3556,-3.3713,-3.3713,-3.3992,-3.4243,-3.4397,-3.4397,-3.4397,-3.4397,-3.4397,-3.4397,-3.4397,-3.4397,-3.4397,-3.4397,-3.4397,-3.3869,-3.3164,-3.3079,-3.1928,-3.0351,-3.026,-2.9555,-2.8757,-2.8757,-2.8757,-2.8757,-2.8757,-2.8757,-2.8757,-2.8757,-2.8757,-2.8757,-2.8757,-2.8757,-2.8757,-2.8757,-2.8757,-2.8757,-2.8757,-2.8757,-2.8757,-2.8757,-2.8757,-2.8373,-2.6935,-2.702,-2.702,-2.6264,-2.6733,-2.7115,-2.7115,-2.7882,-2.8269,-2.7494,-2.8269,-2.8279,-2.6935,-2.6744,-2.5974,-2.4538,-2.4341,-2.4341,-2.444,-2.4332,-2.451,-2.5187,-2.703,-2.7715,-2.7262,-2.7441,-2.7452,-2.7262,-2.7262,-2.7262,0.0,0.0,0.0,0.0,0.0,0.0,0.0,0.0,0.0,0.0,0.0,0.0,0.0,0.0,0.0,0.0,0.0,0.0,0.0,0.0,0.0,0.0,0.0,0.0,0.0,0.0,0.0,0.0,0.0,-3.3081,-3.3081,-3.3081,-3.3154,-3.324,-3.3313,-3.3484,-3.3556,-3.381,-3.3979,-3.405,-3.423,-3.4314,-3.4397,-3.4397,-3.4397,-3.4397,-3.4397,-3.4397,-3.4397,-3.4397,-3.4397,-3.4397,-3.4397,-3.4134,-3.3687,-3.3164,-3.2103,-3.0866,-3.0351,-2.9555,-2.8757,-2.8757,-2.8757,-2.8757,-2.8757,-2.8757,-2.8757,-2.8757,-2.8757,-2.8757,-2.8757,-2.8757,-2.8757,-2.8757,-2.8757,-2.8757,-2.8757,-2.8757,-2.8757,-2.8757,-2.8757,-2.8456,-2.7305,-2.74,-2.721,-2.5964,-2.6061,-2.634,-2.634,-2.6638,-2.702,-2.7589,-2.7882,-2.807,-2.7799,-2.7799,-2.721,-2.5761,-2.5664,-2.5275,-2.4304,-2.4609,-2.4707,-2.4412,-2.5974,-2.6562,-2.638,-2.7061,-2.7357,-2.7262,-2.7452,-2.7452,0.0,0.0,0.0,0.0,0.0,0.0,0.0,0.0,0.0,0.0,0.0,0.0,0.0,0.0,0.0,0.0,0.0,0.0,0.0,0.0,0.0,0.0,0.0,0.0,0.0,0.0,0.0,0.0,0.0,-3.3081,-3.3081,-3.3154,-3.3227,-3.3398,-3.3484,-3.3654,-3.381,-3.4063,-3.4243,-3.4397,-3.4397,-3.4397,-3.4397,-3.4397,-3.4397,-3.4397,-3.4397,-3.4397,-3.4397,-3.4397,-3.4397,-3.4397,-3.4397,-3.4397,-3.4314,-3.3335,-3.2376,-3.1488,-3.0519,-2.9555,-2.8757,-2.8757,-2.8757,-2.8757,-2.8757,-2.8757,-2.8757,-2.8757,-2.8757,-2.8757,-2.8757,-2.8757,-2.8757,-2.8757,-2.8757,-2.8757,-2.8757,-2.8757,-2.8757,-2.8757,-2.8757,-2.856,-2.7778,-2.7778,-2.7494,-2.6061,-2.6061,-2.6157,-2.5868,-2.6061,-2.6542,-2.7494,-2.7778,-2.807,-2.8466,-2.8466,-2.7872,-2.6512,-2.6416,-2.5644,-2.3899,-2.4402,-2.451,-2.3926,-2.4815,-2.5499,-2.5984,-2.6764,-2.7251,-2.7441,-2.7631,-2.7726,0.0,0.0,0.0,0.0,0.0,0.0,0.0,0.0,0.0,0.0,0.0,0.0,0.0,0.0,0.0,0.0,0.0,0.0,0.0,0.0,0.0,0.0,0.0,0.0,0.0,0.0,0.0,0.0,0.0,-3.3081,-3.3081,-3.3326,-3.3398,-3.3398,-3.3823,-3.4076,-3.4076,-3.4314,-3.4397,-3.4397,-3.4397,-3.4397,-3.4397,-3.4397,-3.4397,-3.4397,-3.4397,-3.4397,-3.4397,-3.4397,-3.4397,-3.4397,-3.4397,-3.4397,-3.4314,-3.3335,-3.2376,-3.1488,-3.0519,-2.9555,-2.8757,-2.8757,-2.8757,-2.8757,-2.8757,-2.8757,-2.8757,-2.8757,-2.8757,-2.8757,-2.8757,-2.8757,-2.8757,-2.8757,-2.8757,-2.8757,-2.8757,-2.8757,-2.8757,-2.8757,-2.8757,-2.856,-2.7778,-2.8269,-2.8456,-2.7589,-2.8164,-2.8362,-2.7589,-2.8175,-2.8362,-2.7683,-2.8269,-2.8466,-2.7683,-2.7683,-2.702,-2.5479,-2.5392,-2.5011,-2.4242,-2.3637,-2.3429,-2.3329,-2.3926,-2.5099,-2.686,-2.6849,-2.7241,-2.7998,-2.7998,-2.7998,0.0,0.0,0.0,0.0,0.0,0.0,0.0,0.0,0.0,0.0,0.0,0.0,0.0,0.0,0.0,0.0,0.0,0.0,0.0,0.0,0.0,0.0,0.0,0.0,0.0,0.0,0.0,0.0,0.0,0.0,-3.1436,-3.1524,-3.1701,-3.2064,-3.2227,-3.2661,-3.3348,-3.3433,-3.3784,-3.4397,-3.4397,-3.4397,-3.4397,-3.4397,-3.4397,-3.4397,-3.4397,-3.4397,-3.4397,-3.4397,-3.4397,-3.4397,-3.4397,-3.4397,-3.4217,-3.2636,-3.1928,-3.14,-2.9818,-2.9117,-2.8757,-2.8757,-2.8757,-2.8757,-2.8757,-2.8757,-2.8757,-2.8757,-2.8757,-2.8757,-2.8757,-2.8757,-2.8757,-2.8757,-2.8757,-2.8757,-2.8757,-2.8757,-2.8757,-2.8757,-2.8757,-2.8746,-2.8456,-2.8653,-2.856,-2.7683,-2.7882,-2.7977,-2.7683,-2.741,-2.76,-2.8269,-2.8175,-2.8081,-2.8362,-2.8362,-2.8164,-2.76,-2.7505,-2.721,-2.6446,-2.6137,-2.5858,-2.5382,-2.5577,-2.5684,-2.5877,-2.6562,-2.7241,-2.7998,-2.8196,-2.829,0.0,0.0,0.0,0.0,0.0,0.0,0.0,0.0,0.0,0.0,0.0,0.0,0.0,0.0,0.0,0.0,0.0,0.0,0.0,0.0,0.0,0.0,0.0,0.0,0.0,0.0,0.0,0.0,0.0,0.0,-3.0388,-3.0629,-3.0979,-3.1424,-3.1424,-3.1765,-3.255,-3.255,-3.2809,-3.3433,-3.3784,-3.3953,-3.3953,-3.4217,-3.4397,-3.4397,-3.4397,-3.4397,-3.4397,-3.4397,-3.4397,-3.4397,-3.4397,-3.4397,-3.4134,-3.2277,-3.1577,-3.1311,-2.9463,-2.8757,-2.8757,-2.8757,-2.8757,-2.8757,-2.8757,-2.8757,-2.8757,-2.8757,-2.8757,-2.8757,-2.8757,-2.8757,-2.8757,-2.8757,-2.8757,-2.8757,-2.8757,-2.8757,-2.8757,-2.8757,-2.8757,-2.8757,-2.8757,-2.8757,-2.8653,-2.807,-2.7977,-2.7977,-2.7977,-2.76,-2.76,-2.8362,-2.8164,-2.807,-2.8362,-2.8653,-2.8653,-2.8362,-2.8362,-2.8081,-2.721,-2.721,-2.702,-2.6552,-2.6456,-2.636,-2.6061,-2.6552,-2.7136,-2.7882,-2.8092,-2.829,0.0,0.0,0.0,0.0,0.0,0.0,0.0,0.0,0.0,0.0,0.0,0.0,0.0,0.0,0.0,0.0,0.0,0.0,0.0,0.0,0.0,0.0,0.0,0.0,0.0,0.0,0.0,0.0,0.0,-2.9864,-3.005,-3.0785,-3.1323,-3.1488,-3.1488,-3.1488,-3.1577,-3.1577,-3.1577,-3.1577,-3.2537,-3.298,-3.2993,-3.3953,-3.4397,-3.4397,-3.4397,-3.4397,-3.4397,-3.4397,-3.4397,-3.4397,-3.4397,-3.4397,-3.4134,-3.2277,-3.1577,-3.1311,-2.9463,-2.8757,-2.8757,-2.8757,-2.8757,-2.8757,-2.8757,-2.8757,-2.8757,-2.8757,-2.8757,-2.8757,-2.8757,-2.8757,-2.8757,-2.8757,-2.8757,-2.8757,-2.8757,-2.8757,-2.8757,-2.8757,-2.8757,-2.8757,-2.8757,-2.8757,-2.8757,-2.8757,-2.8757,-2.8757,-2.8757,-2.8757,-2.8456,-2.7683,-2.8362,-2.8456,-2.7683,-2.8362,-2.8456,-2.7683,-2.7683,-2.7305,-2.6648,-2.6552,-2.6552,-2.6552,-2.6552,-2.6924,-2.7589,-2.6829,-2.6935,-2.7589,-2.7589,-2.7977,-2.5229,0.0,0.0,0.0,0.0,0.0,0.0,0.0,0.0,0.0,0.0,0.0,0.0,0.0,0.0,0.0,0.0,0.0,0.0,0.0,0.0,0.0,0.0,0.0,0.0,0.0,0.0,0.0,-2.7668,-2.7412,-2.7889,-2.8511,-2.9104,-2.9543,-2.9543,-2.9909,-3.0609,-3.0609,-3.0968,-3.1577,-3.184,-3.2016,-3.2016,-3.298,-3.3433,-3.3433,-3.4134,-3.4397,-3.4397,-3.4397,-3.4397,-3.4397,-3.4397,-3.3966,-3.325,-3.2016,-3.1134,-3.0429,-2.9198,-2.8757,-2.8757,-2.8757,-2.8757,-2.8757,-2.8757,-2.8757,-2.8757,-2.8757,-2.8757,-2.8757,-2.8757,-2.8757,-2.8757,-2.8757,-2.8757,-2.8757,-2.8757,-2.8757,-2.8757,-2.8757,-2.8757,-2.8757,-2.8757,-2.8757,-2.8757,-2.8757,-2.8757,-2.8757,-2.8757,-2.8757,-2.8746,-2.8466,-2.8653,-2.8746,-2.8466,-2.8653,-2.8757,-2.8466,-2.8456,-2.8362,-2.8175,-2.8175,-2.8175,-2.8175,-2.8175,-2.7987,-2.7589,-2.74,-2.74,-2.7589,-2.7589,-2.7683,0.0,0.0,0.0,0.0,0.0,0.0,0.0,-2.6494,0.0,0.0,0.0,0.0,0.0,0.0,0.0,0.0,0.0,0.0,0.0,0.0,0.0,0.0,0.0,0.0,0.0,0.0,0.0,-2.7283,-2.6639,-2.6491,-2.706,-2.7499,-2.796,-2.844,-2.8462,-2.8815,-2.9635,-2.9646,-2.9909,-3.0429,-3.0789,-3.1223,-3.1665,-3.255,-3.325,-3.3602,-3.4134,-3.4397,-3.4397,-3.3953,-3.405,-3.4397,-3.3953,-3.3518,-3.2809,-3.1488,-3.0699,-3.0091,-2.9106,-2.8757,-2.8757,-2.8757,-2.8757,-2.8757,-2.8757,-2.8757,-2.8757,-2.8757,-2.8757,-2.8757,-2.8757,-2.8757,-2.8757,-2.8757,-2.8757,-2.8757,-2.8757,-2.8757,-2.8757,-2.8757,-2.8757,-2.8757,-2.8757,-2.8757,-2.8757,-2.8757,-2.8757,-2.8757,-2.8757,-2.8757,-2.8653,-2.8362,-2.856,-2.8653,-2.8362,-2.8653,-2.8757,-2.8757,-2.8757,-2.8757,-2.8757,-2.8757,-2.8757,-2.8757,-2.8757,-2.856,-2.807,-2.7778,-2.7589,-2.7589,-2.7977,-2.807,0.0,0.0,0.0,0.0,0.0,0.0,-2.5359,-2.5611,-2.5946,0.0,0.0,0.0,0.0,0.0,0.0,0.0,0.0,0.0,0.0,0.0,0.0,0.0,0.0,0.0,0.0,-2.701,-2.661,-2.6891,-2.6469,-2.6574,-2.7217,-2.7239,-2.7457,-2.7938,-2.796,-2.8189,-2.8669,-2.868,-2.8702,-2.885,-2.9646,-3.0519,-3.1311,-3.2277,-3.3164,-3.3953,-3.4037,-3.4134,-3.405,-3.3164,-3.3433,-3.4134,-3.325,-3.2809,-3.2463,-3.0789,-3.017,-2.9909,-2.9106,-2.8757,-2.8757,-2.8757,-2.8757,-2.8757,-2.8757,-2.8757,-2.8757,-2.8757,-2.8757,-2.8757,-2.8757,-2.8757,-2.8757,-2.8757,-2.8757,-2.8757,-2.8757,-2.8757,-2.8757,-2.8757,-2.8757,-2.8757,-2.8757,-2.8757,-2.8757,-2.8757,-2.8757,-2.8757,-2.8757,-2.8757,-2.856,-2.7788,-2.8362,-2.8466,-2.7788,-2.8362,-2.8757,-2.8757,-2.8757,-2.8757,-2.8757,-2.8757,-2.8757,-2.8757,-2.8757,-2.8757,-2.8757,-2.7977,-2.7589,-2.7589,-2.8362,-2.8653,0.0,0.0,0.0,0.0,0.0,0.0,-2.5369,-2.5779,-2.6196,0.0,0.0,0.0,0.0,0.0,0.0,0.0,0.0,0.0,0.0,0.0,0.0,0.0,0.0,0.0,0.0,-2.701,-2.661,-2.6891,-2.6318,-2.6171,-2.6736,-2.6769,-2.6977,-2.7435,-2.7457,-2.7687,-2.8178,-2.8189,-2.8375,-2.8757,-2.9024,-2.9198,-2.9382,-3.0351,-3.0878,-3.1045,-3.184,-3.2103,-3.2103,-3.1928,-3.2463,-3.3164,-3.2277,-3.14,-3.0699,-3.0351,-2.9726,-2.9024,-2.8839,-2.8757,-2.8757,-2.8757,-2.8757,-2.8757,-2.8757,-2.8757,-2.8757,-2.8757,-2.8757,-2.8757,-2.8757,-2.8757,-2.8757,-2.8757,-2.8757,-2.8757,-2.8757,-2.8757,-2.8757,-2.8757,-2.8757,-2.8757,-2.8757,-2.8757,-2.8757,-2.8757,-2.8757,-2.8757,-2.8757,-2.8757,-2.8757,-2.856,-2.8746,-2.8757,-2.856,-2.8746,-2.8757,-2.8757,-2.8757,-2.8757,-2.8757,-2.8757,-2.8757,-2.8757,-2.8757,-2.8757,-2.8757,-2.7977,-2.7589,-2.7589,-2.7788,-2.7872,0.0,0.0,0.0,-2.4769,0.0,0.0,0.0,-2.5717,-2.5874,0.0,0.0,0.0,0.0,0.0,0.0,0.0,0.0,0.0,0.0,0.0,0.0,0.0,0.0,0.0,0.0,-2.6456,-2.6218,-2.6396,-2.6063,-2.6005,-2.6256,-2.6267,-2.6485,-2.6955,-2.6966,-2.7195,-2.7676,-2.7916,-2.8156,-2.8407,-2.8637,-2.9024,-2.9555,-3.0,-3.0429,-3.0956,-3.14,-3.1577,-3.1577,-3.1045,-3.1134,-3.1577,-3.1045,-3.0609,-3.017,-2.9635,-2.9198,-2.8757,-2.8757,-2.8757,-2.8757,-2.8757,-2.8757,-2.8757,-2.8757,-2.8757,-2.8757,-2.8757,-2.8757,-2.8757,-2.8757,-2.8757,-2.8757,-2.8757,-2.8757,-2.8757,-2.8757,-2.8757,-2.8757,-2.8757,-2.8757,-2.8757,-2.8757,-2.8757,-2.8757,-2.8757,-2.8757,-2.8757,-2.8757,-2.8757,-2.8757,-2.8757,-2.8757,-2.8757,-2.8757,-2.8757,-2.8757,-2.8757,-2.8757,-2.8757,-2.8757,-2.8757,-2.8757,-2.8757,-2.8757,-2.8757,-2.8757,-2.8373,-2.8175,-2.8175,-2.8175,-2.8175,0.0,0.0,0.0,0.0,0.0,-2.5822,0.0,0.0,0.0,-2.538,0.0,0.0,0.0,0.0,0.0,0.0,0.0,0.0,0.0,0.0,0.0,0.0,0.0,0.0,0.0,-2.5895,-2.5895,-2.5895,-2.5895,-2.5895,-2.5895,-2.5895,-2.6081,-2.6474,-2.6496,-2.6715,-2.7173,-2.7577,-2.7818,-2.7905,-2.8386,-2.9065,-2.9761,-2.9852,-3.0351,-3.1045,-3.1045,-3.1045,-3.0956,-3.026,-2.9897,-2.9897,-2.9897,-2.9897,-2.9818,-2.9117,-2.8757,-2.8757,-2.8757,-2.8757,-2.8757,-2.8757,-2.8757,-2.8757,-2.8757,-2.8757,-2.8757,-2.8757,-2.8757,-2.8757,-2.8757,-2.8757,-2.8757,-2.8757,-2.8757,-2.8757,-2.8757,-2.8757,-2.8757,-2.8757,-2.8757,-2.8757,-2.8757,-2.8757,-2.8757,-2.8757,-2.8757,-2.8757,-2.8757,-2.8757,-2.8757,-2.8757,-2.8757,-2.8757,-2.8757,-2.8757,-2.8757,-2.8757,-2.8757,-2.8757,-2.8757,-2.8757,-2.8757,-2.8757,-2.8757,-2.8757,-2.8757,-2.8757,-2.8757,-2.8757,-2.8757,-2.8757,0.0,0.0,0.0,0.0,-2.5502,0.0,0.0,0.0,-2.5822,-2.5812,0.0,0.0,0.0,0.0,0.0,0.0,0.0,0.0,0.0,0.0,0.0,0.0,0.0,0.0,0.0,0.0,-2.5895,-2.5895,-2.5895,-2.5895,-2.5895,-2.5895,-2.5928,-2.5983,-2.5983,-2.6212,-2.6704,-2.6758,-2.6998,-2.7403,-2.7883,-2.8123,-2.8316,-2.8734,-2.9024,-2.9106,-2.9106,-2.9106,-2.9117,-2.9024,-2.8932,-2.8932,-2.8932,-2.8932,-2.8932,-2.885,-2.8757,-2.8757,-2.8757,-2.8757,-2.8757,-2.8757,-2.8757,-2.8757,-2.8757,-2.8757,-2.8757,-2.8757,-2.8757,-2.8757,-2.8757,-2.8757,-2.8757,-2.8757,-2.8757,-2.8757,-2.8757,-2.8757,-2.8757,-2.8757,-2.8757,-2.8757,-2.8757,-2.8757,-2.8757,-2.8757,-2.8757,-2.8757,-2.8757,-2.8757,-2.8757,-2.8757,-2.8757,-2.8757,-2.8757,-2.8757,-2.8757,-2.8757,-2.8757,-2.8757,-2.8757,-2.8757,-2.8757,-2.8757,-2.8757,-2.8757,-2.8757,-2.8757,-2.8757,-2.8757,-2.8757,-2.8757,0.0,0.0,0.0,0.0,0.0,0.0,0.0,0.0,-2.5895,0.0,0.0,0.0,0.0,0.0,0.0,0.0,0.0,0.0,0.0,0.0,0.0,0.0,0.0,0.0,0.0,0.0,0.0,0.0,0.0,-2.5895,-2.5895,-2.5895,-2.5895,-2.5895,-2.5895,-2.5994,-2.6201,-2.6485,-2.6725,-2.6922,-2.7392,-2.7774,-2.8047,-2.8244,-2.8495,-2.8757,-2.8757,-2.8757,-2.8757,-2.8757,-2.8757,-2.8757,-2.8757,-2.8757,-2.8757,-2.8757,-2.8757,-2.8757,-2.8757,-2.8757,-2.8757,-2.8757,-2.8757,-2.8757,-2.8757,-2.8757,-2.8757,-2.8757,-2.8757,-2.8757,-2.8757,-2.8757,-2.8757,-2.8757,-2.8757,-2.8757,-2.8757,-2.8757,-2.8757,-2.8757,-2.8757,-2.8757,-2.8757,-2.8757,-2.8757,-2.8757,-2.8757,-2.8757,-2.8757,-2.8757,-2.8757,-2.8757,-2.8757,-2.8757,-2.8757,-2.8757,-2.8757,-2.8757,-2.8757,-2.8757,-2.8757,-2.8757,-2.8757,-2.8757,-2.8757,-2.8757,-2.8757,-2.8757,-2.8757,-2.8757,-2.8757,-2.8757,-2.3897,0.0,0.0,0.0,0.0,0.0,0.0,0.0,0.0,0.0,0.0,0.0,0.0,0.0,0.0,0.0,0.0,0.0,0.0,0.0,0.0,0.0,0.0,0.0,0.0,0.0,0.0,0.0,-2.5895,-2.5895,-2.5895,-2.5895,-2.5895,-2.5895,-2.5895,-2.5895,-2.5895,-2.6256,-2.6431,-2.6431,-2.69,-2.737,-2.785,-2.7981,-2.8298,-2.8757,-2.8757,-2.8757,-2.8757,-2.8757,-2.8757,-2.8757,-2.8757,-2.8757,-2.8757,-2.8757,-2.8757,-2.8757,-2.8757,-2.8757,-2.8757,-2.8757,-2.8757,-2.8757,-2.8757,-2.8757,-2.8757,-2.8757,-2.8757,-2.8757,-2.8757,-2.8757,-2.8757,-2.8757,-2.8757,-2.8757,-2.8757,-2.8757,-2.8757,-2.8757,-2.8757,-2.8757,-2.8757,-2.8757,-2.8757,-2.8757,-2.8757,-2.8757,-2.8757,-2.8757,-2.8757,-2.8757,-2.8757,-2.8757,-2.8757,-2.8757,-2.8757,-2.8757,-2.8757,-2.8757,-2.8757,-2.8757,-2.8757,-2.8757,-2.8757,-2.8757,-2.8757,-2.8757,-2.8757,-2.8757,-2.8757,-2.8757,0.0,0.0,0.0,-2.5764,0.0,0.0,0.0,0.0,-2.5895,0.0,0.0,0.0,0.0,0.0,0.0,-2.5273,0.0,0.0,0.0,0.0,0.0,0.0,0.0,0.0,0.0,0.0,0.0,-2.5895,-2.5895,-2.5895,-2.5895,-2.5895,-2.5895,-2.5895,-2.5895,-2.5895,-2.5895,-2.5917,-2.5928,-2.5928,-2.642,-2.6889,-2.7348,-2.7818,-2.8298,-2.8757,-2.8757,-2.8757,-2.8757,-2.8757,-2.8757,-2.8757,-2.8757,-2.8757,-2.8757,-2.8757,-2.8757,-2.8757,-2.8757,-2.8757,-2.8757,-2.8757,-2.8757,-2.8757,-2.8757,-2.8757,-2.8757,-2.8757,-2.8757,-2.8757,-2.8757,-2.8757,-2.8757,-2.8757,-2.8757,-2.8757,-2.8757,-2.8757,-2.8757,-2.8757,-2.8757,-2.8757,-2.8757,-2.8757,-2.8757,-2.8757,-2.8757,-2.8757,-2.8757,-2.8757,-2.8757,-2.8757,-2.8757,-2.8757,-2.8757,-2.8757,-2.8757,-2.8757,-2.8757,-2.8757,-2.8757,-2.8757,-2.8757,-2.8757,-2.8757,-2.8757,-2.8757,-2.8757,-2.8757,-2.8757,-2.8757,-2.8757,0.0,0.0,-2.5699,-2.5863,0.0,0.0,0.0,0.0,0.0,0.0,0.0,0.0,0.0,0.0,-2.5852,-2.5677,-2.5797,0.0,0.0,0.0,0.0,0.0,0.0,0.0,0.0,0.0,0.0,-2.5895,-2.5895,-2.5895,0.0,-2.5895,-2.5895,-2.5895,-2.5895,-2.5895,-2.5895,-2.5895,-2.5895,-2.5895,-2.607,-2.6398,-2.6878,-2.7348,-2.7829,-2.8298,-2.8615,-2.8757,-2.8757,-2.8757,-2.8757,-2.8757,-2.8757,-2.8757,-2.8757,-2.8757,-2.8757,-2.8757,-2.8757,-2.8757,-2.8757,-2.8757,-2.8757,-2.8757,-2.8757,-2.8757,-2.8757,-2.8757,-2.8757,-2.8757,-2.8757,-2.8757,-2.8757,-2.8757,-2.8757,-2.8757,-2.8757,-2.8757,-2.8757,-2.8757,-2.8757,-2.8757,-2.8757,-2.8757,-2.8757,-2.8757,-2.8757,-2.8757,-2.8757,-2.8757,-2.8757,-2.8757,-2.8757,-2.8757,-2.8757,-2.8757,-2.8757,-2.8757,-2.8757,-2.8757,-2.8757,-2.8757,-2.8757,-2.8757,-2.8757,-2.8757,-2.8757,-2.8757,-2.8757,-2.8757,-2.8757,-2.8757,-2.5043,-2.5524,0.0,-2.5895,-2.5895,0.0,-2.5895,0.0,0.0,0.0,0.0,0.0,0.0,0.0,0.0,-2.5895,-2.5895,-2.5895,0.0,-2.5895,0.0,0.0,0.0,0.0,0.0,0.0,-2.5895,-2.5895,-2.5895,-2.5895,0.0,0.0,-2.5895,-2.5895,-2.5895,-2.5895,-2.5895,-2.5895,-2.5895,-2.5895,-2.5895,-2.6157,-2.6649,-2.7108,-2.7577,-2.8069,-2.8549,-2.8757,-2.8757,-2.8757,-2.8757,-2.8757,-2.8757,-2.8757,-2.8757,-2.8757,-2.8757,-2.8757,-2.8757,-2.8757,-2.8757,-2.8757,-2.8757,-2.8757,-2.8757,-2.8757,-2.8822,-2.9172,-2.9019,-2.8833,-2.9183,-2.9019,-2.8757,-2.8757,-2.8757,-2.8757,-2.8757,-2.8757,-2.8757,-2.8757,-2.8757,-2.8757,-2.8757,-2.8757,-2.8757,-2.8757,-2.8757,-2.8757,-2.8757,-2.8757,-2.8757,-2.8757,-2.8757,-2.8757,-2.8757,-2.8757,-2.8757,-2.8757,-2.8757,-2.8757,-2.8757,-2.8757,-2.8757,-2.8757,-2.8757,-2.8757,-2.8757,-2.8757,-2.8757,-2.8757,-2.8757,-2.8757]},{"header":{"parameterUnit":"m.s-1","parameterCategory":1,"la1":30.6,"la2":29.2853,"lo1":-89.7004,"lo2":-87.6739,"dy":0.0162,"dx":0.0183,"nx":112,"ny":82,"refTime":"2023-07-28T06:00:00:Z","depth":0,"parameterNumber":3,"parameterNumberName":"V-component_of_WINDS"},"data":[0.0,0.0,0.0,0.0,0.0,0.0,0.0,0.0,0.0,0.0,0.0,0.0,0.0,0.0,0.0,0.0,0.0,0.0,0.0,0.0,0.0,0.0,0.0,0.0,0.0,0.0,0.0,0.0,0.0,0.0,0.0,0.0,0.0,0.0,0.0,0.0,0.0,0.0,0.0,0.0,0.0,0.0,0.0,0.0,0.0,0.0,0.0,0.0,0.0,0.0,0.0,0.0,0.0,0.0,0.0,0.0,0.0,0.0,0.0,0.0,0.0,0.0,0.0,0.0,0.0,0.0,0.0,0.0,0.0,0.0,0.0,0.0,0.0,0.0,0.0,0.0,0.0,0.0,0.0,0.0,0.0,0.0,0.0,0.0,0.0,0.0,0.0,0.0,0.0,0.0,0.0,-3.0377,-3.107,-3.174,-3.2312,-3.254,-3.2672,-3.2703,0.0,0.0,0.0,0.0,0.0,0.0,0.0,0.0,0.0,0.0,0.0,0.0,0.0,0.0,0.0,0.0,0.0,0.0,0.0,0.0,0.0,0.0,0.0,0.0,0.0,0.0,0.0,0.0,0.0,0.0,0.0,0.0,0.0,0.0,0.0,0.0,0.0,0.0,0.0,0.0,0.0,0.0,0.0,0.0,0.0,0.0,0.0,0.0,0.0,0.0,0.0,0.0,0.0,0.0,0.0,0.0,0.0,0.0,0.0,0.0,0.0,0.0,0.0,0.0,0.0,0.0,0.0,0.0,0.0,0.0,0.0,0.0,0.0,0.0,0.0,0.0,0.0,0.0,0.0,0.0,0.0,0.0,0.0,0.0,0.0,0.0,0.0,0.0,0.0,0.0,0.0,0.0,0.0,0.0,0.0,0.0,0.0,0.0,0.0,0.0,0.0,0.0,0.0,0.0,-3.1309,-3.1751,-3.1921,-3.2015,-3.2146,-3.2333,-3.2523,-3.2688,0.0,0.0,0.0,0.0,0.0,0.0,0.0,0.0,0.0,0.0,0.0,0.0,0.0,0.0,0.0,0.0,0.0,0.0,0.0,0.0,0.0,0.0,0.0,0.0,0.0,0.0,0.0,0.0,0.0,0.0,0.0,0.0,0.0,0.0,0.0,0.0,0.0,0.0,0.0,0.0,0.0,0.0,0.0,0.0,0.0,0.0,0.0,0.0,0.0,0.0,0.0,0.0,0.0,0.0,0.0,0.0,0.0,0.0,0.0,0.0,0.0,0.0,0.0,0.0,0.0,0.0,0.0,0.0,0.0,0.0,0.0,0.0,0.0,0.0,0.0,0.0,0.0,0.0,0.0,0.0,0.0,0.0,0.0,0.0,0.0,0.0,0.0,0.0,0.0,0.0,0.0,0.0,0.0,0.0,0.0,0.0,0.0,0.0,0.0,0.0,0.0,0.0,0.0,-3.2016,-3.234,-3.3092,-3.312,-3.3257,-3.3731,-3.3857,-3.3961,-3.4044,-3.3331,0.0,0.0,0.0,0.0,0.0,0.0,0.0,0.0,0.0,0.0,0.0,0.0,0.0,0.0,0.0,0.0,0.0,0.0,0.0,0.0,0.0,0.0,0.0,0.0,0.0,0.0,0.0,0.0,0.0,0.0,0.0,0.0,0.0,0.0,0.0,0.0,0.0,0.0,0.0,0.0,0.0,0.0,0.0,0.0,0.0,0.0,0.0,0.0,0.0,0.0,0.0,0.0,0.0,0.0,0.0,0.0,0.0,0.0,0.0,0.0,0.0,0.0,0.0,0.0,0.0,0.0,0.0,0.0,0.0,0.0,0.0,0.0,0.0,0.0,0.0,0.0,0.0,0.0,0.0,0.0,0.0,0.0,0.0,0.0,0.0,0.0,0.0,0.0,0.0,0.0,0.0,0.0,0.0,0.0,0.0,0.0,0.0,0.0,0.0,0.0,0.0,0.0,-3.2823,-3.3325,-3.4152,-3.4146,-3.4382,-3.51,-3.519,-3.5223,-3.5258,-3.4769,0.0,0.0,0.0,0.0,0.0,0.0,0.0,0.0,0.0,0.0,0.0,0.0,0.0,0.0,0.0,0.0,0.0,0.0,0.0,0.0,0.0,0.0,0.0,0.0,0.0,0.0,0.0,0.0,0.0,0.0,0.0,0.0,0.0,0.0,0.0,0.0,0.0,0.0,0.0,0.0,0.0,0.0,0.0,0.0,0.0,0.0,0.0,0.0,0.0,0.0,0.0,0.0,0.0,0.0,0.0,0.0,0.0,0.0,0.0,0.0,0.0,0.0,0.0,0.0,0.0,0.0,0.0,0.0,0.0,0.0,0.0,0.0,0.0,0.0,0.0,0.0,0.0,0.0,0.0,0.0,0.0,0.0,0.0,0.0,0.0,0.0,0.0,0.0,0.0,0.0,0.0,0.0,0.0,0.0,0.0,0.0,0.0,0.0,0.0,0.0,0.0,0.0,-3.3976,-3.4295,-3.462,-3.4659,-3.4756,-3.498,-3.5187,-3.5315,-3.5379,-3.534,0.0,0.0,0.0,0.0,0.0,0.0,0.0,0.0,0.0,0.0,0.0,0.0,0.0,0.0,0.0,0.0,0.0,0.0,0.0,0.0,0.0,0.0,0.0,0.0,0.0,0.0,0.0,0.0,0.0,0.0,0.0,0.0,0.0,0.0,0.0,0.0,0.0,0.0,0.0,0.0,0.0,0.0,0.0,0.0,0.0,0.0,0.0,0.0,0.0,0.0,0.0,0.0,0.0,0.0,0.0,0.0,0.0,0.0,0.0,0.0,0.0,0.0,0.0,0.0,0.0,0.0,0.0,0.0,0.0,0.0,0.0,0.0,0.0,0.0,0.0,0.0,0.0,0.0,0.0,0.0,0.0,0.0,0.0,0.0,0.0,0.0,0.0,0.0,0.0,0.0,0.0,0.0,0.0,0.0,0.0,0.0,0.0,0.0,0.0,0.0,0.0,0.0,-3.4466,-3.4675,0.0,-3.4963,-3.4907,-3.498,-3.5069,-3.5136,-3.5223,0.0,0.0,0.0,0.0,0.0,0.0,0.0,0.0,0.0,0.0,0.0,0.0,0.0,0.0,0.0,0.0,0.0,0.0,0.0,0.0,0.0,0.0,0.0,0.0,0.0,0.0,0.0,0.0,0.0,0.0,0.0,0.0,0.0,0.0,0.0,0.0,0.0,0.0,0.0,0.0,0.0,0.0,0.0,0.0,0.0,0.0,0.0,0.0,0.0,0.0,0.0,0.0,0.0,0.0,0.0,0.0,0.0,0.0,0.0,0.0,0.0,0.0,0.0,0.0,0.0,0.0,0.0,0.0,0.0,0.0,0.0,0.0,0.0,0.0,0.0,0.0,0.0,0.0,0.0,0.0,0.0,0.0,0.0,0.0,0.0,0.0,0.0,0.0,0.0,0.0,0.0,0.0,0.0,0.0,0.0,0.0,0.0,0.0,0.0,0.0,0.0,0.0,-3.4508,-3.4464,-3.4591,0.0,-3.4907,-3.4889,-3.4963,-3.5016,-3.5051,-3.507,0.0,0.0,0.0,0.0,0.0,0.0,0.0,0.0,0.0,0.0,0.0,0.0,0.0,0.0,0.0,0.0,0.0,0.0,0.0,0.0,0.0,0.0,0.0,0.0,0.0,0.0,0.0,0.0,0.0,0.0,0.0,0.0,0.0,0.0,0.0,0.0,0.0,0.0,0.0,0.0,0.0,0.0,0.0,0.0,0.0,0.0,0.0,0.0,0.0,0.0,0.0,0.0,0.0,0.0,0.0,0.0,0.0,0.0,0.0,0.0,0.0,0.0,0.0,0.0,0.0,0.0,0.0,0.0,0.0,0.0,0.0,0.0,0.0,0.0,0.0,0.0,0.0,0.0,0.0,0.0,0.0,0.0,0.0,0.0,0.0,0.0,0.0,0.0,0.0,0.0,0.0,0.0,0.0,0.0,0.0,0.0,0.0,0.0,0.0,0.0,0.0,0.0,-3.4195,-3.3961,-3.4005,-3.4464,-3.4526,-3.4651,-3.4908,-3.5108,-3.5176,0.0,0.0,0.0,0.0,0.0,0.0,0.0,0.0,0.0,0.0,0.0,0.0,0.0,0.0,0.0,0.0,0.0,0.0,0.0,0.0,0.0,0.0,0.0,0.0,0.0,0.0,0.0,0.0,0.0,0.0,0.0,0.0,0.0,0.0,0.0,0.0,0.0,0.0,0.0,0.0,0.0,0.0,0.0,0.0,0.0,0.0,0.0,0.0,0.0,0.0,0.0,0.0,0.0,0.0,0.0,0.0,0.0,0.0,0.0,0.0,0.0,0.0,0.0,0.0,0.0,0.0,0.0,0.0,0.0,0.0,0.0,0.0,0.0,0.0,0.0,0.0,0.0,0.0,0.0,0.0,0.0,0.0,0.0,0.0,0.0,0.0,0.0,0.0,0.0,0.0,0.0,0.0,0.0,0.0,0.0,0.0,0.0,0.0,0.0,0.0,0.0,0.0,0.0,-3.425,-3.4825,-3.5323,-3.5603,-3.6292,-3.6786,-3.686,-3.6932,-3.6967,-3.6967,0.0,0.0,0.0,0.0,0.0,0.0,0.0,0.0,0.0,0.0,0.0,0.0,0.0,0.0,0.0,0.0,0.0,0.0,0.0,0.0,0.0,0.0,0.0,0.0,0.0,0.0,0.0,0.0,0.0,0.0,0.0,0.0,0.0,0.0,0.0,0.0,0.0,0.0,0.0,0.0,0.0,0.0,0.0,0.0,0.0,0.0,0.0,0.0,0.0,0.0,0.0,0.0,0.0,0.0,0.0,0.0,0.0,0.0,0.0,0.0,0.0,0.0,0.0,0.0,0.0,0.0,0.0,0.0,0.0,0.0,0.0,0.0,0.0,0.0,0.0,0.0,0.0,0.0,0.0,0.0,0.0,0.0,0.0,0.0,0.0,0.0,0.0,0.0,0.0,0.0,0.0,0.0,0.0,0.0,0.0,0.0,0.0,0.0,0.0,0.0,0.0,0.0,-3.5194,-3.5684,-3.608,-3.6276,-3.6885,-3.7251,-3.7251,-3.7334,-3.7393,-3.7353,0.0,0.0,0.0,0.0,0.0,0.0,0.0,0.0,0.0,0.0,0.0,0.0,0.0,0.0,0.0,0.0,0.0,0.0,0.0,0.0,0.0,0.0,0.0,0.0,0.0,0.0,0.0,0.0,0.0,0.0,0.0,0.0,0.0,0.0,0.0,0.0,0.0,0.0,0.0,0.0,0.0,0.0,0.0,0.0,0.0,0.0,0.0,0.0,0.0,0.0,0.0,0.0,0.0,0.0,0.0,0.0,0.0,0.0,0.0,0.0,0.0,0.0,0.0,0.0,0.0,0.0,0.0,0.0,0.0,0.0,0.0,0.0,0.0,0.0,0.0,0.0,0.0,0.0,0.0,0.0,0.0,0.0,0.0,0.0,0.0,0.0,0.0,0.0,0.0,0.0,0.0,0.0,0.0,0.0,0.0,0.0,0.0,0.0,0.0,0.0,0.0,0.0,-3.6549,-3.6546,-3.6574,-3.676,-3.6868,-3.6905,-3.6905,-3.7068,-3.7141,-3.7007,0.0,0.0,0.0,0.0,0.0,0.0,0.0,0.0,0.0,0.0,0.0,0.0,0.0,0.0,0.0,0.0,0.0,0.0,0.0,0.0,0.0,0.0,0.0,0.0,0.0,0.0,0.0,0.0,0.0,0.0,0.0,0.0,0.0,0.0,0.0,0.0,0.0,0.0,0.0,0.0,0.0,0.0,0.0,0.0,0.0,0.0,0.0,0.0,0.0,0.0,0.0,0.0,0.0,0.0,0.0,0.0,0.0,0.0,0.0,0.0,-2.985,0.0,0.0,0.0,0.0,0.0,0.0,0.0,0.0,0.0,0.0,0.0,0.0,0.0,0.0,0.0,0.0,0.0,0.0,0.0,0.0,0.0,0.0,0.0,0.0,0.0,0.0,0.0,0.0,0.0,0.0,0.0,0.0,0.0,0.0,0.0,0.0,0.0,0.0,0.0,0.0,0.0,-3.6362,-3.727,-3.7897,-3.7928,-3.87,-3.9211,-3.9211,-3.9255,-3.9255,-3.9233,0.0,0.0,0.0,0.0,0.0,0.0,0.0,0.0,0.0,0.0,0.0,0.0,0.0,0.0,0.0,0.0,0.0,0.0,0.0,0.0,0.0,0.0,0.0,0.0,0.0,0.0,0.0,0.0,0.0,0.0,0.0,0.0,0.0,0.0,0.0,0.0,0.0,0.0,0.0,0.0,0.0,0.0,0.0,0.0,0.0,0.0,0.0,0.0,0.0,0.0,0.0,0.0,0.0,0.0,0.0,0.0,0.0,0.0,0.0,0.0,0.0,-3.0372,0.0,0.0,0.0,0.0,0.0,0.0,0.0,0.0,0.0,0.0,0.0,0.0,0.0,0.0,0.0,0.0,0.0,0.0,0.0,0.0,0.0,0.0,0.0,0.0,0.0,0.0,0.0,0.0,0.0,0.0,0.0,0.0,0.0,0.0,0.0,0.0,0.0,0.0,0.0,0.0,-3.7571,-3.8127,-3.8497,-3.8497,-3.9003,-3.9324,-3.9324,-3.9433,-3.9526,-3.9526,-3.9762,0.0,0.0,0.0,0.0,0.0,0.0,0.0,0.0,0.0,0.0,0.0,0.0,0.0,0.0,0.0,0.0,0.0,0.0,0.0,0.0,0.0,0.0,0.0,0.0,0.0,0.0,0.0,0.0,0.0,0.0,0.0,0.0,0.0,0.0,0.0,0.0,0.0,0.0,0.0,0.0,0.0,0.0,0.0,0.0,0.0,0.0,0.0,0.0,0.0,0.0,0.0,0.0,0.0,-3.1384,-3.1458,-3.1604,-3.1604,-3.1678,-3.1806,-3.1806,-3.1659,-3.1427,0.0,0.0,0.0,0.0,0.0,0.0,0.0,0.0,0.0,0.0,0.0,0.0,0.0,0.0,0.0,0.0,0.0,0.0,0.0,0.0,0.0,0.0,0.0,0.0,0.0,-3.5789,-3.6138,0.0,0.0,0.0,0.0,0.0,0.0,0.0,0.0,0.0,0.0,0.0,0.0,-3.8915,-3.8881,-3.878,-3.878,-3.8792,-3.8851,-3.8851,-3.9045,-3.9183,-3.9183,-3.9532,-3.9807,0.0,0.0,0.0,0.0,0.0,0.0,0.0,0.0,0.0,0.0,0.0,0.0,0.0,0.0,0.0,0.0,0.0,0.0,0.0,0.0,0.0,0.0,0.0,0.0,0.0,0.0,0.0,0.0,0.0,0.0,0.0,0.0,-2.8612,-2.8612,0.0,0.0,0.0,0.0,0.0,0.0,0.0,0.0,0.0,0.0,0.0,0.0,0.0,-3.1127,-3.1237,-3.1237,-3.1292,-3.1384,-3.1384,-3.177,-3.2449,-3.2449,-3.2816,-3.3476,-3.3476,0.0,-3.1464,-3.2427,0.0,0.0,0.0,0.0,0.0,0.0,0.0,0.0,0.0,0.0,0.0,0.0,0.0,0.0,0.0,0.0,0.0,0.0,0.0,0.0,0.0,0.0,-3.6138,-3.6138,-3.6211,-3.645,0.0,-3.6615,-3.6156,-3.6266,-3.6303,0.0,0.0,0.0,0.0,0.0,0.0,0.0,-3.8732,-3.8921,-3.9045,-3.9045,-3.9245,-3.9383,-3.9383,-3.9427,-3.9452,-3.9452,-3.9298,-3.9408,-3.9892,-3.9717,0.0,0.0,0.0,0.0,0.0,0.0,0.0,0.0,0.0,0.0,0.0,0.0,0.0,0.0,0.0,0.0,0.0,0.0,0.0,0.0,0.0,0.0,0.0,0.0,0.0,0.0,0.0,0.0,0.0,-2.8388,-2.8518,-2.8326,-2.8569,-2.8919,0.0,0.0,0.0,0.0,0.0,0.0,0.0,0.0,0.0,-3.1384,-3.1232,-3.1328,-3.1792,-3.1792,-3.1929,-3.2195,-3.2565,-3.2847,-3.3012,-3.3195,-3.3476,-3.3807,-3.3807,-3.3403,-3.2805,-3.3257,-3.3456,-3.3474,0.0,0.0,0.0,0.0,-3.3807,-3.3807,-3.3807,-3.41,0.0,0.0,0.0,0.0,0.0,0.0,0.0,0.0,0.0,0.0,0.0,0.0,0.0,-3.6964,-3.7312,-3.7753,-3.8102,-3.79,-3.7661,0.0,-3.7661,-3.7753,-3.8102,0.0,0.0,0.0,0.0,0.0,-3.8707,-3.9197,-3.9545,-3.9545,-4.0071,-4.0457,-4.0616,-4.0757,-4.0929,-4.1113,-4.1161,-4.1275,-4.1527,-4.1423,-4.1238,0.0,0.0,0.0,0.0,0.0,0.0,0.0,0.0,0.0,0.0,0.0,0.0,0.0,0.0,0.0,0.0,0.0,0.0,0.0,0.0,0.0,0.0,0.0,0.0,0.0,0.0,0.0,0.0,-2.8334,-2.8676,-2.8322,-2.8891,-2.9479,0.0,0.0,0.0,0.0,0.0,0.0,-3.1646,-3.1664,-3.1756,-3.1957,-3.1647,-3.1751,-3.2358,-3.2252,-3.2439,-3.289,-3.339,-3.355,-3.3437,-3.368,-3.3807,-3.3807,-3.3807,-3.3917,-3.41,-3.388,-3.3807,-3.3807,-3.3807,-3.3935,-3.4119,-3.4119,-3.4247,-3.4431,-3.4431,-3.4835,-3.5349,-3.5349,0.0,-3.6303,-3.6303,0.0,0.0,0.0,0.0,-3.6909,-3.6909,-3.7349,-3.7808,-3.7808,-3.8267,-3.8707,-3.8707,-3.8707,-3.8707,0.0,-3.8707,-3.8707,-3.8707,0.0,0.0,0.0,0.0,-3.9313,-3.9313,-3.9845,-4.0226,-4.0302,-4.0929,-4.1385,-4.1595,-4.1798,-4.1976,-4.2165,-4.2375,-4.2487,-4.2572,-4.2654,-4.2409,-4.1839,0.0,0.0,0.0,0.0,0.0,0.0,0.0,0.0,0.0,0.0,0.0,0.0,0.0,0.0,0.0,0.0,0.0,0.0,0.0,0.0,0.0,0.0,0.0,0.0,0.0,0.0,0.0,0.0,0.0,-2.8815,-2.9846,0.0,0.0,0.0,0.0,-3.0754,-3.0782,-3.1265,-3.2302,-3.2365,-3.2693,-3.3459,-3.3153,-3.3021,-3.3057,-3.266,-3.2709,-3.3184,-3.3214,-3.3419,-3.378,-3.3788,-3.3807,-3.3807,-3.3807,-3.4229,-3.4862,-3.4119,-3.3807,-3.3807,-3.3807,-3.4284,-3.4935,-3.4935,-3.5477,-3.6156,-3.6156,-3.6193,-3.6229,-3.6229,-3.6266,-3.6303,-3.6303,-3.6817,0.0,0.0,-3.7991,-3.8579,-3.8579,-3.8615,-3.8634,-3.8634,-3.867,-3.8707,-3.8707,-3.8707,-3.8707,0.0,-3.8707,-3.8707,-3.8707,0.0,-3.9827,-3.9827,-4.0487,-4.0983,-4.0983,-4.102,-4.1148,-4.1393,-4.1679,-4.1879,-4.1879,-4.1886,-4.1798,-4.1545,-4.1556,-4.1689,-4.1912,-4.2262,-4.2528,-4.2737,-4.2737,0.0,0.0,0.0,0.0,0.0,0.0,0.0,0.0,0.0,0.0,0.0,0.0,0.0,0.0,0.0,0.0,0.0,0.0,0.0,0.0,0.0,0.0,0.0,0.0,0.0,0.0,0.0,0.0,-2.9225,-2.9822,0.0,0.0,-3.0991,-3.1433,-3.22,-3.2283,-3.2527,-3.314,-3.3186,-3.3313,-3.3587,-3.3068,-3.2784,-3.2784,-3.3182,-3.3397,-3.3348,-3.4594,-3.5119,-3.5034,-3.5282,-3.5404,-3.5404,-3.5404,-3.5569,-3.5807,-3.5532,-3.5404,-3.5404,-3.5404,-3.5587,-3.5844,-3.5844,-3.6028,-3.6303,-3.6303,-3.6633,-3.7147,-3.7679,-3.7845,-3.7845,-3.7845,-3.8046,-3.8267,-3.8267,-3.8487,-3.8707,-3.8707,-3.8707,-3.8707,-3.8707,-3.9093,-3.946,-3.946,-3.9882,-4.0249,-4.0249,-3.9827,-3.9643,-4.0175,-4.0487,-4.0671,-4.0671,-4.0928,-4.1111,-4.1111,-4.1552,-4.1897,-4.1991,-4.2562,-4.3015,-4.3226,-4.3256,-4.3285,-4.3352,-4.3381,-4.3418,-4.3501,-4.3781,-4.3748,-4.3304,-4.3476,-4.3329,0.0,0.0,0.0,0.0,0.0,0.0,0.0,0.0,0.0,0.0,0.0,0.0,0.0,0.0,0.0,0.0,0.0,0.0,0.0,0.0,0.0,0.0,0.0,0.0,0.0,0.0,-3.0056,-2.9658,-3.0265,-3.0832,-3.1185,-3.1426,-3.1903,-3.2809,-3.3126,-3.3445,-3.3891,-3.4193,-3.4261,-3.4105,-3.3568,-3.3195,-3.3073,-3.3493,-3.3682,-3.3644,-3.4952,-3.5515,-3.5447,-3.5693,-3.5933,-3.609,-3.609,-3.6344,-3.6688,-3.6688,-3.6853,-3.7055,-3.6505,-3.6468,-3.6688,-3.6688,-3.6872,-3.711,-3.711,-3.7459,-3.7991,-3.8524,-3.8707,-3.8707,-3.8707,-3.8707,-3.8707,-3.8707,-3.8909,-3.9093,-3.9093,-3.9313,-3.9515,-3.9515,-3.9918,-4.0304,-4.0304,-4.0726,-4.1185,-4.146,-4.0855,-4.0469,-4.102,-4.135,-4.1515,-4.1515,-4.1754,-4.1919,-4.1919,-4.2378,-4.2757,-4.2857,-4.3317,-4.3697,-4.3905,-4.4048,-4.4121,-4.4173,-4.4402,-4.453,-4.4503,-4.4789,-4.4687,-4.4155,-4.4312,-4.4128,-4.3573,0.0,0.0,0.0,0.0,0.0,0.0,0.0,0.0,0.0,0.0,0.0,0.0,0.0,0.0,0.0,0.0,0.0,0.0,0.0,0.0,0.0,0.0,0.0,-2.9144,-3.0036,-3.0554,-3.018,-3.1227,-3.1804,-3.1368,-3.1748,-3.2144,-3.2422,-3.316,-3.391,-3.4563,-3.5354,-3.5555,-3.5098,-3.4764,-3.4394,-3.4002,-3.3632,-3.3714,-3.4159,-3.4177,-3.4466,-3.4978,-3.4978,-3.5272,-3.577,-3.577,-3.6412,-3.7514,-3.7514,-3.7991,-3.8542,-3.6982,-3.6835,-3.7533,-3.7533,-3.8028,-3.8707,-3.8707,-3.8707,-3.8707,-3.8707,-3.8726,-3.8744,-3.8744,-3.8762,-3.8781,-3.8781,-3.935,-3.9937,-3.9937,-4.0524,-4.1111,-4.1111,-4.113,-4.1148,-4.1148,-4.1167,-4.1423,-4.2194,-4.1717,-4.1185,-4.1185,-4.1827,-4.2341,-4.2341,-4.3002,0.0,-4.3497,-4.3497,-4.3615,-4.3942,-4.3873,-4.3791,-4.3791,-4.4084,-4.4084,-4.3712,-4.4336,-4.4719,-4.4667,-4.4991,-4.517,-4.5192,-4.5192,-4.517,-4.5103,0.0,0.0,0.0,0.0,0.0,0.0,0.0,0.0,0.0,0.0,0.0,0.0,0.0,0.0,0.0,0.0,0.0,0.0,0.0,0.0,0.0,0.0,-3.0818,-3.0615,-3.0866,-3.1023,-3.0903,-3.121,-3.1572,-3.1998,-3.2151,-3.2608,-3.3505,-3.3748,-3.408,-3.4482,-3.473,-3.48,-3.4674,-3.4338,-3.412,-3.4019,-3.4519,-3.4841,-3.4961,-3.591,-3.6423,-3.6573,-3.6573,-3.6827,-3.7262,-3.6969,-3.7388,-3.8211,-3.8022,-3.8182,-3.8523,-3.8163,-3.8175,-3.8377,-3.8377,-3.8505,-3.8707,-3.8707,-3.8707,-3.8707,-3.8707,-3.9093,-3.957,-3.957,-3.9974,-4.0451,-4.0451,-4.0616,-4.0781,-4.0781,-4.0946,-4.1111,-4.1111,-4.1552,-4.1974,-4.1974,-4.2433,-4.291,-4.313,-4.2983,-4.2837,-4.2837,-4.302,-4.3167,-4.3167,-4.3351,0.0,-4.3497,-4.3481,-4.3481,-4.3615,-4.3548,-4.3497,-4.3497,-4.3582,-4.3548,-4.3375,-4.3511,-4.3726,-4.3968,-4.4308,-4.4662,-4.5125,-4.5125,-4.5125,0.0,0.0,0.0,0.0,0.0,0.0,0.0,0.0,0.0,0.0,0.0,0.0,0.0,0.0,0.0,0.0,0.0,0.0,0.0,0.0,0.0,0.0,-3.1444,-3.1647,-3.1647,-3.1376,-3.1309,-3.1613,-3.1647,-3.1935,-3.2679,-3.2747,-3.3097,-3.3945,-3.4295,-3.4787,-3.5416,-3.577,-3.6025,-3.6157,-3.6004,-3.5813,-3.5634,-3.6131,-3.6362,-3.6423,-3.7136,-3.7495,-3.7561,-3.7561,-3.783,0.0,-3.8011,-3.8413,-3.9148,-3.878,-3.8957,0.0,0.0,0.0,0.0,0.0,-3.8707,-3.8762,-3.9093,-3.9203,-3.9258,-3.9606,-4.0029,-4.0396,-4.0396,-4.0744,-4.1111,-4.1111,-4.135,-4.1607,-4.1607,-4.1864,-4.2121,-4.2121,-4.2451,-4.28,-4.28,-4.3167,-4.3497,-4.3497,-4.3497,0.0,-4.3497,-4.3497,-4.3497,-4.3463,-4.3481,-4.3428,-4.3375,-4.3322,-4.3322,-4.3393,-4.3305,-4.3287,-4.3287,-4.3375,0.0,0.0,0.0,-4.3609,-4.3804,-4.4143,0.0,0.0,0.0,-4.5038,-4.5033,0.0,0.0,0.0,-4.4832,-4.4794,0.0,0.0,0.0,0.0,0.0,0.0,0.0,0.0,0.0,0.0,0.0,0.0,0.0,0.0,0.0,0.0,-3.185,-3.2307,-3.2391,-3.185,-3.1681,-3.2341,-3.2408,-3.2696,-3.3457,-3.3609,-3.3803,-3.426,-3.5046,-3.5901,-3.6888,0.0,0.0,0.0,0.0,-3.8277,-3.7905,-3.7905,-3.7905,-3.7905,-3.7905,-3.7919,-3.7963,-3.7963,-3.8271,-3.8756,-3.8729,-3.9223,-3.9958,-3.9532,-3.9863,-4.0575,-3.9328,-3.886,-3.8933,-3.8841,-3.886,-3.9043,-3.9772,0.0,0.0,-4.0873,-4.1152,-4.1225,-4.124,-4.128,-4.1354,-4.1387,-4.1882,-4.2433,-4.2433,-4.2947,-4.3497,-4.3497,-4.3497,-4.3497,-4.3497,-4.3497,-4.3497,-4.3497,-4.3479,-4.3497,-4.3497,-4.3479,-4.3463,-4.3411,-4.3376,-4.3412,-4.3396,-4.3396,-4.3433,-4.3595,0.0,0.0,-4.3506,-4.3734,-4.3815,-4.3731,-4.4109,-4.4326,-4.4326,-4.4646,-4.4829,-4.4829,-4.5117,-4.5228,-4.5179,-4.5085,-4.5047,-4.5047,-4.5071,-4.5057,0.0,0.0,0.0,0.0,0.0,0.0,0.0,0.0,0.0,0.0,0.0,0.0,0.0,0.0,0.0,-3.1968,-3.2188,-3.2493,-3.3102,-3.3068,-3.3034,-3.3169,-3.3186,-3.3474,-3.4218,-3.4844,-3.5497,-3.6214,-3.6961,-3.7483,-3.7665,-3.7848,0.0,-3.8014,-3.8031,-3.7984,-3.7905,-3.7905,-3.7905,-3.7905,0.0,0.0,-3.7936,-3.7936,-3.8196,-3.8607,-3.83,-3.8641,-3.9446,-3.9056,-3.9428,-4.0203,-3.9698,-3.9867,-4.0312,-3.9754,-3.9886,-4.0404,-4.0632,-4.072,-4.0756,-4.1005,-4.1486,-4.2001,-4.2051,-4.2457,0.0,-4.3039,-4.3149,-4.3259,-4.3259,-4.3369,-4.3497,-4.3497,-4.3497,-4.3497,-4.3497,-4.3497,-4.3497,-4.3497,-4.3481,-4.3411,-4.3411,-4.3463,-4.3497,-4.3497,-4.3446,-4.3701,-4.4635,-4.457,-4.4878,-4.5908,-4.5951,-4.5904,-4.5904,-4.5951,-4.5951,-4.5815,-4.6134,-4.6334,-4.6334,-4.6655,-4.6833,-4.6833,-4.6904,-4.6929,-4.6923,-4.6259,-4.5937,-4.5918,-4.5242,-4.4919,0.0,0.0,0.0,0.0,0.0,0.0,0.0,0.0,0.0,0.0,0.0,-3.1012,0.0,0.0,-3.1847,-3.2713,-3.3152,-3.3643,-3.4404,-3.4844,-3.4945,-3.4556,-3.4506,-3.4962,-3.6096,-3.6535,-3.6924,-3.7313,-3.7702,-3.8075,-3.843,-3.8447,-3.8616,-3.8988,-3.8988,-3.8988,-3.8988,-3.8988,-3.8988,-3.8988,-3.8988,-3.8988,-3.8988,-3.8988,-3.9149,-3.9337,-3.9132,-3.9431,-4.0053,-4.0123,-4.0426,-4.077,-4.0562,-4.0598,-4.0771,-4.0385,-4.0495,-4.0862,-4.128,-4.1442,-4.1515,-4.1988,-4.2408,-4.2702,-4.2719,-4.3011,-4.3305,-4.3358,-4.3339,-4.3339,-4.3339,-4.3339,-4.3339,-4.3339,-4.3339,-4.3339,-4.3339,-4.3339,-4.3467,-4.387,-4.3925,-4.4035,-4.4437,-4.4547,-4.4382,-4.3962,-4.4218,-4.4638,-4.515,-4.5114,-4.5279,-4.5935,-4.599,-4.5955,-4.5955,-4.5955,-4.5919,-4.5846,-4.6197,-4.6415,-4.6415,-4.688,-4.7145,-4.7145,-4.7326,-4.7397,-4.7397,-4.6999,-4.679,-4.679,-4.6354,-4.5691,0.0,0.0,0.0,0.0,0.0,0.0,0.0,0.0,-3.0783,-3.1079,-3.1113,-3.1372,-3.2176,-3.2352,-3.2647,-3.3491,-3.4235,-3.4979,-3.574,-3.6502,-3.6823,-3.6332,-3.6146,-3.6552,-3.7787,-3.8041,-3.8125,-3.8125,-3.8261,-3.8582,-3.9174,-3.9208,-3.9546,-4.0273,-4.029,-4.0358,-4.051,-4.051,-4.051,-4.051,-4.051,-4.051,-4.051,-4.051,-4.0426,-4.029,-4.0138,-4.0303,-4.0707,-4.1185,-4.1348,-4.134,-4.1298,-4.1169,-4.107,-4.103,-4.1119,-4.1285,-4.1976,-4.2194,-4.2304,-4.2996,-4.3178,-4.3178,-4.3214,-4.3178,-4.3178,-4.3214,-4.3214,-4.3214,-4.3214,-4.3214,-4.3214,-4.3214,-4.3214,-4.3251,-4.3415,-4.3433,-4.3689,-4.4453,-4.4617,-4.4836,-4.5492,-4.569,-4.5508,-4.4669,-4.5106,-4.5539,-4.5649,-4.5667,-4.5721,-4.5945,-4.5963,-4.5963,-4.5963,-4.5963,-4.5963,-4.5963,-4.6287,-4.6469,-4.6469,-4.6978,-4.7309,-4.7368,-4.7664,-4.7818,-4.7889,-4.7719,-4.7643,-4.7643,-4.7472,-4.6676,-3.0526,-3.0526,-3.0526,-3.0526,-3.0526,-3.0526,0.0,0.0,-3.0957,-3.1799,-3.1974,-3.221,-3.3094,-3.3229,-3.3525,-3.4252,-3.5013,-3.5774,-3.6535,-3.7313,-3.799,-3.8548,-3.8041,-3.7719,-3.7889,-3.8481,-3.887,-3.887,-3.9462,-3.9868,-3.9952,-3.9952,-4.029,-4.1052,-4.1085,-4.139,-4.2033,-4.2033,-4.2033,-4.2033,-4.2033,-4.2033,-4.2033,-4.2033,-4.1694,-4.1035,-4.0358,-4.0121,-4.0204,-4.0659,-4.0896,-4.0926,-4.1305,-4.1693,-4.202,-4.185,-4.2141,-4.2684,-4.2923,-4.2977,-4.3014,-4.3142,-4.316,-4.3123,-4.3178,-4.316,-4.3123,-4.3178,-4.3214,-4.3214,-4.3214,-4.3214,-4.3214,-4.3214,-4.3214,-4.3415,-4.4126,-4.429,-4.449,-4.531,-4.5435,-4.5433,-4.5524,-4.5987,-4.6186,-4.5544,-4.5469,-4.5877,-4.6875,-4.6948,-4.7279,-4.8288,-4.8398,-4.8398,-4.8398,-4.8398,-4.8398,-4.8398,-4.8433,-4.8486,-4.8486,-4.8537,-4.8758,-4.9114,-4.9164,-4.9313,-4.9614,-4.8894,-4.8534,-4.8534,-4.7757,-4.7302,-3.0526,-3.0526,0.0,0.0,-3.0526,-3.0642,-3.1199,-3.1341,-3.1583,-3.2555,-3.2664,-3.2925,-3.3854,-3.3989,-3.4334,0.0,-3.6096,-3.6721,-3.7905,-3.8345,-3.8802,-3.9529,-3.936,-3.9174,-3.9174,-3.9445,-3.9631,-3.9631,-4.0307,-4.073,-4.073,-4.1136,-4.1508,-4.183,-4.183,-4.1982,-4.2286,-4.2286,-4.2286,-4.2286,-4.2286,-4.2286,-4.2286,-4.2286,-4.2117,-4.1813,-4.1491,-4.1373,-4.1425,-4.1597,-4.1833,-4.2112,-4.2289,-4.2387,-4.2387,-4.2181,-4.2441,-4.29,-4.2938,-4.2994,-4.2994,-4.3013,-4.3013,-4.2994,-4.3013,-4.3031,-4.2994,-4.3013,-4.3013,-4.3013,-4.3013,-4.3013,-4.3122,-4.3594,-4.3703,-4.3939,-4.4738,-4.4919,-4.5155,-4.5972,-4.6096,-4.6241,-4.6712,-4.7034,-4.7083,-4.6839,-4.6803,-4.6935,-4.7445,-4.746,-4.7627,-4.8117,-4.8153,-4.8153,-4.8153,-4.8383,-4.8421,-4.8153,-4.88,-4.9038,-4.8816,-4.9038,-4.922,-4.9415,-4.9188,-4.9252,-4.9625,-4.9286,-4.9202,-4.9386,-4.9007,-4.8837,-3.0468,0.0,0.0,-3.0775,-3.0824,-3.1007,-3.1838,-3.2064,-3.2307,-3.3242,-3.3349,-3.3567,-3.4587,-3.4846,0.0,-3.6603,-3.7127,-3.777,-3.8836,-3.9174,-3.9478,-4.002,-4.007,-4.0155,-4.0358,-4.0392,-4.0392,-4.0392,-4.1085,-4.1508,-4.1508,-4.1999,-4.2388,-4.2591,-4.2591,-4.2709,-4.2912,-4.2912,-4.2912,-4.2912,-4.2912,-4.2912,-4.2912,-4.2692,-4.2591,-4.2591,-4.2388,-4.2286,-4.2286,-4.2286,-4.2481,-4.2826,-4.2826,-4.2765,-4.2672,-4.2476,-4.2531,-4.2711,-4.2844,-4.2882,-4.2936,-4.3154,-4.3226,-4.3262,-4.348,-4.3552,-4.3552,-4.3552,-4.3552,-4.3552,-4.3552,-4.3552,-4.3697,-4.4277,-4.4421,-4.4639,-4.5454,-4.5635,-4.587,-4.6667,-4.683,-4.7029,-4.7609,-4.7717,-4.7717,-4.7717,-4.7717,-4.7717,-4.7717,-4.7717,-4.7741,-4.7847,-4.7783,-4.7783,-4.7992,-4.819,-4.8229,-4.8032,-4.8694,-4.9023,-4.8816,-4.8971,-4.9206,-4.9415,-4.9104,-4.9137,-4.9537,-4.9537,-4.9655,-4.9898,-4.9898,-4.9898,0.0,0.0,-3.0692,-3.1378,-3.1543,-3.1769,-3.2481,-3.2646,-3.2907,-3.3806,-3.3956,-3.428,-3.5261,-3.603,-3.6565,-3.6772,-3.799,-3.8937,-3.8988,-3.9597,-4.0054,-4.007,-4.007,-4.0358,0.0,-4.117,-4.117,-4.117,-4.1847,-4.2252,-4.2252,-4.2286,-4.2625,-4.3352,-4.3386,-4.3741,-4.4502,-4.4502,-4.4502,-4.4502,-4.4502,-4.4502,-4.4485,-4.3724,-4.3386,-4.3352,-4.2608,-4.2286,-4.2286,-4.2286,-4.2286,-4.2339,-4.2339,-4.2603,-4.2976,-4.2992,-4.2643,-4.2297,-4.275,-4.2882,-4.3009,-4.3806,-4.4059,-4.4204,-4.4983,-4.5236,-4.5236,-4.5236,-4.5236,-4.5236,-4.5236,-4.5236,-4.5236,-4.5254,-4.5254,-4.549,-4.6287,-4.6468,-4.6703,-4.7518,-4.7663,-4.7681,-4.7717,-4.7717,-4.7717,-4.7717,-4.7717,-4.7717,-4.7717,-4.7717,-4.7866,-4.8229,-4.7929,-4.7992,-4.8711,-4.8495,-4.8421,-4.8746,-4.8495,-4.8458,-4.8781,-4.8495,-4.8695,-4.9384,-4.9384,-4.9566,-4.9879,-4.9879,-4.9898,-4.9898,-4.9898,-4.9898,0.0,0.0,-3.1262,-3.1527,-3.1984,-3.2514,-3.3243,-3.3425,-3.3686,-3.4572,-3.5058,-3.5473,-3.5994,-3.6647,-3.73,-3.7982,-3.8487,-3.8925,-3.9514,-3.9732,-3.9816,-3.9816,-3.9935,0.0,0.0,0.0,0.0,-4.188,-4.2608,-4.3031,-4.3031,-4.3538,-4.3927,-4.4181,-4.4198,-4.4316,-4.4587,-4.4587,-4.4587,-4.4587,-4.4587,-4.4587,-4.457,-4.4316,-4.4198,-4.4181,-4.391,-4.3809,-4.3809,-4.3809,-4.3809,-4.3809,-4.3809,-4.3596,-4.3318,-4.3597,-4.3296,-4.2841,-4.3665,-4.3978,-4.4055,-4.4704,-4.4892,-4.4947,-4.5218,-4.5291,-4.5291,-4.5291,-4.5291,-4.5291,-4.5291,-4.5291,-4.5436,-4.5979,-4.6106,-4.6323,-4.712,-4.7301,-4.7391,-4.7663,-4.7717,-4.7717,-4.7717,-4.7717,-4.7717,-4.7717,-4.7717,-4.7717,-4.7717,-4.7717,-4.7847,-4.8267,-4.819,-4.8288,-4.8746,-4.8694,-4.8586,-4.8458,-4.8818,-4.8956,-4.8816,-4.8676,-4.8765,-4.9005,-4.8513,-4.8458,-4.8834,-4.9052,-4.9296,-4.9566,-4.9797,-4.9898,0.0,-3.1576,-3.1752,-3.2266,-3.2746,-3.3276,-3.4005,-3.4187,-3.4366,-3.4894,-3.5328,-3.566,-3.5916,-3.6669,-3.7503,-3.8237,-3.8707,-3.921,-3.9782,-3.9729,-3.9677,-3.9677,-3.9798,0.0,0.0,0.0,0.0,-4.2642,-4.3403,-4.3826,-4.3826,-4.4243,-4.4497,-4.4497,-4.4457,-4.44,-4.44,-4.44,-4.44,-4.44,-4.44,-4.4457,-4.4497,-4.4497,-4.4514,-4.4587,-4.4587,-4.4587,-4.4587,-4.4587,-4.4587,-4.4587,-4.4587,-4.4265,-4.3881,-4.4156,-4.4007,-4.3597,-4.4067,-4.4343,-4.4589,-4.5252,-4.5585,-4.578,-4.6069,-4.616,-4.616,-4.616,-4.616,-4.616,-4.616,-4.616,-4.6287,-4.6812,-4.6939,-4.7083,-4.7591,-4.7717,-4.7717,-4.7717,-4.7717,-4.7717,-4.7717,-4.7717,-4.7717,-4.7717,-4.7717,-4.7717,-4.7717,-4.7717,-4.7847,-4.8267,-4.8151,-4.8288,-4.8746,-4.8676,-4.8586,-4.8495,-4.8818,-4.8937,-4.8816,-4.8676,-4.8694,-4.8816,-4.8327,-4.8231,-4.8458,-4.8676,-4.8919,-4.9188,-4.9408,-4.9588,-3.1341,-3.1659,-3.2067,-3.3442,-3.3822,-3.4038,-3.4733,-3.4899,-3.4899,-3.4899,-3.4932,-3.5013,0.0,0.0,-3.7336,-3.7534,-3.8706,-3.9644,-3.9677,-3.9677,-3.9677,0.0,0.0,0.0,0.0,0.0,0.0,-4.3365,0.0,-4.457,-4.457,-4.4367,-4.431,-4.431,-4.4155,-4.4097,-4.4097,-4.4097,-4.4097,-4.4097,-4.4097,-4.4155,-4.431,-4.431,-4.4367,-4.457,-4.457,-4.457,-4.457,-4.457,-4.457,-4.457,-4.457,-4.457,-4.4587,-4.4587,-4.4587,-4.4517,-4.3947,-4.4135,-4.4724,-4.549,-4.6126,-4.6703,-4.7482,-4.7717,-4.7717,-4.7717,-4.7717,-4.7717,-4.7717,-4.7717,-4.7717,-4.7717,-4.7717,-4.7717,-4.7717,-4.7717,-4.7717,-4.7717,-4.7717,-4.7717,-4.7717,-4.7717,-4.7717,-4.7717,-4.7717,-4.7717,-4.7717,-4.7717,-4.7847,-4.8267,-4.797,-4.8014,-4.8746,-4.8495,-4.8439,-4.8746,-4.8458,-4.8421,-4.8746,-4.8458,-4.8458,-4.8781,-4.8746,-4.8746,-4.8746,-4.8746,-4.8781,-4.8781,-4.8781,-4.9005,-3.2172,-3.2812,-3.3326,-3.3707,-3.4203,-3.4667,-3.4849,-3.4899,-3.4899,-3.4899,-3.5346,-3.5727,0.0,0.0,0.0,-3.807,-3.8384,0.0,-3.947,-3.9484,0.0,0.0,0.0,-4.0721,-4.1694,-4.2334,0.0,0.0,-4.4112,-4.4229,-4.4229,-4.4155,-4.4155,-4.4155,-4.4097,-4.4097,-4.4097,-4.4097,-4.4097,-4.4097,-4.4097,-4.4097,-4.4155,-4.4155,-4.4155,-4.4229,-4.4229,-4.4229,-4.4229,-4.4229,-4.427,-4.4367,-4.4367,-4.444,-4.4587,-4.4587,-4.4587,-4.4575,-4.4426,-4.4957,-4.5794,-4.6397,-4.6952,-4.7446,-4.7645,-4.7717,-4.7717,-4.7717,-4.7717,-4.7717,-4.7717,-4.7717,-4.7717,-4.7717,-4.7717,-4.7717,-4.7717,-4.7717,-4.7717,-4.7717,-4.7717,-4.7717,-4.7717,-4.7717,-4.7717,-4.7717,-4.7717,-4.7717,-4.7717,-4.7717,-4.7847,-4.8267,-4.819,-4.8307,-4.8746,-4.8495,-4.8344,-4.8439,-4.8344,-4.8344,-4.8439,-4.8344,-4.8344,-4.8439,-4.8132,-4.7992,-4.7992,-4.8288,-4.8439,-4.8421,-4.8676,-4.885,-3.2497,-3.3226,-3.3872,-3.4203,-3.4584,-3.4899,-3.4899,-3.4899,-3.48,-3.4485,-3.4998,0.0,0.0,0.0,0.0,0.0,0.0,0.0,-3.9279,-3.9325,-3.9272,0.0,-4.0043,0.0,-4.1599,-4.2389,-4.3122,0.0,-4.4056,-4.4097,-4.4097,-4.4039,-4.3998,-4.3998,-4.3923,-4.3864,-4.3864,-4.3864,-4.3864,-4.3864,-4.3864,-4.3923,-4.3998,-4.3998,-4.4039,-4.4097,0.0,-4.4097,-4.4097,-4.4097,-4.4155,-4.4196,-4.4196,-4.427,-4.44,-4.4457,-4.444,-4.4497,-4.457,-4.5089,-4.58,-4.6098,-4.6548,-4.6999,-4.6999,-4.7151,-4.7363,-4.7363,-4.7363,-4.7407,-4.7657,-4.7511,-4.7407,-4.7657,-4.7717,-4.7717,-4.7717,-4.7717,-4.7717,-4.7717,-4.7717,-4.7717,-4.7717,-4.7717,-4.7717,-4.7717,-4.7717,-4.7717,-4.7717,-4.7717,-4.7783,-4.801,-4.805,-4.8111,-4.8289,-4.8132,-4.805,-4.805,-4.805,-4.805,-4.805,-4.805,-4.805,-4.805,-4.7824,-4.7717,-4.7717,-4.7929,-4.805,-4.805,-4.8174,-4.8309,-3.2497,-3.3226,-3.3972,-3.4717,-3.4899,-3.4899,-3.4899,-3.4899,-3.4717,-3.4071,0.0,0.0,-3.4038,0.0,-3.6009,-3.6953,0.0,-3.8361,-3.9156,-3.9272,-3.9272,-3.9272,-4.0017,-4.0818,-4.1616,-4.2244,-4.3007,-4.3789,-4.3998,-4.4039,-4.4039,-4.3939,-4.3839,-4.3839,-4.3687,-4.3628,-4.3628,-4.3628,-4.3628,-4.3628,-4.3628,-4.3687,-4.3839,-4.3839,-4.3939,-4.4039,0.0,0.0,-4.4039,-4.4039,-4.4039,-4.4039,-4.4039,-4.4097,-4.4097,-4.4253,-4.4253,-4.431,-4.4457,-4.4797,-4.5161,-4.525,-4.5648,-4.6098,-4.6098,-4.6406,-4.6799,-4.6799,-4.6799,-4.6908,-4.745,-4.7258,-4.7062,-4.7554,-4.7717,-4.7717,-4.7717,-4.7717,-4.7717,-4.7717,-4.7717,-4.7717,-4.7717,-4.7717,-4.7717,-4.7717,-4.7717,-4.7717,-4.7717,-4.7717,-4.7717,-4.7717,-4.7717,-4.7717,-4.7717,-4.7717,-4.7717,-4.7717,-4.7717,-4.7717,-4.7717,-4.7717,-4.7717,-4.7717,-4.7717,-4.7717,-4.7717,-4.7657,-4.7657,-4.7657,-4.7554,-4.7645,-3.2497,-3.3226,-3.3972,-3.4717,-3.4899,-3.4899,-3.4899,-3.4899,0.0,0.0,0.0,-3.4137,-3.4618,-3.4419,0.0,-3.6787,0.0,0.0,0.0,0.0,-3.9272,0.0,0.0,0.0,0.0,0.0,0.0,0.0,0.0,-4.3687,-4.3687,-4.3687,-4.3628,-4.3628,-4.3628,-4.3628,-4.3628,-4.3628,-4.3628,-4.3628,-4.3628,-4.3628,-4.3628,-4.3628,-4.3687,-4.3687,-4.3687,0.0,-4.3687,-4.3687,-4.3747,-4.3956,-4.3956,-4.3998,-4.4097,-4.4155,-4.4155,-4.4155,-4.4155,-4.427,-4.4406,-4.5108,-4.5648,-4.6098,-4.6098,-4.6147,-4.6262,-4.6262,-4.6262,-4.6358,-4.6908,-4.6954,-4.7062,-4.7554,-4.7717,-4.7717,-4.7717,-4.7717,-4.7717,-4.7717,-4.7717,-4.7717,-4.7717,-4.7717,-4.7717,-4.7717,-4.7717,-4.7717,-4.7717,-4.7717,-4.7717,-4.7717,-4.7717,-4.7717,-4.7717,-4.7717,-4.7717,-4.7717,-4.7717,-4.7717,-4.7717,-4.7717,-4.7717,-4.7717,-4.7717,-4.7717,-4.7717,-4.7615,-4.7511,-4.7511,-4.7407,-4.7389,-3.2497,-3.3226,-3.3972,-3.4717,-3.4899,-3.4899,-3.4899,0.0,0.0,0.0,0.0,-3.4352,-3.4319,0.0,0.0,0.0,0.0,0.0,0.0,0.0,0.0,0.0,0.0,0.0,0.0,0.0,0.0,0.0,0.0,0.0,-4.3628,-4.3628,-4.3628,-4.3628,-4.3628,-4.3628,-4.3628,-4.3628,-4.3628,-4.3628,-4.3628,-4.3628,-4.3628,-4.3628,-4.3628,-4.3628,-4.3628,0.0,-4.3628,-4.3628,-4.3628,-4.3763,-4.3763,-4.3747,-4.3864,-4.3939,-4.3998,-4.3998,-4.4114,-4.4155,-4.4253,-4.4652,-4.4947,-4.5161,-4.5284,-4.5477,-4.5699,-4.5699,-4.5699,-4.5817,-4.6358,-4.6262,-4.6196,-4.6753,-4.7062,-4.7363,-4.7657,-4.7717,-4.7717,-4.7717,-4.7717,-4.7717,-4.7717,-4.7717,-4.7717,-4.7717,-4.7717,-4.7717,-4.7717,-4.7717,-4.7717,-4.7717,-4.7717,-4.7717,-4.7717,-4.7717,-4.7717,-4.7717,-4.7717,-4.7717,-4.7717,-4.7717,-4.7717,-4.7717,-4.7717,-4.7675,-4.7615,-4.7511,-4.745,-4.7407,-4.7276,-4.7249,-3.2448,-3.311,-3.3773,-3.4667,-3.4899,-3.4899,-3.4899,-3.4899,0.0,0.0,-3.4369,-3.4535,-3.4104,0.0,0.0,0.0,0.0,0.0,0.0,0.0,0.0,0.0,0.0,0.0,0.0,0.0,0.0,0.0,0.0,0.0,-4.3628,-4.3628,-4.3628,-4.3628,-4.3628,-4.3628,-4.3628,-4.3628,-4.3628,-4.3628,-4.3628,-4.3628,-4.3628,-4.3628,-4.3628,-4.3628,-4.3628,0.0,0.0,-4.3628,-4.3628,-4.3628,-4.3628,-4.3628,-4.3628,-4.3763,-4.3839,-4.3839,-4.3981,-4.408,-4.4138,-4.4253,-4.431,-4.4367,-4.457,-4.4852,-4.5178,-4.5178,-4.5178,-4.5267,-4.58,-4.5699,-4.5614,-4.6147,-4.6595,-4.7017,-4.745,-4.7615,-4.7717,-4.7717,-4.7717,-4.7717,-4.7717,-4.7717,-4.7717,-4.7717,-4.7717,-4.7717,-4.7717,-4.7717,-4.7717,-4.7717,-4.7717,-4.7717,-4.7717,-4.7717,-4.7717,-4.7717,-4.7717,-4.7675,-4.7657,-4.7657,-4.7657,-4.7615,-4.7615,-4.7554,-4.7468,-4.7425,-4.7381,-4.7276,-4.7223,-4.7151,-3.2315,-3.2729,-3.3127,-3.4551,-3.4899,-3.4899,-3.4899,0.0,0.0,0.0,-3.4319,-3.4087,-3.4684,-3.4303,0.0,0.0,0.0,0.0,0.0,0.0,0.0,0.0,0.0,0.0,0.0,0.0,0.0,0.0,0.0,0.0,-4.3628,-4.3628,-4.3628,-4.3628,-4.3628,-4.3628,-4.3628,-4.3628,-4.3628,-4.3628,-4.3628,-4.3628,-4.3628,-4.3628,-4.3628,-4.3628,-4.3628,0.0,0.0,-4.3628,-4.3628,-4.3628,-4.3628,-4.3628,-4.3628,-4.3628,-4.3628,-4.3628,-4.3628,-4.3628,-4.373,-4.4039,-4.4327,-4.457,-4.457,-4.4626,-4.4665,-4.4665,-4.4665,-4.4759,-4.5267,-4.5699,-4.6165,-4.6707,-4.6863,-4.6908,-4.6954,-4.7363,-4.7717,-4.7717,-4.7717,-4.7717,-4.7717,-4.7717,-4.7717,-4.7717,-4.7717,-4.7717,-4.7717,-4.7717,-4.7717,-4.7717,-4.7717,-4.7717,-4.7717,-4.7717,-4.7717,-4.7717,-4.7717,-4.7657,-4.7511,-4.7511,-4.7468,-4.7363,-4.7363,-4.732,-4.7302,-4.7267,-4.7223,-4.7196,-4.7088,-4.7043,-3.2415,-3.3011,-3.3607,-3.4634,-3.4899,-3.4899,-3.4899,0.0,0.0,-3.4851,-3.4412,-3.4153,-3.4785,-3.4651,-3.48,0.0,0.0,0.0,0.0,0.0,0.0,0.0,0.0,0.0,0.0,0.0,0.0,0.0,0.0,0.0,-4.3628,-4.3628,-4.3628,-4.3628,-4.3628,-4.3628,-4.3628,-4.3628,-4.3628,-4.3628,-4.3628,-4.3628,-4.3628,-4.3628,-4.3628,-4.3628,-4.3628,0.0,0.0,-4.3628,-4.3628,-4.3628,-4.3628,-4.3628,-4.3628,-4.3628,-4.3628,-4.3628,-4.3628,-4.3687,-4.3822,-4.3939,-4.4114,-4.4344,-4.4514,-4.4587,-4.4587,-4.4587,-4.4587,-4.4626,-4.4852,-4.5052,-4.5354,-4.5817,-4.5968,-4.6098,-4.6753,-4.7062,-4.7302,-4.7615,-4.7615,-4.7572,-4.7572,-4.7511,-4.7468,-4.7468,-4.7468,-4.7468,-4.7468,-4.7468,-4.7468,-4.7468,-4.7511,-4.7615,-4.7699,-4.7554,-4.7511,-4.7554,-4.7511,-4.7468,-4.7363,-4.7363,-4.7363,-4.7302,-4.7302,-4.7276,-4.7249,-4.7223,-4.7133,-4.7088,-4.7025,-4.6998,-3.2043,-3.3027,-3.3925,-3.451,-3.4643,-3.4643,0.0,0.0,0.0,-3.4546,-3.4234,-3.4068,-3.4787,-3.4626,-3.4759,-3.5827,0.0,0.0,0.0,0.0,0.0,0.0,0.0,0.0,0.0,0.0,0.0,0.0,0.0,0.0,0.0,-4.3628,-4.3628,-4.3628,-4.3628,-4.3628,-4.3628,-4.3628,-4.3628,-4.3628,-4.3628,-4.3628,-4.3628,-4.3628,-4.3628,-4.3628,0.0,0.0,0.0,-4.3628,-4.3628,-4.3628,-4.3628,-4.3628,-4.3628,-4.3628,-4.3628,-4.3628,-4.3628,-4.3687,-4.3839,-4.3898,-4.3939,-4.4114,-4.4344,-4.4457,-4.4514,-4.4514,-4.457,-4.4626,-4.4759,-4.472,-4.472,-4.5108,-4.525,-4.5459,-4.6358,-4.666,-4.6954,-4.7468,-4.7511,-4.745,-4.745,-4.7363,-4.7302,-4.7302,-4.7302,-4.7302,-4.7302,-4.7302,-4.7302,-4.7302,-4.7381,-4.7486,-4.7554,-4.7407,-4.7363,-4.7407,-4.7363,-4.7276,-4.7276,-4.7276,-4.7232,-4.7232,-4.7232,-4.7205,-4.7133,-4.7133,-4.7088,-4.6998,-4.6998,-4.6998,-3.1069,-3.2417,-3.3862,-3.4071,-3.4101,-3.4101,0.0,0.0,0.0,-3.3984,-3.3646,-3.3563,-3.4675,-3.3986,-3.3854,-3.5712,-3.6151,0.0,0.0,0.0,0.0,0.0,0.0,0.0,0.0,0.0,0.0,0.0,0.0,0.0,0.0,-4.3628,-4.3628,-4.3628,-4.3628,-4.3628,-4.3628,-4.3628,-4.3628,-4.3628,-4.3628,-4.3628,-4.3628,-4.3628,-4.3628,0.0,0.0,0.0,0.0,-4.3628,-4.3628,-4.3628,-4.3628,-4.3628,-4.3628,-4.3628,-4.3628,-4.3628,-4.3628,-4.3628,-4.3628,-4.3839,-4.3898,-4.3956,-4.4039,-4.4212,-4.431,-4.431,-4.444,-4.472,-4.5161,-4.4944,-4.4665,-4.5018,-4.5108,-4.5197,-4.5597,-4.6098,-4.666,-4.7214,-4.7302,-4.7302,-4.7302,-4.7302,-4.7302,-4.7302,-4.7302,-4.7302,-4.7302,-4.7302,-4.7302,-4.7302,-4.7249,-4.7223,-4.732,-4.7302,-4.7302,-4.7302,-4.7302,-4.7276,-4.7178,-4.7196,-4.7133,-4.6998,-4.698,-4.698,-4.6998,-4.6998,-4.6998,-4.6998,-4.6998,-4.6998,-3.1098,-3.2217,-3.3393,-3.3463,-3.3475,-3.3475,-3.3475,0.0,0.0,-3.3371,-3.3055,-3.2895,-3.3614,-3.3821,-3.4361,-3.5877,-3.6216,0.0,0.0,0.0,0.0,0.0,0.0,0.0,0.0,0.0,0.0,0.0,0.0,0.0,0.0,-4.3372,-4.3628,-4.3628,-4.3628,-4.3628,-4.3628,-4.3628,-4.3628,-4.3628,-4.3628,-4.3628,-4.3628,-4.3628,0.0,0.0,0.0,0.0,0.0,-4.3628,-4.3628,-4.3628,-4.3628,-4.3628,-4.3628,-4.3628,-4.3628,-4.3628,-4.3628,-4.3628,-4.3628,-4.3687,-4.3687,-4.3687,-4.3747,-4.3981,-4.4138,-4.4138,-4.4212,-4.427,-4.4463,-4.4367,-4.427,-4.4406,-4.4406,-4.4558,-4.5054,-4.5545,-4.6098,-4.666,-4.6989,-4.7205,-4.7205,-4.716,-4.7116,-4.7116,-4.7116,-4.7116,-4.7116,-4.7116,-4.7116,-4.7116,-4.7088,-4.7116,-4.7276,-4.7187,-4.7116,-4.7223,-4.716,-4.707,-4.7043,-4.7043,-4.7043,-4.6998,-4.6998,-4.6998,-4.6998,-4.6998,-4.6998,-4.6998,-4.6998,-4.6998,0.0,-3.1831,-3.3145,-3.2949,-3.2895,0.0,0.0,0.0,0.0,-3.2788,-3.2422,-3.2348,-3.3385,-3.3591,-3.4145,-3.5966,-3.6099,0.0,0.0,0.0,0.0,0.0,0.0,0.0,0.0,0.0,0.0,0.0,0.0,0.0,0.0,-4.3372,-4.3628,-4.3628,-4.3628,-4.3628,-4.3628,-4.3628,-4.3628,-4.3628,-4.3628,-4.3628,-4.3628,-4.3628,0.0,0.0,0.0,0.0,0.0,-4.3628,-4.3628,-4.3628,-4.3628,-4.3628,-4.3628,-4.3628,-4.3628,-4.3628,-4.3628,-4.3628,-4.3628,-4.3628,-4.3628,-4.3628,-4.3628,-4.3805,-4.4056,-4.4114,-4.4097,-4.4097,-4.4097,-4.4097,-4.4114,-4.4056,-4.3998,-4.4155,-4.4652,-4.5161,-4.5716,-4.628,-4.6778,-4.7133,-4.7133,-4.7043,-4.6998,-4.6998,-4.6998,-4.6998,-4.6998,-4.6998,-4.6998,-4.6998,-4.6998,-4.707,-4.7187,-4.707,-4.7043,-4.7133,-4.7043,-4.6998,-4.6998,-4.6998,-4.6998,-4.6998,-4.6998,-4.6998,-4.6998,-4.6998,-4.6998,-4.6998,-4.6998,-4.6998,0.0,0.0,0.0,0.0,0.0,0.0,0.0,0.0,0.0,0.0,0.0,0.0,-3.3763,-3.3272,-3.3394,-3.5849,-3.5789,0.0,0.0,0.0,0.0,0.0,0.0,0.0,0.0,0.0,0.0,0.0,0.0,0.0,0.0,-4.3432,-4.3432,-4.3432,-4.3432,-4.3492,-4.3628,-4.3628,-4.3628,-4.3628,-4.3628,-4.3628,-4.3628,-4.3628,0.0,0.0,0.0,0.0,0.0,-4.3628,-4.3628,-4.3628,-4.3628,-4.3628,-4.3628,-4.3628,-4.3628,-4.3628,-4.3628,-4.3628,-4.3628,-4.3628,-4.3628,-4.3628,-4.3628,-4.3704,-4.3898,-4.4056,-4.4039,-4.4039,-4.4039,-4.4039,-4.4039,-4.3898,-4.3898,-4.3998,-4.435,-4.4855,-4.5425,-4.597,-4.6525,-4.6888,-4.6888,-4.6934,-4.6934,-4.6934,-4.6934,-4.6952,-4.6998,-4.6998,-4.6934,-4.6998,-4.6998,-4.6998,-4.6998,-4.6998,-4.6998,-4.6998,-4.6998,-4.6998,-4.6998,-4.6998,-4.6998,-4.6998,-4.6998,-4.6998,-4.6998,-4.6998,-4.6998,-4.6998,-4.6998,-4.6998,-3.0163,0.0,-3.1894,-3.1739,-3.1697,0.0,0.0,0.0,0.0,0.0,0.0,0.0,0.0,0.0,0.0,0.0,0.0,0.0,0.0,0.0,0.0,0.0,0.0,0.0,0.0,0.0,0.0,0.0,0.0,0.0,0.0,-4.1722,-4.1981,-4.1981,-4.1981,-4.2506,-4.3568,-4.3628,-4.3628,-4.3628,-4.3628,-4.3628,-4.3628,-4.3628,0.0,0.0,0.0,0.0,-4.3628,-4.3628,-4.3628,-4.3628,-4.3628,-4.3628,-4.3628,-4.3628,-4.3628,-4.3628,-4.3628,-4.3628,-4.3628,-4.3628,-4.3628,-4.3628,-4.3628,-4.3628,-4.3687,-4.3687,-4.3747,-4.3747,-4.3747,-4.3747,-4.3687,-4.3687,-4.3687,-4.3687,-4.3789,-4.4276,-4.4708,-4.4872,-4.532,-4.5683,-4.5683,-4.6052,-4.6381,-4.6381,-4.6381,-4.6542,-4.6952,-4.6637,-4.6542,-4.6952,-4.6998,-4.6998,-4.6998,-4.6998,-4.6998,-4.6998,-4.6998,-4.6998,-4.6998,-4.6998,-4.6998,-4.6998,-4.6998,-4.6998,-4.6998,-4.6998,-4.6998,-4.6998,-4.6998,-4.6998,-3.0717,-3.124,-3.1482,-3.1482,-3.1482,-3.1482,0.0,0.0,0.0,0.0,0.0,0.0,0.0,0.0,0.0,0.0,0.0,0.0,0.0,0.0,0.0,0.0,0.0,0.0,0.0,0.0,0.0,0.0,0.0,0.0,0.0,-4.1327,-4.1525,-4.1525,-4.1525,-4.2045,-4.3113,-4.3174,-4.3312,-4.3628,-4.3628,-4.3628,-4.3628,-4.3628,-4.3628,0.0,0.0,0.0,-4.3628,-4.3628,-4.3628,-4.3628,-4.3628,-4.3628,-4.3628,-4.3628,-4.3628,-4.3628,-4.3628,-4.3628,-4.3628,-4.3628,-4.3628,-4.3628,-4.3628,-4.3628,-4.3628,-4.3628,-4.3628,-4.3628,-4.3628,-4.3628,-4.3628,-4.3628,-4.3628,-4.3628,-4.3628,-4.4064,-4.4502,-4.4502,-4.4947,-4.5303,-4.5303,-4.5802,-4.6137,-4.5852,-4.602,-4.6284,-4.659,-4.6381,-4.6398,-4.6934,-4.6998,-4.6998,-4.6998,-4.6998,-4.6998,-4.6998,-4.6998,-4.6998,-4.6998,-4.6998,-4.6998,-4.6998,-4.6998,-4.6998,-4.6998,-4.6998,-4.6998,-4.6998,-4.6998,-4.6998,-3.118,-3.1482,-3.1482,-3.1482,-3.1482,-3.1482,-3.1482,0.0,0.0,0.0,0.0,0.0,0.0,0.0,0.0,0.0,0.0,0.0,0.0,0.0,0.0,0.0,0.0,0.0,0.0,0.0,0.0,0.0,0.0,0.0,0.0,-4.1194,-4.1194,-4.1194,-4.1194,-4.1525,-4.2253,-4.238,-4.271,-4.3295,-4.3372,-4.3432,-4.3432,-4.3568,-4.3628,0.0,0.0,0.0,-4.3628,-4.3628,-4.3628,-4.3628,-4.3628,-4.3628,-4.3628,-4.3628,-4.3628,-4.3628,-4.3628,-4.3628,-4.3628,-4.3628,-4.3628,-4.3628,-4.3628,-4.3628,-4.3628,-4.3628,-4.3628,-4.3628,-4.3628,-4.3628,-4.3628,-4.3628,-4.3628,-4.3628,-4.3628,-4.4006,-4.4333,-4.4333,-4.4746,-4.5037,-4.5037,-4.5546,-4.5768,-4.5267,-4.5597,-4.597,-4.607,-4.607,-4.6266,-4.6842,-4.6934,-4.6998,-4.6998,-4.6998,-4.6998,-4.6998,-4.6998,-4.6998,-4.6998,-4.6998,-4.6934,-4.6888,-4.6934,-4.6934,-4.6888,-4.6934,-4.6998,-4.6998,-4.6998,-4.6998,-3.118,-3.1482,-3.1482,-3.1482,-3.1482,-3.1482,-3.1482,0.0,0.0,0.0,0.0,0.0,0.0,0.0,0.0,0.0,0.0,0.0,0.0,0.0,0.0,0.0,0.0,0.0,0.0,0.0,0.0,0.0,0.0,0.0,0.0,0.0,-3.9753,-3.9753,-3.9753,-4.0076,-4.0805,-4.1393,-4.1722,-4.1852,-4.2443,-4.2772,-4.2772,-4.3355,-4.3628,0.0,0.0,-4.3628,-4.3628,-4.3628,-4.3628,-4.3628,-4.3628,-4.3628,-4.3628,-4.3628,-4.3628,-4.3628,-4.3628,-4.3628,-4.3628,-4.3628,-4.3628,-4.3628,-4.3628,-4.3628,-4.3628,-4.3628,-4.3628,-4.3628,-4.3628,-4.3628,-4.3628,-4.3628,-4.3628,-4.3628,-4.3628,-4.3671,-4.373,-4.373,-4.3772,-4.3889,-4.3889,-4.439,-4.4708,-4.4652,-4.4708,-4.491,-4.5372,-4.5425,-4.5683,-4.6284,-4.6731,-4.6998,-4.6998,-4.6998,-4.6998,-4.6998,-4.6998,-4.6998,-4.6998,-4.6998,-4.6795,-4.6332,-4.6795,-4.6795,-4.6332,-4.6795,-4.6998,-4.6998,-4.6998,-4.6998,-3.127,-3.1482,-3.1482,-3.1482,-3.1482,-3.1482,-3.1482,0.0,0.0,0.0,0.0,0.0,0.0,0.0,0.0,0.0,0.0,0.0,0.0,0.0,0.0,0.0,0.0,0.0,0.0,0.0,0.0,0.0,0.0,0.0,0.0,0.0,-3.9424,-3.9424,-3.9424,-3.9553,-3.9879,-4.02,-4.0737,-4.1525,-4.1852,-4.1997,-4.1997,-4.2301,-4.271,-4.3035,0.0,-4.3235,-4.3628,-4.3628,-4.3628,-4.3628,-4.3628,-4.3628,-4.3628,-4.3628,-4.3628,-4.3628,-4.3628,-4.3628,-4.3628,-4.3628,-4.3628,-4.3628,-4.3628,-4.3628,-4.3628,-4.3628,-4.3628,-4.3628,-4.3628,-4.3628,-4.3628,-4.3628,-4.3628,-4.3628,-4.3628,-4.3628,-4.3628,-4.3628,-4.3628,-4.3628,-4.3628,-4.4121,-4.439,-4.4064,-4.4541,-4.5001,-4.525,-4.558,-4.5903,-4.6186,-4.6429,-4.6429,-4.6102,-4.6363,-4.6684,-4.698,-4.6998,-4.6998,-4.6998,-4.6731,-4.6447,-4.6186,-4.6102,-4.6102,-4.6186,-4.6447,-4.6749,-4.6998,-4.6998,-4.6998,-3.1287,-3.1482,-3.1482,-3.1482,0.0,-3.1482,-3.1482,0.0,0.0,0.0,0.0,0.0,0.0,0.0,0.0,0.0,0.0,0.0,0.0,0.0,0.0,0.0,0.0,0.0,0.0,0.0,0.0,0.0,0.0,0.0,0.0,0.0,-3.9424,-3.9424,-3.9424,-3.9424,-3.9424,-3.9424,-3.995,-4.0992,-4.1194,-4.126,-4.126,-4.1459,-4.1787,-4.2317,-4.2317,-4.271,-4.3372,-4.3372,-4.3432,-4.3628,-4.3628,-4.3628,-4.3628,-4.3628,-4.3628,-4.3628,-4.3628,-4.3628,-4.3628,-4.3628,-4.3628,-4.3628,-4.3628,-4.3628,-4.3628,-4.3628,-4.3628,-4.3628,-4.3628,-4.3628,-4.3628,-4.3628,-4.3628,-4.3628,-4.3628,-4.3628,-4.3628,-4.3628,-4.3628,-4.3628,-4.3628,-4.4006,-4.4121,-4.3687,-4.4468,-4.5108,-4.5108,-4.5649,-4.597,-4.597,-4.597,-4.5852,-4.5528,-4.5903,-4.6429,-4.6998,-4.6998,-4.6998,-4.6998,-4.6477,-4.6137,-4.597,-4.5528,-4.5528,-4.597,-4.6137,-4.6495,-4.6998,-4.6888,-4.6824,-3.1287,-3.1482,-3.1482,-3.1482,-3.1482,0.0,-3.1482,-3.2003,0.0,0.0,0.0,0.0,0.0,0.0,0.0,0.0,0.0,0.0,0.0,0.0,0.0,0.0,0.0,0.0,0.0,0.0,0.0,0.0,0.0,0.0,0.0,0.0,0.0,-3.9424,-3.9424,-3.9424,-3.9424,-3.9424,-3.9409,-3.9553,-4.0216,-4.0547,-4.0615,-4.1194,-4.1525,-4.1591,-4.1591,-4.1981,-4.2648,-4.2648,-4.3035,-4.3628,-4.3628,-4.3628,-4.3628,-4.3628,-4.3628,-4.3628,-4.3628,-4.3628,-4.3628,-4.3628,-4.3628,-4.3628,-4.3628,-4.3628,-4.3628,-4.3628,-4.3628,-4.3628,-4.3628,-4.3628,-4.3628,-4.3628,-4.3628,-4.3628,-4.3628,-4.3628,-4.3628,-4.3628,-4.3628,-4.3628,-4.3628,-4.3628,-4.3628,-4.3628,-4.4179,-4.4558,-4.4558,-4.5001,-4.5355,-4.5355,-4.5355,-4.558,-4.607,-4.6186,-4.6429,-4.6998,-4.6998,-4.6998,-4.6998,-4.6477,-4.592,-4.5372,-4.5303,-4.5303,-4.5355,-4.592,-4.6495,-4.6998,-4.6495,-4.6235,-3.1407,-3.1482,-3.1482,-3.1482,-3.1839,0.0,0.0,0.0,0.0,0.0,0.0,0.0,0.0,0.0,0.0,0.0,0.0,0.0,0.0,0.0,0.0,0.0,0.0,0.0,0.0,0.0,0.0,0.0,0.0,0.0,0.0,0.0,0.0,-3.9424,-3.9424,-3.9424,-3.9424,-3.9424,-3.9424,-3.9424,-3.9681,-3.9824,-3.9809,-4.0076,-4.0478,-4.0873,-4.0873,-4.126,-4.1917,-4.1917,-4.2317,-4.3035,-4.3432,-4.3628,-4.3628,-4.3628,-4.3628,-4.3628,-4.3628,-4.3628,-4.3628,-4.3628,-4.3628,-4.3628,-4.3628,-4.3628,-4.3628,-4.3628,-4.3628,-4.3628,-4.3628,-4.3628,-4.3628,-4.3628,-4.3628,-4.3628,-4.3628,-4.3628,-4.3628,-4.3628,-4.3628,-4.3628,-4.3628,-4.3628,-4.373,-4.4121,-4.4635,-4.5108,-4.5511,-4.6003,-4.6102,-4.5355,-4.4674,-4.4635,-4.558,-4.5631,-4.6052,-4.6934,-4.6998,-4.6842,-4.6542,-4.5953,-4.5372,-4.4801,-4.4412,-4.4429,-4.4801,-4.5018,-4.5597,-4.6495,-4.5903,-4.5852,-3.1482,-3.1482,-3.1482,0.0,0.0,0.0,0.0,0.0,0.0,0.0,0.0,0.0,0.0,0.0,0.0,0.0,0.0,0.0,0.0,0.0,0.0,0.0,0.0,0.0,0.0,0.0,0.0,0.0,0.0,0.0,0.0,0.0,0.0,0.0,-3.9424,-3.9424,-3.9424,-3.9424,-3.9424,-3.9424,-3.9424,-3.9424,-3.9424,-3.9424,-3.9681,-4.0146,-4.0146,-4.0547,-4.1194,-4.1194,-4.1591,-4.2317,-4.3035,-4.3295,-4.3295,-4.3492,-4.3628,-4.3628,-4.3628,-4.3568,-4.3568,-4.3568,-4.3492,-4.3432,-4.3432,-4.3432,-4.3432,-4.3432,-4.3492,-4.3492,-4.3432,-4.3492,-4.3628,-4.3628,-4.3628,-4.3628,-4.3628,-4.3628,-4.3628,-4.3628,-4.3628,-4.3628,-4.3628,-4.3628,-4.3789,-4.439,-4.4964,-4.5528,-4.6137,-4.6363,-4.6035,-4.4892,-4.4047,-4.4047,-4.5197,-4.5303,-4.5784,-4.6934,-4.6998,-4.6731,-4.6235,-4.5631,-4.5054,-4.4502,-4.3906,-4.3906,-4.4502,-4.4502,-4.4981,-4.5903,-4.532,-4.5267,-3.1482,-3.1482,-3.1482,0.0,0.0,0.0,0.0,0.0,0.0,0.0,0.0,0.0,0.0,0.0,0.0,0.0,0.0,0.0,0.0,0.0,0.0,0.0,0.0,0.0,0.0,0.0,0.0,0.0,0.0,0.0,0.0,0.0,0.0,0.0,-3.9424,-3.9424,-3.9424,-3.9424,-3.9424,-3.9424,-3.9424,-3.9424,-3.9424,-3.9424,-3.9424,-3.9424,-3.9424,-3.9824,-4.0478,-4.0478,-4.0873,-4.1591,-4.2317,-4.2585,-4.2648,-4.3355,-4.3568,-4.3628,-4.3628,-4.3509,-4.3372,-4.3372,-4.3235,-4.3113,-4.3113,-4.3113,-4.3113,-4.3113,-4.3235,-4.3372,-4.3174,-4.3372,-4.3628,-4.3628,-4.3628,-4.3628,-4.3628,-4.3628,-4.3628,-4.3628,-4.3628,-4.3628,-4.3628,-4.3628,-4.3789,-4.439,-4.4964,-4.5528,-4.6137,-4.5683,-4.4892,-4.373,-4.3628,-4.4047,-4.5197,-4.5303,-4.5784,-4.6934,-4.6998,-4.6749,-4.6235,-4.5631,-4.5054,-4.4502,-4.3889,-4.3889,-4.4502,-4.4502,-4.4746,-4.525,-4.4763,-4.4502,-3.1482,-3.1482,0.0,0.0,0.0,0.0,0.0,0.0,0.0,0.0,0.0,0.0,0.0,0.0,0.0,0.0,0.0,0.0,0.0,0.0,0.0,0.0,0.0,0.0,0.0,0.0,0.0,0.0,0.0,0.0,0.0,0.0,0.0,0.0,-3.9424,-3.9424,-3.9424,-3.9424,-3.9424,-3.9424,-3.9265,-3.9265,-3.9424,-3.9424,-3.9337,-3.9177,-3.9337,-3.9394,-3.9349,-3.9834,-4.017,-4.0432,-4.1131,-4.1723,-4.2205,-4.2411,-4.2818,-4.3235,-4.3235,-4.3235,-4.3174,-4.3174,-4.3174,-4.3113,-4.3113,-4.3113,-4.3113,-4.3113,-4.3174,-4.3174,-4.3113,-4.3174,-4.3235,-4.3235,-4.3372,-4.3432,-4.3432,-4.3432,-4.3432,-4.3432,-4.3372,-4.3235,-4.3235,-4.3535,-4.3948,-4.4541,-4.5035,-4.5459,-4.5683,-4.5037,-4.4378,-4.3956,-4.3654,-4.3814,-4.4801,-4.5054,-4.5631,-4.6637,-4.6888,-4.6572,-4.5631,-4.5425,-4.4838,-4.3906,-4.3671,-4.3671,-4.3848,-4.3848,-4.4162,-4.4691,-4.4121,-4.4121,-3.1482,0.0,0.0,0.0,0.0,0.0,0.0,0.0,0.0,0.0,0.0,0.0,0.0,0.0,0.0,0.0,0.0,0.0,0.0,0.0,0.0,0.0,0.0,0.0,0.0,0.0,0.0,0.0,0.0,0.0,0.0,0.0,0.0,0.0,-3.9424,-3.9424,-3.9424,-3.9337,-3.9265,-3.9265,-3.9104,-3.9031,-3.9177,-3.9177,-3.9104,-3.9017,-3.9104,-3.9017,-3.8855,-3.9277,-3.9478,-3.955,-4.0263,-4.0795,-4.1213,-4.1788,-4.2269,-4.2678,-4.2974,-4.3052,-4.3007,-4.3007,-4.299,-4.2929,-4.2929,-4.2929,-4.2929,-4.2929,-4.2929,-4.299,-4.2929,-4.2929,-4.3052,-4.3113,-4.3174,-4.3312,-4.3312,-4.3312,-4.3312,-4.3312,-4.3174,-4.3174,-4.3339,-4.3578,-4.4047,-4.4872,-4.5407,-4.5684,-4.5494,-4.4838,-4.4299,-4.3956,-4.3519,-4.3578,-4.4356,-4.4729,-4.5267,-4.6102,-4.6477,-4.6332,-4.5546,-4.5372,-4.4783,-4.3628,-4.3628,-4.3628,-4.3628,-4.3628,-4.3789,-4.4121,-4.3789,-4.3789,0.0,0.0,0.0,0.0,0.0,0.0,0.0,0.0,0.0,0.0,0.0,0.0,0.0,0.0,0.0,0.0,0.0,0.0,0.0,0.0,0.0,0.0,0.0,0.0,0.0,0.0,0.0,0.0,0.0,0.0,0.0,0.0,0.0,0.0,-3.9424,-3.9424,-3.9424,-3.9192,-3.9104,0.0,-3.887,-3.8782,-3.8782,-3.8782,-3.8782,-3.8782,-3.8782,-3.8782,-3.8782,-3.8708,-3.8708,-3.8782,-3.9478,-3.9819,-4.0085,-4.1396,-4.1933,-4.2141,-4.2834,-4.299,-4.2899,-4.2899,-4.2759,-4.2634,-4.2634,-4.2634,-4.2634,-4.2634,-4.2696,-4.2837,-4.2634,-4.2775,-4.2883,-4.3052,-4.3052,-4.3113,-4.3113,-4.3113,-4.3113,-4.3113,-4.3052,-4.3157,-4.3654,-4.3772,-4.4162,-4.5159,-4.5717,-4.5819,-4.5266,-4.4818,-4.4316,-4.3756,-4.3355,-4.3323,-4.3939,-4.4395,-4.491,-4.5511,-4.5953,-4.6038,-4.5735,-4.5425,-4.4729,-4.3671,-4.3628,-4.3568,-4.3628,-4.3568,-4.3568,-4.3628,-4.3628,-4.3628,0.0,0.0,0.0,0.0,0.0,0.0,0.0,0.0,0.0,0.0,0.0,0.0,0.0,0.0,0.0,0.0,0.0,0.0,0.0,0.0,0.0,0.0,0.0,0.0,0.0,0.0,0.0,0.0,0.0,0.0,0.0,0.0,0.0,-3.9424,-3.9424,-3.9424,-3.9424,-3.9337,-3.9337,0.0,-3.8943,-3.8782,-3.8782,-3.8782,-3.8782,-3.8782,-3.8501,-3.8427,-3.859,-3.8427,-3.8352,-3.8352,-3.8486,-3.9247,-4.0347,-4.0607,-4.1509,-4.2476,-4.268,-4.2696,-4.2634,-4.2634,-4.2634,-4.2634,-4.2634,-4.2634,-4.2634,-4.2634,-4.2634,-4.2634,-4.2634,-4.2634,-4.2696,-4.268,-4.2821,-4.2945,-4.2945,-4.2945,-4.2945,-4.2945,-4.2821,-4.2743,-4.2867,-4.3459,-4.4145,-4.4763,-4.4635,-4.4282,-4.3823,-4.3459,-4.3174,-4.2867,-4.2883,-4.3235,-4.3956,-4.4282,-4.4838,-4.5666,-4.6038,-4.587,-4.5125,-4.491,-4.4652,-4.4333,-4.3578,-4.3372,-4.3628,-4.3492,-4.3509,-4.3628,-4.3628,-4.3628,0.0,0.0,0.0,0.0,0.0,0.0,0.0,0.0,0.0,0.0,0.0,0.0,0.0,0.0,0.0,0.0,0.0,0.0,0.0,0.0,0.0,0.0,0.0,0.0,0.0,0.0,0.0,0.0,0.0,0.0,0.0,-3.9424,-3.9424,-3.9424,-3.9424,-3.9424,-3.9424,-3.9192,-3.9104,-3.9104,-3.8723,-3.8501,-3.8501,-3.8501,-3.8501,-3.8501,-3.8277,-3.8277,-3.8366,-3.8202,-3.8202,-3.8202,-3.8202,-3.8694,-3.9376,-3.9733,-4.0554,-4.1591,-4.1948,-4.2285,-4.2634,-4.2634,-4.2634,-4.2634,-4.2634,-4.2634,-4.2634,-4.2634,-4.2634,-4.2634,-4.2634,-4.2634,-4.2634,-4.2634,-4.2696,-4.2775,-4.2775,-4.2775,-4.2775,-4.2775,-4.2696,-4.268,-4.2912,-4.3722,-4.4485,-4.4944,-4.4835,-4.4614,-4.4373,-4.3798,-4.3399,-4.3262,-4.299,-4.2929,-4.3279,-4.3647,-4.4209,-4.5108,-4.5477,-4.57,-4.5683,-4.5072,-4.4485,-4.4064,-4.3595,-4.3432,-4.3628,-4.3509,-4.3509,-4.3628,-4.3628,-4.3628,0.0,0.0,0.0,0.0,0.0,0.0,0.0,0.0,0.0,0.0,0.0,0.0,0.0,0.0,0.0,0.0,0.0,0.0,0.0,0.0,0.0,0.0,0.0,0.0,0.0,0.0,0.0,0.0,0.0,0.0,-3.9424,-3.9424,-3.9424,-3.9424,-3.9337,-3.9337,-3.9337,-3.8943,-3.8782,-3.8797,-3.8427,-3.8202,-3.8202,-3.8202,-3.8202,-3.8202,-3.8202,-3.8202,-3.8202,-3.8202,-3.8202,-3.8202,-3.8202,-3.8277,-3.8472,-3.9103,-3.9859,-4.069,-4.1311,-4.2013,-4.2634,-4.2634,-4.2634,-4.2634,-4.2634,-4.2634,-4.2634,-4.2634,-4.2634,-4.2634,-4.2634,-4.2634,-4.2634,-4.2634,-4.2634,-4.2634,-4.2634,-4.2634,-4.2634,-4.2634,-4.2634,-4.2789,-4.3323,-4.4013,-4.4597,-4.5086,-4.5086,-4.5015,-4.5015,-4.4316,-4.3798,-4.3839,-4.3096,-4.2696,-4.2805,-4.3202,-4.3764,-4.449,-4.4964,-4.5494,-4.6284,-4.5337,-4.4485,-4.3831,-4.3611,-4.3552,-4.3628,-4.3568,-4.3568,-4.3628,-4.3628,-4.3628,0.0,0.0,0.0,0.0,0.0,0.0,0.0,0.0,0.0,0.0,0.0,0.0,0.0,0.0,0.0,0.0,0.0,0.0,0.0,0.0,0.0,0.0,0.0,0.0,0.0,0.0,0.0,0.0,0.0,0.0,-3.9424,-3.9424,-3.9424,-3.9424,-3.9265,-3.9104,-3.9104,-3.8943,-3.8782,-3.8782,-3.859,-3.8366,-3.8202,-3.8202,-3.8202,-3.8202,-3.8202,-3.8202,-3.8202,-3.8202,-3.8202,-3.8202,-3.8202,-3.862,-3.9175,-3.9247,-4.0139,-4.1393,-4.1459,-4.2013,-4.2634,-4.2634,-4.2634,-4.2634,-4.2634,-4.2634,-4.2634,-4.2634,-4.2634,-4.2634,-4.2634,-4.2634,-4.2634,-4.2634,-4.2634,-4.2634,-4.2634,-4.2634,-4.2634,-4.2634,-4.2634,-4.2867,-4.3739,-4.3663,-4.3663,-4.4145,-4.3839,-4.3604,-4.3604,-4.3141,-4.2912,-4.3366,-4.2912,-4.2929,-4.3739,-4.3856,-4.4316,-4.5194,-4.53,-4.53,-4.5247,-4.5283,-4.5142,-4.4746,-4.368,-4.3295,-4.3628,-4.3492,-4.3509,-4.3628,-4.3628,-4.3628,0.0,0.0,0.0,0.0,0.0,0.0,0.0,0.0,0.0,0.0,0.0,0.0,0.0,0.0,0.0,0.0,0.0,0.0,0.0,0.0,0.0,0.0,0.0,0.0,0.0,0.0,0.0,0.0,0.0,-3.9424,-3.9424,-3.9424,-3.9337,-3.9265,-3.9177,-3.9031,-3.8943,-3.8723,-3.8575,-3.8486,-3.8352,-3.8277,-3.8202,-3.8202,-3.8202,-3.8202,-3.8202,-3.8202,-3.8202,-3.8202,-3.8202,-3.8202,-3.8202,-3.8412,-3.8752,-3.9175,-3.9999,-4.0961,-4.1393,-4.2013,-4.2634,-4.2634,-4.2634,-4.2634,-4.2634,-4.2634,-4.2634,-4.2634,-4.2634,-4.2634,-4.2634,-4.2634,-4.2634,-4.2634,-4.2634,-4.2634,-4.2634,-4.2634,-4.2634,-4.2634,-4.2634,-4.2789,-4.3486,-4.3426,-4.3545,-4.4299,-4.4243,-4.4054,-4.4054,-4.3898,-4.3663,-4.3306,-4.3141,-4.3019,-4.3218,-4.3218,-4.3545,-4.4395,-4.4451,-4.4674,-4.5232,-4.5089,-4.5035,-4.5196,-4.4316,-4.3989,-4.4121,-4.373,-4.3568,-4.3628,-4.3509,-4.3509,0.0,0.0,0.0,0.0,0.0,0.0,0.0,0.0,0.0,0.0,0.0,0.0,0.0,0.0,0.0,0.0,0.0,0.0,0.0,0.0,0.0,0.0,0.0,0.0,0.0,0.0,0.0,0.0,0.0,-3.9424,-3.9424,-3.9337,-3.925,-3.9104,-3.9031,-3.8885,-3.8723,-3.8501,-3.8366,-3.8202,-3.8202,-3.8202,-3.8202,-3.8202,-3.8202,-3.8202,-3.8202,-3.8202,-3.8202,-3.8202,-3.8202,-3.8202,-3.8202,-3.8202,-3.8277,-3.903,-3.9804,-4.0485,-4.1245,-4.2013,-4.2634,-4.2634,-4.2634,-4.2634,-4.2634,-4.2634,-4.2634,-4.2634,-4.2634,-4.2634,-4.2634,-4.2634,-4.2634,-4.2634,-4.2634,-4.2634,-4.2634,-4.2634,-4.2634,-4.2634,-4.2634,-4.2743,-4.3185,-4.3185,-4.3366,-4.4243,-4.4243,-4.4186,-4.4356,-4.4243,-4.3956,-4.3366,-4.3185,-4.3019,-4.2805,-4.2805,-4.3125,-4.3905,-4.3963,-4.4418,-4.5425,-4.5178,-4.5142,-4.5477,-4.4998,-4.4614,-4.4333,-4.3889,-4.3611,-4.3492,-4.3372,-4.3312,0.0,0.0,0.0,0.0,0.0,0.0,0.0,0.0,0.0,0.0,0.0,0.0,0.0,0.0,0.0,0.0,0.0,0.0,0.0,0.0,0.0,0.0,0.0,0.0,0.0,0.0,0.0,0.0,0.0,-3.9424,-3.9424,-3.9192,-3.9104,-3.9104,-3.8738,-3.8516,-3.8516,-3.8277,-3.8202,-3.8202,-3.8202,-3.8202,-3.8202,-3.8202,-3.8202,-3.8202,-3.8202,-3.8202,-3.8202,-3.8202,-3.8202,-3.8202,-3.8202,-3.8202,-3.8277,-3.903,-3.9804,-4.0485,-4.1245,-4.2013,-4.2634,-4.2634,-4.2634,-4.2634,-4.2634,-4.2634,-4.2634,-4.2634,-4.2634,-4.2634,-4.2634,-4.2634,-4.2634,-4.2634,-4.2634,-4.2634,-4.2634,-4.2634,-4.2634,-4.2634,-4.2634,-4.2743,-4.3185,-4.2912,-4.2789,-4.3306,-4.2958,-4.2851,-4.3306,-4.2974,-4.2851,-4.3246,-4.2912,-4.2805,-4.3246,-4.3246,-4.3663,-4.458,-4.4652,-4.4889,-4.5353,-4.5649,-4.5735,-4.5786,-4.5477,-4.4818,-4.3831,-4.3814,-4.3595,-4.3113,-4.3113,-4.3113,0.0,0.0,0.0,0.0,0.0,0.0,0.0,0.0,0.0,0.0,0.0,0.0,0.0,0.0,0.0,0.0,0.0,0.0,0.0,0.0,0.0,0.0,0.0,0.0,0.0,0.0,0.0,0.0,0.0,0.0,-4.06,-4.0531,-4.0393,-4.013,-3.9975,-3.9621,-3.9045,-3.8972,-3.8694,-3.8202,-3.8202,-3.8202,-3.8202,-3.8202,-3.8202,-3.8202,-3.8202,-3.8202,-3.8202,-3.8202,-3.8202,-3.8202,-3.8202,-3.8202,-3.8337,-3.9591,-4.0139,-4.0554,-4.1803,-4.2365,-4.2634,-4.2634,-4.2634,-4.2634,-4.2634,-4.2634,-4.2634,-4.2634,-4.2634,-4.2634,-4.2634,-4.2634,-4.2634,-4.2634,-4.2634,-4.2634,-4.2634,-4.2634,-4.2634,-4.2634,-4.2634,-4.2618,-4.2789,-4.268,-4.2743,-4.3246,-4.3141,-4.308,-4.3246,-4.3443,-4.3323,-4.2912,-4.2974,-4.3035,-4.2851,-4.2851,-4.2958,-4.3323,-4.3383,-4.3545,-4.4013,-4.4152,-4.4339,-4.4635,-4.4524,-4.4485,-4.4373,-4.3989,-4.3595,-4.3113,-4.3007,-4.2945,0.0,0.0,0.0,0.0,0.0,0.0,0.0,0.0,0.0,0.0,0.0,0.0,0.0,0.0,0.0,0.0,0.0,0.0,0.0,0.0,0.0,0.0,0.0,0.0,0.0,0.0,0.0,0.0,0.0,0.0,-4.088,-4.1017,-4.0925,-4.0585,-4.0585,-4.0293,-3.9662,-3.9662,-3.9448,-3.8972,-3.8694,-3.8546,-3.8546,-3.8337,-3.8202,-3.8202,-3.8202,-3.8202,-3.8202,-3.8202,-3.8202,-3.8202,-3.8202,-3.8202,-3.8412,-3.9859,-4.0416,-4.0622,-4.2077,-4.2634,-4.2634,-4.2634,-4.2634,-4.2634,-4.2634,-4.2634,-4.2634,-4.2634,-4.2634,-4.2634,-4.2634,-4.2634,-4.2634,-4.2634,-4.2634,-4.2634,-4.2634,-4.2634,-4.2634,-4.2634,-4.2634,-4.2634,-4.2634,-4.2634,-4.268,-4.3019,-4.308,-4.308,-4.308,-4.3323,-4.3323,-4.2851,-4.2958,-4.3019,-4.2851,-4.268,-4.268,-4.2851,-4.2851,-4.3035,-4.3545,-4.3545,-4.3663,-4.3972,-4.403,-4.4088,-4.4243,-4.3972,-4.3638,-4.3141,-4.3052,-4.2945,0.0,0.0,0.0,0.0,0.0,0.0,0.0,0.0,0.0,0.0,0.0,0.0,0.0,0.0,0.0,0.0,0.0,0.0,0.0,0.0,0.0,0.0,0.0,0.0,0.0,0.0,0.0,0.0,0.0,-4.0175,-4.006,-4.0484,-4.0638,-4.0485,-4.0485,-4.0485,-4.0416,-4.0416,-4.0416,-4.0416,-3.9647,-3.9305,-3.932,-3.8546,-3.8202,-3.8202,-3.8202,-3.8202,-3.8202,-3.8202,-3.8202,-3.8202,-3.8202,-3.8202,-3.8412,-3.9859,-4.0416,-4.0622,-4.2077,-4.2634,-4.2634,-4.2634,-4.2634,-4.2634,-4.2634,-4.2634,-4.2634,-4.2634,-4.2634,-4.2634,-4.2634,-4.2634,-4.2634,-4.2634,-4.2634,-4.2634,-4.2634,-4.2634,-4.2634,-4.2634,-4.2634,-4.2634,-4.2634,-4.2634,-4.2634,-4.2634,-4.2634,-4.2634,-4.2634,-4.2634,-4.2789,-4.3246,-4.2851,-4.2789,-4.3246,-4.2851,-4.2789,-4.3246,-4.3246,-4.3486,-4.3914,-4.3972,-4.3972,-4.3972,-4.3972,-4.3722,-4.3306,-4.3781,-4.3739,-4.3306,-4.3306,-4.308,-3.2437,0.0,0.0,0.0,0.0,0.0,0.0,0.0,0.0,0.0,0.0,0.0,0.0,0.0,0.0,0.0,0.0,0.0,0.0,0.0,0.0,0.0,0.0,0.0,0.0,0.0,0.0,0.0,-4.0446,-4.0832,-4.0578,-4.1098,-4.1565,-4.1997,-4.1997,-4.1738,-4.1178,-4.1178,-4.0909,-4.0416,-4.0209,-4.0069,-4.0069,-3.9305,-3.8972,-3.8972,-3.8412,-3.8202,-3.8202,-3.8202,-3.8202,-3.8202,-3.8202,-3.856,-3.9103,-4.0069,-4.0758,-4.1311,-4.2285,-4.2634,-4.2634,-4.2634,-4.2634,-4.2634,-4.2634,-4.2634,-4.2634,-4.2634,-4.2634,-4.2634,-4.2634,-4.2634,-4.2634,-4.2634,-4.2634,-4.2634,-4.2634,-4.2634,-4.2634,-4.2634,-4.2634,-4.2634,-4.2634,-4.2634,-4.2634,-4.2634,-4.2634,-4.2634,-4.2634,-4.2634,-4.2618,-4.2805,-4.268,-4.2618,-4.2805,-4.268,-4.2634,-4.2805,-4.2789,-4.2851,-4.2974,-4.2974,-4.2974,-4.2974,-4.2974,-4.3096,-4.3306,-4.3426,-4.3426,-4.3306,-4.3306,-4.3246,0.0,0.0,0.0,0.0,0.0,0.0,0.0,-3.7838,0.0,0.0,0.0,0.0,0.0,0.0,0.0,0.0,0.0,0.0,0.0,0.0,0.0,0.0,0.0,0.0,0.0,0.0,0.0,-3.9145,-4.0056,-4.0598,-4.0691,-4.0961,-4.1452,-4.2164,-4.2197,-4.2122,-4.1933,-4.1948,-4.1738,-4.1311,-4.1044,-4.069,-4.0347,-3.9662,-3.9103,-3.8826,-3.8412,-3.8202,-3.8202,-3.8546,-3.8486,-3.8202,-3.8546,-3.8899,-3.9448,-4.0485,-4.1111,-4.1607,-4.2349,-4.2634,-4.2634,-4.2634,-4.2634,-4.2634,-4.2634,-4.2634,-4.2634,-4.2634,-4.2634,-4.2634,-4.2634,-4.2634,-4.2634,-4.2634,-4.2634,-4.2634,-4.2634,-4.2634,-4.2634,-4.2634,-4.2634,-4.2634,-4.2634,-4.2634,-4.2634,-4.2634,-4.2634,-4.2634,-4.2634,-4.2634,-4.268,-4.2851,-4.2743,-4.268,-4.2851,-4.268,-4.2634,-4.2634,-4.2634,-4.2634,-4.2634,-4.2634,-4.2634,-4.2634,-4.2634,-4.2743,-4.3019,-4.3185,-4.3306,-4.3306,-4.308,-4.3019,0.0,0.0,0.0,0.0,0.0,0.0,-3.8678,-3.8511,-3.8286,0.0,0.0,0.0,0.0,0.0,0.0,0.0,0.0,0.0,0.0,0.0,0.0,0.0,0.0,0.0,0.0,-3.7519,-3.7828,-3.77,-3.8875,-3.9771,-4.0351,-4.0383,-4.0707,-4.1419,-4.1452,-4.1792,-4.2504,-4.252,-4.2553,-4.2571,-4.1948,-4.1245,-4.0622,-3.9859,-3.9175,-3.8546,-3.8472,-3.8412,-3.8486,-3.9175,-3.8972,-3.8412,-3.9103,-3.9448,-3.9733,-4.1044,-4.1525,-4.1738,-4.2349,-4.2634,-4.2634,-4.2634,-4.2634,-4.2634,-4.2634,-4.2634,-4.2634,-4.2634,-4.2634,-4.2634,-4.2634,-4.2634,-4.2634,-4.2634,-4.2634,-4.2634,-4.2634,-4.2634,-4.2634,-4.2634,-4.2634,-4.2634,-4.2634,-4.2634,-4.2634,-4.2634,-4.2634,-4.2634,-4.2634,-4.2634,-4.2743,-4.3202,-4.2851,-4.2805,-4.3202,-4.2851,-4.2634,-4.2634,-4.2634,-4.2634,-4.2634,-4.2634,-4.2634,-4.2634,-4.2634,-4.2634,-4.2634,-4.308,-4.3306,-4.3306,-4.2851,-4.268,0.0,0.0,0.0,0.0,0.0,0.0,-3.8694,-3.8399,-3.8116,0.0,0.0,0.0,0.0,0.0,0.0,0.0,0.0,0.0,0.0,0.0,0.0,0.0,0.0,0.0,0.0,-3.7519,-3.7828,-3.77,-3.8293,-3.8983,-3.9638,-3.9687,-3.9994,-4.0675,-4.0707,-4.1047,-4.1776,-4.1792,-4.2067,-4.2634,-4.2429,-4.2285,-4.2158,-4.1393,-4.0977,-4.0826,-4.0209,-3.9999,-3.9999,-4.0139,-3.9733,-3.9175,-3.9859,-4.0554,-4.1111,-4.1393,-4.1868,-4.2429,-4.2555,-4.2634,-4.2634,-4.2634,-4.2634,-4.2634,-4.2634,-4.2634,-4.2634,-4.2634,-4.2634,-4.2634,-4.2634,-4.2634,-4.2634,-4.2634,-4.2634,-4.2634,-4.2634,-4.2634,-4.2634,-4.2634,-4.2634,-4.2634,-4.2634,-4.2634,-4.2634,-4.2634,-4.2634,-4.2634,-4.2634,-4.2634,-4.2634,-4.2743,-4.2618,-4.2634,-4.2743,-4.2618,-4.2634,-4.2634,-4.2634,-4.2634,-4.2634,-4.2634,-4.2634,-4.2634,-4.2634,-4.2634,-4.2634,-4.308,-4.3306,-4.3306,-4.3202,-4.3125,0.0,0.0,0.0,-3.6039,0.0,0.0,0.0,-3.8488,-3.8359,0.0,0.0,0.0,0.0,0.0,0.0,0.0,0.0,0.0,0.0,0.0,0.0,0.0,0.0,0.0,0.0,-3.796,-3.8148,-3.8049,-3.8278,-3.8553,-3.8926,-3.8942,-3.9266,-3.9962,-3.9978,-4.0318,-4.1031,-4.1387,-4.1743,-4.2116,-4.2456,-4.2429,-4.2013,-4.1672,-4.1311,-4.0894,-4.0554,-4.0416,-4.0416,-4.0826,-4.0758,-4.0416,-4.0826,-4.1178,-4.1525,-4.1933,-4.2285,-4.2634,-4.2634,-4.2634,-4.2634,-4.2634,-4.2634,-4.2634,-4.2634,-4.2634,-4.2634,-4.2634,-4.2634,-4.2634,-4.2634,-4.2634,-4.2634,-4.2634,-4.2634,-4.2634,-4.2634,-4.2634,-4.2634,-4.2634,-4.2634,-4.2634,-4.2634,-4.2634,-4.2634,-4.2634,-4.2634,-4.2634,-4.2634,-4.2634,-4.2634,-4.2634,-4.2634,-4.2634,-4.2634,-4.2634,-4.2634,-4.2634,-4.2634,-4.2634,-4.2634,-4.2634,-4.2634,-4.2634,-4.2634,-4.2634,-4.2634,-4.2867,-4.2974,-4.2974,-4.2974,-4.2974,0.0,0.0,0.0,0.0,0.0,-3.8464,0.0,0.0,0.0,-3.8711,0.0,0.0,0.0,0.0,0.0,0.0,0.0,0.0,0.0,0.0,0.0,0.0,0.0,0.0,0.0,-3.8391,-3.8391,-3.8391,-3.8391,-3.8391,-3.8391,-3.8391,-3.8667,-3.925,-3.9282,-3.9606,-4.0286,-4.0885,-4.1241,-4.1371,-4.2083,-4.2093,-4.1531,-4.1658,-4.1393,-4.0826,-4.0826,-4.0826,-4.0894,-4.1459,-4.1722,-4.1722,-4.1722,-4.1722,-4.1803,-4.2365,-4.2634,-4.2634,-4.2634,-4.2634,-4.2634,-4.2634,-4.2634,-4.2634,-4.2634,-4.2634,-4.2634,-4.2634,-4.2634,-4.2634,-4.2634,-4.2634,-4.2634,-4.2634,-4.2634,-4.2634,-4.2634,-4.2634,-4.2634,-4.2634,-4.2634,-4.2634,-4.2634,-4.2634,-4.2634,-4.2634,-4.2634,-4.2634,-4.2634,-4.2634,-4.2634,-4.2634,-4.2634,-4.2634,-4.2634,-4.2634,-4.2634,-4.2634,-4.2634,-4.2634,-4.2634,-4.2634,-4.2634,-4.2634,-4.2634,-4.2634,-4.2634,-4.2634,-4.2634,-4.2634,-4.2634,-4.2634,0.0,0.0,0.0,0.0,-3.7809,0.0,0.0,0.0,-3.8464,-3.8448,0.0,0.0,0.0,0.0,0.0,0.0,0.0,0.0,0.0,0.0,0.0,0.0,0.0,0.0,0.0,0.0,-3.8391,-3.8391,-3.8391,-3.8391,-3.8391,-3.8391,-3.844,-3.8521,-3.8521,-3.8861,-3.959,-3.9671,-4.0027,-4.0626,-4.1338,-4.1695,-4.1588,-4.2201,-4.2429,-4.2349,-4.2349,-4.2349,-4.2365,-4.2429,-4.2492,-4.2492,-4.2492,-4.2492,-4.2492,-4.2571,-4.2634,-4.2634,-4.2634,-4.2634,-4.2634,-4.2634,-4.2634,-4.2634,-4.2634,-4.2634,-4.2634,-4.2634,-4.2634,-4.2634,-4.2634,-4.2634,-4.2634,-4.2634,-4.2634,-4.2634,-4.2634,-4.2634,-4.2634,-4.2634,-4.2634,-4.2634,-4.2634,-4.2634,-4.2634,-4.2634,-4.2634,-4.2634,-4.2634,-4.2634,-4.2634,-4.2634,-4.2634,-4.2634,-4.2634,-4.2634,-4.2634,-4.2634,-4.2634,-4.2634,-4.2634,-4.2634,-4.2634,-4.2634,-4.2634,-4.2634,-4.2634,-4.2634,-4.2634,-4.2634,-4.2634,-4.2634,0.0,0.0,0.0,0.0,0.0,0.0,0.0,0.0,-3.8391,0.0,0.0,0.0,0.0,0.0,0.0,0.0,0.0,0.0,0.0,0.0,0.0,0.0,0.0,0.0,0.0,0.0,0.0,0.0,0.0,-3.8391,-3.8391,-3.8391,-3.8391,-3.8391,-3.8391,-3.8537,-3.8845,-3.9266,-3.9622,-3.9914,-4.061,-4.1177,-4.1581,-4.1873,-4.2245,-4.2634,-4.2634,-4.2634,-4.2634,-4.2634,-4.2634,-4.2634,-4.2634,-4.2634,-4.2634,-4.2634,-4.2634,-4.2634,-4.2634,-4.2634,-4.2634,-4.2634,-4.2634,-4.2634,-4.2634,-4.2634,-4.2634,-4.2634,-4.2634,-4.2634,-4.2634,-4.2634,-4.2634,-4.2634,-4.2634,-4.2634,-4.2634,-4.2634,-4.2634,-4.2634,-4.2634,-4.2634,-4.2634,-4.2634,-4.2634,-4.2634,-4.2634,-4.2634,-4.2634,-4.2634,-4.2634,-4.2634,-4.2634,-4.2634,-4.2634,-4.2634,-4.2634,-4.2634,-4.2634,-4.2634,-4.2634,-4.2634,-4.2634,-4.2634,-4.2634,-4.2634,-4.2634,-4.2634,-4.2634,-4.2634,-4.2634,-4.2634,-3.5428,0.0,0.0,0.0,0.0,0.0,0.0,0.0,0.0,0.0,0.0,0.0,0.0,0.0,0.0,0.0,0.0,0.0,0.0,0.0,0.0,0.0,0.0,0.0,0.0,0.0,0.0,0.0,-3.8391,-3.8391,-3.8391,-3.8391,-3.8391,-3.8391,-3.8391,-3.8391,-3.8391,-3.8926,-3.9185,-3.9185,-3.9881,-4.0577,-4.129,-4.1484,-4.1954,-4.2634,-4.2634,-4.2634,-4.2634,-4.2634,-4.2634,-4.2634,-4.2634,-4.2634,-4.2634,-4.2634,-4.2634,-4.2634,-4.2634,-4.2634,-4.2634,-4.2634,-4.2634,-4.2634,-4.2634,-4.2634,-4.2634,-4.2634,-4.2634,-4.2634,-4.2634,-4.2634,-4.2634,-4.2634,-4.2634,-4.2634,-4.2634,-4.2634,-4.2634,-4.2634,-4.2634,-4.2634,-4.2634,-4.2634,-4.2634,-4.2634,-4.2634,-4.2634,-4.2634,-4.2634,-4.2634,-4.2634,-4.2634,-4.2634,-4.2634,-4.2634,-4.2634,-4.2634,-4.2634,-4.2634,-4.2634,-4.2634,-4.2634,-4.2634,-4.2634,-4.2634,-4.2634,-4.2634,-4.2634,-4.2634,-4.2634,-4.2634,0.0,0.0,0.0,-3.8197,0.0,0.0,0.0,0.0,-3.8391,0.0,0.0,0.0,0.0,0.0,0.0,-3.7469,0.0,0.0,0.0,0.0,0.0,0.0,0.0,0.0,0.0,0.0,0.0,-3.8391,-3.8391,-3.8391,-3.8391,-3.8391,-3.8391,-3.8391,-3.8391,-3.8391,-3.8391,-3.8424,-3.844,-3.844,-3.9169,-3.9865,-4.0545,-4.1241,-4.1954,-4.2634,-4.2634,-4.2634,-4.2634,-4.2634,-4.2634,-4.2634,-4.2634,-4.2634,-4.2634,-4.2634,-4.2634,-4.2634,-4.2634,-4.2634,-4.2634,-4.2634,-4.2634,-4.2634,-4.2634,-4.2634,-4.2634,-4.2634,-4.2634,-4.2634,-4.2634,-4.2634,-4.2634,-4.2634,-4.2634,-4.2634,-4.2634,-4.2634,-4.2634,-4.2634,-4.2634,-4.2634,-4.2634,-4.2634,-4.2634,-4.2634,-4.2634,-4.2634,-4.2634,-4.2634,-4.2634,-4.2634,-4.2634,-4.2634,-4.2634,-4.2634,-4.2634,-4.2634,-4.2634,-4.2634,-4.2634,-4.2634,-4.2634,-4.2634,-4.2634,-4.2634,-4.2634,-4.2634,-4.2634,-4.2634,-4.2634,-4.2634,0.0,0.0,-3.81,-3.8343,0.0,0.0,0.0,0.0,0.0,0.0,0.0,0.0,0.0,0.0,-3.8327,-3.8068,-3.8246,0.0,0.0,0.0,0.0,0.0,0.0,0.0,0.0,0.0,0.0,-3.8391,-3.8391,-3.8391,0.0,-3.8391,-3.8391,-3.8391,-3.8391,-3.8391,-3.8391,-3.8391,-3.8391,-3.8391,-3.8651,-3.9136,-3.9849,-4.0545,-4.1257,-4.1954,-4.2423,-4.2634,-4.2634,-4.2634,-4.2634,-4.2634,-4.2634,-4.2634,-4.2634,-4.2634,-4.2634,-4.2634,-4.2634,-4.2634,-4.2634,-4.2634,-4.2634,-4.2634,-4.2634,-4.2634,-4.2634,-4.2634,-4.2634,-4.2634,-4.2634,-4.2634,-4.2634,-4.2634,-4.2634,-4.2634,-4.2634,-4.2634,-4.2634,-4.2634,-4.2634,-4.2634,-4.2634,-4.2634,-4.2634,-4.2634,-4.2634,-4.2634,-4.2634,-4.2634,-4.2634,-4.2634,-4.2634,-4.2634,-4.2634,-4.2634,-4.2634,-4.2634,-4.2634,-4.2634,-4.2634,-4.2634,-4.2634,-4.2634,-4.2634,-4.2634,-4.2634,-4.2634,-4.2634,-4.2634,-4.2634,-4.2634,-3.7128,-3.7841,0.0,-3.8391,-3.8391,0.0,-3.8391,0.0,0.0,0.0,0.0,0.0,0.0,0.0,0.0,-3.8391,-3.8391,-3.8391,0.0,-3.8391,0.0,0.0,0.0,0.0,0.0,0.0,-3.8391,-3.8391,-3.8391,-3.8391,0.0,0.0,-3.8391,-3.8391,-3.8391,-3.8391,-3.8391,-3.8391,-3.8391,-3.8391,-3.8391,-3.878,-3.9509,-4.0189,-4.0885,-4.1614,-4.2326,-4.2634,-4.2634,-4.2634,-4.2634,-4.2634,-4.2634,-4.2634,-4.2634,-4.2634,-4.2634,-4.2634,-4.2634,-4.2634,-4.2634,-4.2634,-4.2634,-4.2634,-4.2634,-4.2634,-4.2731,-4.3249,-4.3022,-4.2747,-4.3265,-4.3022,-4.2634,-4.2634,-4.2634,-4.2634,-4.2634,-4.2634,-4.2634,-4.2634,-4.2634,-4.2634,-4.2634,-4.2634,-4.2634,-4.2634,-4.2634,-4.2634,-4.2634,-4.2634,-4.2634,-4.2634,-4.2634,-4.2634,-4.2634,-4.2634,-4.2634,-4.2634,-4.2634,-4.2634,-4.2634,-4.2634,-4.2634,-4.2634,-4.2634,-4.2634,-4.2634,-4.2634,-4.2634,-4.2634,-4.2634,-4.2634]}]]